[[[{"header":{"parameterUnit":"kt","parameterCategory":2,"dx":1,"dy":1,"la1":29.587661999999998,"la2":31.0,"lo1":-88.76705300000003,"lo2":-86.6583820000003,"nx":115,"ny":88,"refTime":"2022-09-24T18:00:00:Z","depth":0,"parameterNumber":1,"parameterNumberName":"U-component_of_WINDS"},"data":[4.4903,4.554,4.5694,4.5583,4.5244,4.5263,4.5008,4.4564,4.4564,4.4478,4.4278,4.3727,4.2761,4.1251,4.0657,4.0352,4.0513,4.0626,4.101,4.139,4.1475,4.1524,4.1681,4.1987,4.1886,4.1736,4.1553,4.1057,4.0152,4.0274,3.9904,3.8428,3.9366,3.8571,3.7478,3.7085,3.6762,3.6022,3.524,3.4684,3.3999,3.2959,3.1916,3.1572,3.1572,3.1342,3.1342,3.1353,3.0777,2.997,2.894,2.8244,2.7896,2.7664,2.7422,2.7074,2.685,2.685,2.6608,2.6375,2.6259,2.5667,2.555,2.5308,2.5075,2.4724,2.3906,2.3672,2.2844,2.1905,2.1207,2.0736,2.0383,1.944,1.8856,1.8271,1.7673,1.7206,1.6674,1.6268,1.5892,1.563,1.5378,1.4973,1.427,1.4129,1.3775,1.3257,1.302,1.2081,1.1139,1.0303,0.9347,0.7672,0.6116,0.6116,0.5996,0.5874,0.5515,0.5154,0.4553,0.3833,0.2624,0.1306,0.0119,-0.0828,-0.1647,-0.2569,-0.2904,-0.3239,-0.3099,-0.3076,-0.3179,-0.3159,-0.324,4.2815,4.3019,4.3584,4.3861,4.3776,4.3776,4.3537,4.3193,4.3211,4.2952,4.2329,4.1269,4.0394,3.9708,3.9179,3.8818,3.8674,3.8881,3.893,3.9294,3.9896,4.0015,4.0211,4.0517,4.0635,4.0628,4.036,3.956,3.8642,3.8414,3.8121,3.7472,3.6746,3.6082,3.6282,3.5919,3.5002,3.4456,3.4078,3.3519,3.2364,3.1238,3.0777,3.0086,2.9508,2.894,2.8824,2.8824,2.895,2.837,2.7896,2.7074,2.6483,2.6017,2.5784,2.5541,2.5317,2.5317,2.52,2.5083,2.485,2.4733,2.4841,2.4724,2.4491,2.3672,2.2257,2.1553,2.0847,2.003,1.944,1.8856,1.862,1.8147,1.7679,1.7093,1.6494,1.6009,1.5282,1.4662,1.4145,1.3613,1.3435,1.3348,1.3176,1.3201,1.2821,1.2322,1.1671,1.0847,0.9777,0.8591,0.7627,0.6572,0.5275,0.5037,0.5157,0.4791,0.43,0.3949,0.3346,0.2365,0.1292,-0.0117,-0.0934,-0.1739,-0.2651,-0.3333,-0.3789,-0.4236,-0.4193,-0.426,-0.4248,-0.4118,-0.4295,4.0923,4.1829,4.2522,4.2693,4.252,4.2433,4.2242,4.1791,4.1791,4.1112,3.9901,3.9284,3.8737,3.8188,3.8027,3.7702,3.7034,3.7299,3.7215,3.7309,3.7717,3.8261,3.8725,3.9081,3.9154,3.9315,3.8944,3.8326,3.7419,3.6752,3.6096,3.5546,3.5139,3.4471,3.3763,3.4072,3.359,3.2651,3.2834,3.1615,2.967,2.9481,2.9287,2.9056,2.8592,2.8128,2.7896,2.7548,2.7315,2.685,2.6608,2.5784,2.4841,2.4374,2.4023,2.3789,2.3672,2.3789,2.3789,2.3672,2.3555,2.3203,2.3078,2.2852,2.2852,2.1318,2.003,1.9433,1.8725,1.814,1.7437,1.7081,1.6726,1.6489,1.602,1.5669,1.5188,1.4657,1.427,1.3646,1.3171,1.2648,1.2452,1.2263,1.2098,1.2114,1.156,1.0943,1.0411,0.973,0.8188,0.6877,0.5673,0.4616,0.4043,0.3934,0.4054,0.3575,0.3091,0.273,0.2361,0.1167,0.0116,-0.081,-0.1728,-0.2507,-0.3172,-0.3845,-0.4405,-0.4838,-0.5126,-0.5303,-0.5175,-0.494,-0.5363,3.8922,4.0084,4.0949,4.1234,4.1129,4.1146,4.0779,4.029,4.0114,3.9163,3.7954,3.7597,3.7313,3.694,3.6672,3.6223,3.5594,3.5638,3.5393,3.5412,3.5608,3.6155,3.6656,3.6849,3.7229,3.7434,3.7262,3.6831,3.6162,3.5403,3.4715,3.3741,3.3257,3.2816,3.2066,3.2081,3.181,3.0923,3.0569,2.9195,2.7862,2.7692,2.7511,2.7396,2.7074,2.6725,2.6375,2.6026,2.5667,2.5083,2.485,2.4257,2.3321,2.2852,2.25,2.2265,2.2382,2.2265,2.2265,2.2265,2.2148,2.1795,2.1435,2.109,2.0147,1.8613,1.7555,1.7194,1.672,1.6133,1.5539,1.5183,1.4827,1.4594,1.4237,1.4004,1.3647,1.3406,1.3276,1.2766,1.237,1.205,1.1746,1.1508,1.1325,1.0839,1.026,0.9871,0.9325,0.8071,0.6657,0.5491,0.4082,0.3391,0.2941,0.2712,0.2818,0.2464,0.2108,0.1754,0.1516,0.0463,-0.0459,-0.1487,-0.2383,-0.3031,-0.3676,-0.434,-0.4878,-0.5399,-0.5691,-0.603,-0.5905,-0.5787,-0.6325,3.6441,3.6709,3.8168,3.8988,3.9553,3.957,3.9218,3.8737,3.7858,3.7193,3.6687,3.6313,3.6028,3.5684,3.5052,3.46,3.4237,3.3874,3.3638,3.3272,3.3719,3.3937,3.4178,3.4249,3.4911,3.5015,3.5003,3.4945,3.4773,3.41,3.306,3.1938,3.1528,3.1091,3.057,3.0504,2.986,2.8883,2.7782,2.7012,2.625,2.5781,2.5346,2.5294,2.5063,2.4699,2.4232,2.3898,2.3672,2.3086,2.2734,2.2382,2.1788,2.1318,2.0736,2.0619,2.0744,2.0619,2.0501,2.0626,2.0501,2.0265,2.0147,1.9558,1.8495,1.6963,1.6133,1.5658,1.5059,1.447,1.4113,1.3637,1.3399,1.3042,1.2808,1.2574,1.2315,1.2234,1.1959,1.1515,1.1124,1.0604,1.032,1.0316,1.001,0.9494,0.9119,0.8844,0.7976,0.6411,0.5156,0.4132,0.3099,0.2416,0.1854,0.1512,0.1621,0.1499,0.115,0.0803,0.0344,-0.0343,-0.1138,-0.1915,-0.2673,-0.3419,-0.4175,-0.4723,-0.5371,-0.5885,-0.632,-0.6647,-0.675,-0.6745,-0.6949,3.3933,3.4703,3.5277,3.6001,3.6673,3.7279,3.6931,3.598,3.5258,3.5084,3.5128,3.4676,3.4404,3.407,3.3433,3.2963,3.2598,3.214,3.1773,3.1643,3.183,3.1949,3.2241,3.2586,3.2804,3.3069,3.3138,3.3071,3.276,3.2195,3.1615,3.0671,3.0152,2.9569,2.9021,2.8717,2.787,2.6403,2.5317,2.4554,2.4072,2.3855,2.3431,2.3331,2.2944,2.2727,2.2436,2.2203,2.1773,2.1207,2.109,2.0501,1.9558,1.944,1.8974,1.8626,1.8744,1.862,1.8502,1.8738,1.8626,1.8508,1.839,1.7437,1.6251,1.5405,1.4806,1.4099,1.3628,1.3042,1.2566,1.2208,1.197,1.1727,1.1373,1.1139,1.1093,1.1043,1.0745,1.0297,0.9778,0.9265,0.8964,0.8947,0.8745,0.8372,0.821,0.7705,0.651,0.4945,0.3708,0.2932,0.2146,0.1357,0.08,0.0345,0.0115,-0.0229,-0.0227,-0.0338,-0.0901,-0.1459,-0.1785,-0.2432,-0.3067,-0.3941,-0.4707,-0.5347,-0.5778,-0.632,-0.6756,-0.6846,-0.6936,-0.6912,-0.687,3.167,3.2415,3.2693,3.3237,3.3891,3.4263,3.4065,3.3359,3.2775,3.2853,3.3346,3.2789,3.2314,3.2062,3.159,3.113,3.0669,3.0208,2.993,2.985,2.9901,3.0115,3.0385,3.0442,3.0674,3.0908,3.1,3.095,3.0755,3.0523,2.9934,2.9494,2.8903,2.8067,2.7469,2.6912,2.5335,2.3949,2.3208,2.2422,2.1685,2.1494,2.1169,2.0972,2.065,2.0449,2.0328,2.0066,1.9726,1.9339,1.9157,1.8974,1.7792,1.7673,1.7437,1.7087,1.685,1.6613,1.65,1.6619,1.6613,1.6494,1.6263,1.4956,1.4099,1.3476,1.3212,1.2738,1.2268,1.1699,1.1116,1.0889,1.0661,1.0505,1.034,1.0207,1.0164,1.0086,0.9926,0.9519,0.9082,0.8488,0.7643,0.7514,0.7302,0.7324,0.7026,0.6294,0.5206,0.3528,0.2315,0.1662,0.0999,0.0222,-0.0337,-0.0678,-0.1243,-0.1695,-0.1454,-0.1442,-0.1885,-0.2211,-0.2518,-0.3055,-0.3932,-0.4694,-0.5345,-0.5669,-0.6103,-0.6647,-0.6947,-0.6923,-0.6886,-0.6806,-0.6751,2.9427,2.9592,3.0552,3.1209,3.1517,3.0487,3.0555,3.1285,3.0809,3.0642,3.0826,3.0342,3.0061,3.0001,2.9628,2.9177,2.8632,2.8166,2.798,2.7875,2.7875,2.7898,2.7969,2.8016,2.8298,2.8378,2.8477,2.8653,2.8831,2.8608,2.8258,2.7792,2.7595,2.6528,2.5383,2.4432,2.3062,2.198,2.1192,2.035,1.9434,1.9095,1.8653,1.8439,1.8281,1.809,1.7981,1.7806,1.7586,1.7246,1.7163,1.7264,1.7081,1.6726,1.6483,1.6127,1.5658,1.5183,1.4951,1.5188,1.5069,1.4118,1.3766,1.3642,1.2878,1.2183,1.1809,1.1342,1.0954,1.0425,0.9872,0.9761,0.953,0.9266,0.9208,0.8922,0.9004,0.8784,0.8642,0.8439,0.8016,0.7394,0.6553,0.5992,0.5778,0.5571,0.5031,0.4284,0.2962,0.1527,0.1093,0.0439,-0.0219,-0.0986,-0.1315,-0.1654,-0.2101,-0.2554,-0.2419,-0.2745,-0.2846,-0.3167,-0.3489,-0.4034,-0.4798,-0.5234,-0.5667,-0.5992,-0.6419,-0.6606,-0.7007,-0.6969,-0.698,-0.6898,-0.7045,2.7018,2.7618,2.7967,2.8459,2.8623,2.7384,2.7403,2.8137,2.8176,2.8208,2.8364,2.815,2.7864,2.7611,2.7408,2.7023,2.6555,2.6097,2.5921,2.5921,2.5827,2.5921,2.5921,2.5964,2.6063,2.6205,2.6276,2.6493,2.683,2.6602,2.6531,2.6413,2.6124,2.4896,2.328,2.2139,2.1079,2.0143,1.9288,1.8538,1.7607,1.6904,1.6438,1.6082,1.589,1.5826,1.5672,1.5579,1.552,1.5128,1.4911,1.4947,1.4668,1.4493,1.448,1.4356,1.4123,1.4004,1.3766,1.4004,1.2928,1.1731,1.1143,1.0851,1.0624,1.055,1.0294,1.0124,0.9832,0.9543,0.9381,0.8937,0.8621,0.7982,0.7696,0.7056,0.7013,0.6819,0.661,0.6474,0.6198,0.5715,0.5127,0.4691,0.4034,0.3489,0.2834,0.1636,0.0436,0.0,-0.0327,-0.0765,-0.142,-0.1857,-0.2292,-0.2616,-0.3053,-0.338,-0.382,-0.4374,-0.4362,-0.4142,-0.4471,-0.4909,-0.5236,-0.556,-0.5992,-0.6291,-0.6579,-0.687,-0.7141,-0.7155,-0.7068,-0.73,-0.7632,2.4862,2.5524,2.5701,2.5606,2.5334,2.4601,2.4696,2.5348,2.5564,2.575,2.5899,2.5696,2.5467,2.5392,2.5227,2.4883,2.4446,2.4046,2.3856,2.3856,2.3856,2.3856,2.3856,2.3856,2.3961,2.4137,2.4375,2.4654,2.4898,2.5047,2.5145,2.5013,2.4454,2.3079,2.1276,1.9881,1.9314,1.831,1.7573,1.6821,1.5739,1.5099,1.4468,1.3944,1.3852,1.382,1.3726,1.3915,1.3905,1.3608,1.3682,1.3728,1.3612,1.3196,1.3089,1.3161,1.2813,1.2698,1.2455,1.2097,1.1262,1.0285,0.954,0.9339,0.9014,0.8834,0.8532,0.8365,0.8212,0.8014,0.8098,0.769,0.7336,0.6815,0.6427,0.5803,0.5315,0.503,0.4769,0.4751,0.4405,0.4046,0.3599,0.3162,0.2071,0.1308,0.0654,-0.0436,-0.1199,-0.1417,-0.1744,-0.218,-0.2616,-0.2943,-0.338,-0.3816,-0.4253,-0.4362,-0.4798,-0.5345,-0.5452,-0.5234,-0.5452,-0.5558,-0.5778,-0.5885,-0.6294,-0.6589,-0.6857,-0.7183,-0.7492,-0.7595,-0.7611,-0.7837,-0.8197,2.2854,2.326,2.3771,2.3021,2.1672,2.2353,2.2687,2.2876,2.3076,2.3327,2.3366,2.3084,2.2998,2.3112,2.2896,2.2586,2.2263,2.1912,2.1663,2.1663,2.1759,2.1768,2.1768,2.1863,2.2139,2.2434,2.2595,2.2824,2.3157,2.3363,2.3361,2.3196,2.2615,2.1544,1.9781,1.8326,1.7266,1.6436,1.5811,1.4963,1.4004,1.3259,1.2723,1.23,1.2016,1.1925,1.1948,1.2069,1.2017,1.1951,1.211,1.2269,1.2428,1.2021,1.2031,1.2047,1.1715,1.1258,1.0542,0.9948,0.9453,0.8951,0.8242,0.817,0.8121,0.7663,0.7091,0.6664,0.6522,0.6194,0.5788,0.559,0.5582,0.546,0.5286,0.4796,0.4227,0.3863,0.3409,0.3179,0.284,0.2398,0.2071,0.1526,0.0218,-0.0872,-0.1526,-0.2071,-0.2616,-0.3053,-0.338,-0.3816,-0.4035,-0.4253,-0.4362,-0.4907,-0.5236,-0.5236,-0.5454,-0.578,-0.5889,-0.6105,-0.632,-0.6318,-0.653,-0.6949,-0.7025,-0.6985,-0.7605,-0.8098,-0.816,-0.8234,-0.8122,-0.8352,-0.9064,2.0347,2.1095,2.1505,2.0759,1.9587,1.9756,2.0263,2.0768,2.0674,2.0603,2.0635,2.0773,2.0799,2.0578,2.0439,2.038,2.0035,1.9699,1.9617,1.9562,1.965,1.9858,2.0049,2.0137,2.0328,2.0805,2.0901,2.1005,2.1196,2.1303,2.1315,2.0952,2.0204,1.9138,1.7599,1.6475,1.5409,1.4567,1.3903,1.3194,1.2164,1.1524,1.0991,1.0561,1.0124,1.0019,1.0147,1.0174,1.0103,1.0152,1.0236,1.0245,1.0252,1.0156,1.0185,1.0275,1.011,1.0064,0.9586,0.8859,0.7752,0.7195,0.6627,0.6539,0.6358,0.6183,0.5551,0.5113,0.4863,0.4753,0.4376,0.4023,0.39,0.3703,0.3548,0.3305,0.2745,0.2304,0.1967,0.1635,0.1199,0.0763,0.0436,0.0109,-0.1199,-0.2616,-0.3162,-0.3707,-0.4034,-0.436,-0.4798,-0.5016,-0.5343,-0.5345,-0.5345,-0.556,-0.5885,-0.5887,-0.6214,-0.6432,-0.6758,-0.7087,-0.7302,-0.7505,-0.7702,-0.8005,-0.8158,-0.8391,-0.8761,-0.909,-0.915,-0.9311,-0.9304,-0.9792,-1.0279,1.7923,1.8584,1.8082,1.7411,1.6763,1.7147,1.7621,1.8045,1.8147,1.8147,1.8088,1.8552,1.8657,1.8451,1.8357,1.8006,1.7921,1.7591,1.7412,1.7391,1.7495,1.7739,1.8035,1.8316,1.8604,1.9187,1.9283,1.9387,1.9571,1.9796,1.9567,1.8517,1.7389,1.6459,1.5711,1.4669,1.3603,1.276,1.2055,1.1394,1.0569,1.0066,0.9686,0.9255,0.8818,0.8818,0.8709,0.8709,0.8709,0.8844,0.8905,0.9103,0.9198,0.9316,0.9432,0.9516,0.9535,0.924,0.8664,0.7548,0.6451,0.5444,0.4808,0.4521,0.4377,0.4106,0.3739,0.3395,0.3056,0.2737,0.2544,0.2306,0.2076,0.1759,0.1539,0.1312,0.0982,0.0655,0.0327,-0.0109,-0.0436,-0.0872,-0.109,-0.1416,-0.2834,-0.4251,-0.4798,-0.5236,-0.5341,-0.5449,-0.5667,-0.5887,-0.6105,-0.6214,-0.6214,-0.632,-0.6427,-0.6756,-0.6976,-0.7408,-0.784,-0.8166,-0.8364,-0.8683,-0.8879,-0.9018,-0.9249,-0.9665,-1.0103,-1.0461,-1.0477,-1.047,-1.0864,-1.1258,-1.1647,1.5455,1.5597,1.3976,1.3409,1.3512,1.4469,1.4928,1.5063,1.5476,1.5677,1.5755,1.6134,1.6483,1.6532,1.5955,1.5683,1.5918,1.5403,1.523,1.5154,1.5312,1.5575,1.6013,1.63,1.6623,1.745,1.7658,1.7946,1.8235,1.7843,1.668,1.5625,1.5051,1.4463,1.3774,1.3146,1.2141,1.1062,1.0416,0.9789,0.9242,0.8808,0.8558,0.8463,0.8374,0.8492,0.8489,0.8166,0.8057,0.8057,0.7973,0.8015,0.7983,0.8178,0.8251,0.8341,0.8462,0.7809,0.6987,0.5779,0.5042,0.4327,0.35,0.2909,0.2665,0.2086,0.1638,0.1636,0.1308,0.0873,0.0546,0.0218,0.0,-0.0219,-0.0328,-0.0654,-0.0981,-0.1199,-0.1525,-0.1744,-0.218,-0.2507,-0.2725,-0.3596,-0.4905,-0.5994,-0.654,-0.6647,-0.6644,-0.6644,-0.6864,-0.6864,-0.7082,-0.7082,-0.7082,-0.7188,-0.7405,-0.7623,-0.7734,-0.8166,-0.8804,-0.8997,-0.9189,-0.959,-1.014,-1.0085,-1.0213,-1.1116,-1.1881,-1.1942,-1.2031,-1.2031,-1.2226,-1.2712,-1.31,1.1119,0.9932,0.9934,1.0336,1.1026,1.1664,1.2115,1.2547,1.3077,1.3264,1.3356,1.3448,1.3566,1.3495,1.3321,1.316,1.3275,1.2994,1.2908,1.285,1.2924,1.3243,1.382,1.4265,1.4727,1.5611,1.5771,1.5971,1.5688,1.4922,1.3938,1.3288,1.2997,1.2712,1.2246,1.1623,1.0786,0.9687,0.9031,0.8438,0.7923,0.752,0.715,0.6763,0.6383,0.6105,0.6105,0.6211,0.6211,0.6211,0.6211,0.6332,0.6375,0.6428,0.6593,0.652,0.6371,0.5719,0.4547,0.3866,0.3295,0.2707,0.2013,0.1665,0.1321,0.0766,0.0327,-0.0109,-0.0327,-0.0654,-0.109,-0.1635,-0.1853,-0.2071,-0.218,-0.2507,-0.2834,-0.3161,-0.3378,-0.3705,-0.3925,-0.4251,-0.4903,-0.5665,-0.6538,-0.7517,-0.7952,-0.7949,-0.8057,-0.8057,-0.8057,-0.7949,-0.8057,-0.8057,-0.8057,-0.8166,-0.8275,-0.8492,-0.8492,-0.8808,-0.9735,-1.0028,-1.0278,-1.0813,-1.1443,-1.1646,-1.2003,-1.2945,-1.3757,-1.3711,-1.3676,-1.3585,-1.3682,-1.4064,-1.4451,0.6277,0.5833,0.6439,0.7223,0.8051,0.8635,0.9093,0.9602,1.0318,1.068,1.0756,1.1031,1.129,1.123,1.0977,1.0873,1.0836,1.0668,1.0589,1.0598,1.0795,1.117,1.1622,1.2026,1.2608,1.3148,1.3605,1.3616,1.246,1.1399,1.1076,1.1026,1.1054,1.0854,1.0288,0.9991,0.9401,0.8646,0.7727,0.7035,0.6445,0.6136,0.5887,0.5576,0.5346,0.5166,0.4968,0.4772,0.4689,0.4471,0.4471,0.4471,0.4485,0.4505,0.4532,0.4534,0.3794,0.2678,0.1774,0.1673,0.1225,0.0775,0.0663,0.0331,-0.0219,-0.0654,-0.0981,-0.1526,-0.1744,-0.2289,-0.2834,-0.338,-0.3598,-0.3816,-0.3925,-0.4251,-0.4576,-0.4905,-0.5232,-0.5452,-0.5778,-0.632,-0.6862,-0.7405,-0.784,-0.8492,-0.86,-0.8709,-0.8818,-0.9035,-0.9035,-0.9035,-0.9035,-0.9035,-0.9143,-0.9123,-0.9116,-0.9437,-0.9437,-0.9775,-1.0607,-1.1283,-1.1593,-1.2098,-1.2784,-1.3497,-1.4058,-1.4677,-1.5283,-1.5347,-1.5418,-1.5225,-1.5135,-1.5508,-1.5944,0.137,0.2671,0.3269,0.3922,0.4725,0.5392,0.5919,0.6347,0.7289,0.782,0.7781,0.8659,0.9013,0.8956,0.8791,0.87,0.8663,0.8516,0.841,0.8429,0.862,0.8969,0.9396,0.9492,1.0155,1.0582,1.0996,0.9962,0.8919,0.882,0.8802,0.8931,0.895,0.8797,0.8422,0.8135,0.794,0.735,0.6573,0.5739,0.5128,0.4908,0.4742,0.4667,0.4513,0.4246,0.3843,0.3553,0.3478,0.3157,0.3053,0.3053,0.3053,0.3053,0.3053,0.218,0.0981,-0.0436,-0.0437,-0.0548,-0.0766,-0.0985,-0.1092,-0.1418,-0.1853,-0.218,-0.2398,-0.2834,-0.3378,-0.3923,-0.436,-0.5125,-0.5454,-0.5563,-0.5778,-0.6103,-0.6209,-0.6644,-0.6753,-0.7079,-0.8172,-0.8604,-0.8926,-0.9035,-0.914,-0.914,-0.9252,-0.936,-0.9469,-0.9798,-0.9907,-1.0015,-1.0124,-1.0124,-1.0124,-0.9954,-1.0047,-1.0585,-1.0594,-1.0779,-1.1666,-1.2414,-1.282,-1.3425,-1.415,-1.4843,-1.5692,-1.6383,-1.6804,-1.6969,-1.6969,-1.6776,-1.6666,-1.7,-1.731,-0.1751,-0.0305,-0.0153,0.0537,0.1539,0.2202,0.2709,0.3211,0.4077,0.4492,0.458,0.5357,0.5918,0.5984,0.6175,0.6354,0.6357,0.6291,0.6321,0.6333,0.6366,0.6422,0.6748,0.7066,0.7485,0.7977,0.8265,0.7913,0.6331,0.6142,0.6495,0.6774,0.6809,0.6757,0.6551,0.6271,0.6081,0.5689,0.5297,0.5005,0.4551,0.4013,0.3448,0.305,0.2581,0.2412,0.222,0.192,0.1614,0.1302,0.098,0.0763,0.0654,0.0654,-0.0218,-0.1744,-0.2507,-0.2725,-0.2834,-0.2834,-0.2725,-0.2834,-0.2943,-0.3271,-0.3598,-0.3707,-0.3925,-0.4689,-0.5123,-0.5556,-0.5883,-0.6649,-0.7087,-0.7302,-0.7626,-0.8057,-0.8166,-0.8163,-0.838,-0.9252,-1.0453,-1.0995,-1.1212,-1.1316,-1.1204,-1.1095,-1.1095,-1.1099,-1.1095,-1.1208,-1.1208,-1.132,-1.132,-1.132,-1.1144,-1.0965,-1.1208,-1.1601,-1.1789,-1.206,-1.2789,-1.3494,-1.4219,-1.4921,-1.5626,-1.6689,-1.7471,-1.8235,-1.8262,-1.8238,-1.8396,-1.8254,-1.8004,-1.8203,-1.8493,-0.5022,-0.35,-0.3498,-0.274,-0.1526,-0.108,-0.0546,0.0237,0.1039,0.1545,0.1989,0.2606,0.2975,0.3346,0.3809,0.4094,0.4181,0.4183,0.427,0.4181,0.4183,0.43,0.4419,0.4604,0.4931,0.5162,0.4789,0.4059,0.3648,0.3743,0.4246,0.4596,0.4752,0.4696,0.4644,0.4486,0.4411,0.4215,0.3825,0.3533,0.344,0.2572,0.1891,0.1401,0.1014,0.0822,0.052,0.0105,-0.0107,-0.043,-0.0868,-0.1198,-0.1526,-0.2179,-0.3485,-0.4357,-0.5012,-0.5232,-0.5232,-0.4903,-0.4794,-0.4685,-0.4469,-0.458,-0.4689,-0.5016,-0.523,-0.5667,-0.6209,-0.6973,-0.7294,-0.806,-0.8498,-0.8716,-0.9143,-0.9577,-0.9903,-0.9903,-1.0549,-1.1524,-1.2394,-1.2832,-1.3161,-1.3269,-1.3161,-1.3053,-1.3053,-1.3048,-1.294,-1.294,-1.2832,-1.2832,-1.2827,-1.2768,-1.2525,-1.228,-1.2359,-1.2725,-1.3025,-1.3403,-1.3883,-1.4531,-1.5219,-1.6373,-1.7559,-1.869,-1.9363,-1.9496,-1.9422,-1.9459,-1.9376,-1.9183,-1.9169,-1.9322,-1.9547,-0.8362,-0.6843,-0.6843,-0.5937,-0.4645,-0.4495,-0.3775,-0.2584,-0.1958,-0.1351,-0.065,0.0,0.0584,0.0926,0.137,0.1809,0.1975,0.2157,0.2167,0.2265,0.2266,0.2267,0.2274,0.2451,0.2379,0.2129,0.1326,0.0795,0.0981,0.1433,0.1899,0.2397,0.2524,0.2647,0.2667,0.2607,0.2531,0.2431,0.2153,0.1963,0.1767,0.1082,0.0295,-0.0296,-0.0598,-0.0806,-0.1118,-0.1245,-0.1585,-0.2127,-0.2694,-0.3033,-0.3794,-0.5324,-0.6204,-0.6533,-0.6862,-0.7079,-0.7079,-0.675,-0.6535,-0.6427,-0.6209,-0.5996,-0.5996,-0.6318,-0.6642,-0.6859,-0.7517,-0.839,-0.9143,-0.969,-1.0019,-1.0232,-1.0662,-1.1199,-1.1637,-1.2178,-1.2935,-1.4004,-1.4333,-1.4657,-1.4878,-1.4878,-1.4872,-1.498,-1.4986,-1.4878,-1.4878,-1.477,-1.4657,-1.4543,-1.4419,-1.4148,-1.3868,-1.3772,-1.3576,-1.403,-1.4308,-1.4661,-1.504,-1.5535,-1.6632,-1.803,-1.9332,-2.006,-2.0389,-2.0553,-2.0592,-2.0579,-2.0296,-2.0041,-2.0166,-2.0295,-2.0519,-1.168,-1.0169,-1.0169,-0.9269,-0.7988,-0.7761,-0.7018,-0.5819,-0.505,-0.4506,-0.3882,-0.2467,-0.2025,-0.1556,-0.0991,-0.0578,-0.0332,-0.0252,0.0086,0.026,0.0347,0.0348,0.0262,0.0,-0.0437,-0.1749,-0.2008,-0.192,-0.149,-0.1053,-0.0444,0.0,0.0272,0.0551,0.056,0.0569,0.0479,0.048,0.0388,0.0294,0.0196,-0.0294,-0.108,-0.1866,-0.2369,-0.278,-0.2916,-0.3252,-0.361,-0.3923,-0.4369,-0.5334,-0.6528,-0.7766,-0.8275,-0.8371,-0.8453,-0.8669,-0.8565,-0.8476,-0.8265,-0.8383,-0.8166,-0.8166,-0.8166,-0.8163,-0.8272,-0.8492,-0.9038,-0.9798,-1.0774,-1.1429,-1.1975,-1.2295,-1.2507,-1.2935,-1.3583,-1.4878,-1.5632,-1.6594,-1.6594,-1.6486,-1.6594,-1.6701,-1.6695,-1.6802,-1.6809,-1.6809,-1.6809,-1.6802,-1.6669,-1.655,-1.6098,-1.5714,-1.5489,-1.5263,-1.5,-1.5283,-1.5613,-1.5894,-1.6196,-1.7265,-1.8692,-1.9928,-2.0475,-2.0807,-2.1092,-2.129,-2.1429,-2.1655,-2.1492,-2.1047,-2.1103,-2.1216,-2.1549,-1.4963,-1.3546,-1.3472,-1.2574,-1.1229,-1.0772,-1.0018,-0.8891,-0.8051,-0.7426,-0.6661,-0.5572,-0.4916,-0.465,-0.3649,-0.3179,-0.3027,-0.2561,-0.2181,-0.2047,-0.1801,-0.1811,-0.1911,-0.2875,-0.3658,-0.427,-0.4355,-0.4007,-0.3571,-0.3055,-0.263,-0.2122,-0.1702,-0.1446,-0.137,-0.1395,-0.1408,-0.1509,-0.1533,-0.1548,-0.1648,-0.2145,-0.2845,-0.3531,-0.4319,-0.4821,-0.4773,-0.5209,-0.5386,-0.5757,-0.6713,-0.7875,-0.8692,-0.9598,-0.9952,-0.9956,-1.0163,-1.0512,-1.029,-1.0096,-0.9912,-1.0108,-0.9791,-0.9682,-0.9682,-1.0011,-1.0011,-1.0228,-1.0883,-1.1749,-1.261,-1.3269,-1.3599,-1.3918,-1.4128,-1.4668,-1.5416,-1.6815,-1.8002,-1.811,-1.8317,-1.8317,-1.8424,-1.8531,-1.8639,-1.8738,-1.8746,-1.8831,-1.8831,-1.8568,-1.8546,-1.806,-1.7599,-1.7297,-1.7046,-1.6687,-1.6396,-1.6633,-1.6986,-1.7309,-1.8108,-1.9426,-2.0631,-2.104,-2.1541,-2.1783,-2.1803,-2.1799,-2.1978,-2.2012,-2.2037,-2.1917,-2.198,-2.2204,-2.2434,-1.8134,-1.6734,-1.6669,-1.5706,-1.4449,-1.377,-1.2941,-1.1899,-1.1072,-1.0175,-0.9385,-0.8521,-0.7885,-0.7282,-0.6353,-0.5865,-0.5684,-0.4928,-0.4578,-0.4582,-0.4191,-0.4259,-0.5133,-0.6033,-0.6737,-0.6577,-0.642,-0.6094,-0.5572,-0.5142,-0.4622,-0.4194,-0.3718,-0.3306,-0.3314,-0.337,-0.3315,-0.3419,-0.3474,-0.3507,-0.3614,-0.4046,-0.4572,-0.516,-0.5968,-0.657,-0.6789,-0.6957,-0.7302,-0.8011,-0.9351,-1.0463,-1.0769,-1.1562,-1.1913,-1.1918,-1.2316,-1.2581,-1.2194,-1.1822,-1.1574,-1.1736,-1.1436,-1.1153,-1.1286,-1.1637,-1.1853,-1.207,-1.2723,-1.348,-1.4231,-1.4883,-1.5422,-1.5644,-1.5967,-1.6499,-1.7567,-1.8853,-1.9609,-1.9823,-1.993,-1.9823,-1.9823,-2.0357,-2.0463,-2.0578,-2.0669,-2.0851,-2.0689,-2.0414,-2.0009,-1.942,-1.893,-1.8596,-1.825,-1.7936,-1.7806,-1.7956,-1.8474,-1.89,-2.038,-2.178,-2.215,-2.2425,-2.2673,-2.2428,-2.2378,-2.2445,-2.2697,-2.242,-2.2229,-2.2564,-2.2873,-2.3156,-2.3371,-2.1358,-1.9881,-1.9537,-1.8742,-1.7629,-1.6752,-1.6002,-1.5112,-1.4069,-1.3098,-1.2199,-1.1021,-1.0241,-0.938,-0.9003,-0.852,-0.8151,-0.7372,-0.7126,-0.6826,-0.6742,-0.7155,-0.8431,-0.898,-0.8819,-0.8506,-0.8626,-0.842,-0.7833,-0.7142,-0.6711,-0.6456,-0.5762,-0.5421,-0.5369,-0.5356,-0.5311,-0.5338,-0.5423,-0.5477,-0.5592,-0.5771,-0.6126,-0.6722,-0.7472,-0.8105,-0.8718,-0.9128,-0.9927,-1.1677,-1.2651,-1.3139,-1.3287,-1.3804,-1.4177,-1.4166,-1.4245,-1.4177,-1.3749,-1.3658,-1.3445,-1.3332,-1.3273,-1.324,-1.3511,-1.3681,-1.3799,-1.3794,-1.4236,-1.4997,-1.5638,-1.6492,-1.7137,-1.7788,-1.8009,-1.9081,-2.0463,-2.121,-2.153,-2.2053,-2.216,-2.2168,-2.2168,-2.2283,-2.2266,-2.2156,-2.235,-2.2222,-2.1956,-2.1688,-2.1375,-2.0768,-2.0303,-1.9942,-1.9543,-1.9163,-1.922,-1.9412,-1.9962,-2.0892,-2.2377,-2.3511,-2.3847,-2.3803,-2.374,-2.356,-2.3364,-2.3313,-2.3452,-2.3426,-2.3592,-2.3689,-2.3865,-2.4223,-2.4708,-2.4438,-2.3065,-2.2659,-2.1877,-2.0715,-1.9694,-1.8962,-1.8281,-1.702,-1.6002,-1.5326,-1.421,-1.3247,-1.2506,-1.1899,-1.1304,-1.0563,-1.004,-0.9482,-0.9157,-0.9032,-0.9983,-1.1137,-1.135,-1.1024,-1.0638,-1.0675,-1.0416,-0.9913,-0.9311,-0.8878,-0.8527,-0.8003,-0.7479,-0.7229,-0.7207,-0.7234,-0.7261,-0.7376,-0.737,-0.7471,-0.7514,-0.7993,-0.8578,-0.9199,-0.9785,-1.0558,-1.0956,-1.2313,-1.4276,-1.5231,-1.5588,-1.5698,-1.6203,-1.6356,-1.6066,-1.6356,-1.6351,-1.5978,-1.5635,-1.5559,-1.5579,-1.5482,-1.5498,-1.5612,-1.5876,-1.5949,-1.5949,-1.6499,-1.7043,-1.7573,-1.8324,-1.9074,-1.9708,-2.0882,-2.2062,-2.2903,-2.2983,-2.3221,-2.3327,-2.3433,-2.3442,-2.3442,-2.376,-2.3853,-2.368,-2.3816,-2.3596,-2.3125,-2.295,-2.2695,-2.1989,-2.1508,-2.1297,-2.099,-2.0876,-2.0936,-2.0918,-2.1482,-2.2605,-2.4102,-2.5467,-2.5441,-2.503,-2.4861,-2.4731,-2.4358,-2.4222,-2.4416,-2.474,-2.4956,-2.5169,-2.5238,-2.5481,-2.6047,-2.7421,-2.6211,-2.5603,-2.4821,-2.3821,-2.2599,-2.1853,-2.1262,-1.9892,-1.8952,-1.8218,-1.726,-1.6299,-1.5426,-1.4681,-1.3927,-1.3172,-1.258,-1.1905,-1.1574,-1.1998,-1.2986,-1.349,-1.3522,-1.3156,-1.2784,-1.2668,-1.2351,-1.1974,-1.1468,-1.1031,-1.0599,-1.0249,-0.973,-0.9307,-0.9316,-0.9225,-0.9155,-0.9197,-0.9258,-0.9377,-0.9537,-0.9978,-1.068,-1.119,-1.1806,-1.2401,-1.2904,-1.4456,-1.7044,-1.7828,-1.8108,-1.8227,-1.8627,-1.8843,-1.8555,-1.8731,-1.8818,-1.8445,-1.8106,-1.786,-1.785,-1.7651,-1.7691,-1.7733,-1.7961,-1.8092,-1.831,-1.8646,-1.9081,-1.9716,-2.025,-2.089,-2.1611,-2.2965,-2.4204,-2.4535,-2.4592,-2.4592,-2.4592,-2.4658,-2.463,-2.4714,-2.4922,-2.5145,-2.4921,-2.5008,-2.5092,-2.4446,-2.418,-2.3955,-2.3273,-2.2995,-2.2795,-2.2652,-2.2662,-2.2624,-2.2709,-2.3533,-2.4634,-2.5985,-2.7024,-2.6692,-2.6418,-2.6347,-2.6081,-2.5683,-2.5465,-2.5618,-2.5927,-2.6153,-2.6472,-2.6582,-2.6671,-2.7175,-3.028,-2.9177,-2.8089,-2.7276,-2.6675,-2.5419,-2.4652,-2.412,-2.2959,-2.1877,-2.0872,-1.9986,-1.8962,-1.7923,-1.7195,-1.653,-1.592,-1.4971,-1.454,-1.4921,-1.5617,-1.5949,-1.5693,-1.5528,-1.5203,-1.4864,-1.4602,-1.4371,-1.4286,-1.3613,-1.3092,-1.292,-1.2496,-1.2071,-1.1726,-1.1646,-1.1473,-1.1117,-1.1052,-1.1251,-1.162,-1.1817,-1.2133,-1.2631,-1.3288,-1.381,-1.4343,-1.5122,-1.6828,-1.9505,-2.0502,-2.0892,-2.0901,-2.1291,-2.1559,-2.1464,-2.1568,-2.1232,-2.0936,-2.071,-2.0454,-1.9878,-1.9728,-1.9713,-1.9859,-2.0047,-2.0226,-2.0469,-2.0653,-2.089,-2.1521,-2.202,-2.263,-2.3221,-2.4569,-2.5528,-2.5887,-2.6029,-2.6111,-2.607,-2.5977,-2.5987,-2.6091,-2.608,-2.6129,-2.6025,-2.6104,-2.5984,-2.5572,-2.545,-2.5176,-2.5041,-2.481,-2.4675,-2.4685,-2.4697,-2.4697,-2.4948,-2.5883,-2.6934,-2.8143,-2.82,-2.7936,-2.7865,-2.786,-2.751,-2.7252,-2.7264,-2.7359,-2.7487,-2.7615,-2.7667,-2.7841,-2.7793,-2.8098,-3.1762,-3.0305,-2.9924,-2.9304,-2.8491,-2.8105,-2.7561,-2.6789,-2.5646,-2.4736,-2.3879,-2.2815,-2.1732,-2.0715,-2.0059,-1.9255,-1.8164,-1.7722,-1.809,-1.8962,-1.9035,-1.8458,-1.7982,-1.769,-1.7316,-1.6975,-1.6729,-1.6503,-1.6244,-1.591,-1.5491,-1.4992,-1.4735,-1.4392,-1.395,-1.3957,-1.3864,-1.3686,-1.3601,-1.3686,-1.3884,-1.3963,-1.4196,-1.464,-1.5391,-1.6078,-1.6797,-1.8845,-2.074,-2.2323,-2.3393,-2.3995,-2.4194,-2.41,-2.41,-2.4005,-2.3836,-2.3667,-2.3478,-2.3089,-2.27,-2.2171,-2.1908,-2.1723,-2.1698,-2.212,-2.2329,-2.2555,-2.2738,-2.3115,-2.3591,-2.3753,-2.4393,-2.578,-2.673,-2.7387,-2.786,-2.7971,-2.7948,-2.8002,-2.7915,-2.7971,-2.7959,-2.7948,-2.7946,-2.7741,-2.7684,-2.7504,-2.711,-2.6953,-2.6885,-2.6784,-2.6682,-2.6682,-2.6671,-2.6671,-2.6682,-2.7385,-2.8169,-2.9089,-2.9634,-2.9548,-2.9403,-2.9343,-2.935,-2.9102,-2.9033,-2.8979,-2.9058,-2.9172,-2.9375,-2.9341,-2.9342,-2.9237,-2.9088,-3.4158,-3.2747,-3.2541,-3.191,-3.1123,-3.0814,-3.028,-2.9491,-2.8382,-2.7421,-2.6563,-2.5589,-2.4522,-2.3462,-2.2755,-2.1816,-2.0811,-2.1297,-2.1732,-2.2033,-2.1454,-2.0799,-2.0154,-1.98,-1.9387,-1.9062,-1.8818,-1.8555,-1.8408,-1.8323,-1.796,-1.7382,-1.7204,-1.6864,-1.6251,-1.6259,-1.6166,-1.6073,-1.5988,-1.6166,-1.6422,-1.6422,-1.6703,-1.7097,-1.7841,-1.8996,-2.0494,-2.2694,-2.4342,-2.5235,-2.6025,-2.6654,-2.6977,-2.6907,-2.672,-2.6637,-2.6285,-2.6025,-2.6036,-2.5555,-2.5074,-2.456,-2.4184,-2.3837,-2.3693,-2.3869,-2.4103,-2.4313,-2.4552,-2.4856,-2.5223,-2.5175,-2.5941,-2.7868,-2.8445,-2.879,-2.9249,-2.9478,-2.9647,-2.9635,-2.9647,-2.9635,-2.9611,-2.9599,-2.9502,-2.9307,-2.9258,-2.9185,-2.8834,-2.8773,-2.8725,-2.8725,-2.8725,-2.8725,-2.8725,-2.8725,-2.9121,-2.9891,-3.0332,-3.0977,-3.1029,-3.0934,-3.0879,-3.0821,-3.083,-3.0773,-3.0744,-3.0766,-3.0844,-3.0984,-3.0758,-3.0734,-3.0867,-3.0706,-3.0367,-3.7836,-3.6777,-3.62,-3.5328,-3.4504,-3.3576,-3.2863,-3.2053,-3.1102,-3.0058,-2.8953,-2.8104,-2.7195,-2.6155,-2.5106,-2.4419,-2.425,-2.5163,-2.5163,-2.412,-2.3834,-2.3188,-2.2238,-2.1816,-2.1401,-2.0992,-2.0756,-2.0639,-2.0575,-2.0512,-2.0299,-2.0,-1.9916,-1.9494,-1.875,-1.8741,-1.8469,-1.8198,-1.8113,-1.8469,-1.908,-1.9315,-1.9681,-2.0376,-2.0798,-2.2534,-2.5715,-2.636,-2.7156,-2.8117,-2.8429,-2.8701,-2.9385,-2.9417,-2.935,-2.9257,-2.8805,-2.8551,-2.8458,-2.8085,-2.7501,-2.6952,-2.6472,-2.6128,-2.5891,-2.5718,-2.5666,-2.6,-2.6067,-2.6187,-2.6308,-2.668,-2.7604,-2.8902,-2.9338,-2.9654,-3.0057,-3.0457,-3.0721,-3.0719,-3.0691,-3.0734,-3.0721,-3.0784,-3.0822,-3.0812,-3.0865,-3.0734,-3.0774,-3.0656,-3.0669,-3.0669,-3.0669,-3.0669,-3.0669,-3.0815,-3.1552,-3.2095,-3.2259,-3.2329,-3.2281,-3.2158,-3.208,-3.2488,-3.2472,-3.2457,-3.2426,-3.2322,-3.2497,-3.2493,-3.1912,-3.1724,-3.1741,-3.1591,-3.1453,-3.9281,-3.7744,-3.728,-3.6804,-3.6153,-3.5919,-3.5277,-3.4333,-3.3533,-3.2576,-3.1561,-3.047,-2.9645,-2.8745,-2.7615,-2.7561,-2.8467,-2.7895,-2.7406,-2.6929,-2.5957,-2.5248,-2.4807,-2.3977,-2.3331,-2.3024,-2.2963,-2.291,-2.2716,-2.2463,-2.2303,-2.2237,-2.2269,-2.2102,-2.185,-2.185,-2.1756,-2.1578,-2.1578,-2.1662,-2.2007,-2.2353,-2.2687,-2.3271,-2.531,-2.7303,-2.857,-2.9473,-3.0164,-3.0578,-3.1572,-3.2278,-3.2502,-3.235,-3.2113,-3.1838,-3.1393,-3.0946,-3.0564,-3.0367,-2.9905,-2.9072,-2.8607,-2.8108,-2.784,-2.7689,-2.7629,-2.777,-2.7921,-2.8157,-2.834,-2.8997,-2.9833,-3.0475,-3.076,-3.1025,-3.1393,-3.1682,-3.1773,-3.1787,-3.1865,-3.1957,-3.2154,-3.2259,-3.2429,-3.2689,-3.2676,-3.2689,-3.2689,-3.2676,-3.2676,-3.2689,-3.2689,-3.2676,-3.2692,-3.318,-3.4017,-3.3629,-3.3585,-3.3601,-3.3617,-3.3382,-3.3489,-3.3966,-3.4202,-3.4202,-3.4039,-3.3886,-3.3961,-3.4104,-3.3563,-3.294,-3.2817,-3.261,-3.2741,-4.1594,-4.0271,-3.9774,-3.9049,-3.8338,-3.8389,-3.7727,-3.663,-3.5829,-3.4975,-3.4115,-3.2979,-3.2036,-3.1204,-3.0932,-3.1119,-3.1646,-3.059,-2.9697,-2.9092,-2.8119,-2.7435,-2.7014,-2.6112,-2.5488,-2.5031,-2.4936,-2.4619,-2.4314,-2.4462,-2.4409,-2.4227,-2.4425,-2.4447,-2.4364,-2.4269,-2.4269,-2.4269,-2.4424,-2.459,-2.4838,-2.5264,-2.6146,-2.7363,-2.98,-3.1277,-3.1517,-3.2326,-3.2839,-3.3083,-3.4129,-3.4835,-3.524,-3.5155,-3.495,-3.4632,-3.4118,-3.3482,-3.2935,-3.2662,-3.2205,-3.1393,-3.092,-3.0472,-2.9993,-2.9753,-2.9587,-2.9365,-2.9573,-3.0103,-3.0649,-3.1309,-3.1865,-3.2205,-3.2401,-3.2689,-3.2977,-3.3251,-3.3328,-3.3328,-3.3342,-3.3433,-3.3721,-3.3826,-3.3888,-3.4147,-3.4147,-3.4147,-3.4147,-3.4237,-3.4147,-3.4223,-3.4299,-3.4529,-3.4623,-3.5439,-3.5746,-3.5099,-3.4822,-3.4979,-3.5061,-3.4888,-3.5167,-3.5676,-3.5893,-3.5876,-3.5774,-3.5535,-3.4817,-3.4953,-3.4737,-3.4237,-3.434,-3.3934,-3.4014,-4.4811,-4.44,-4.3546,-4.229,-4.1162,-4.0836,-4.009,-3.9127,-3.8111,-3.7321,-3.6525,-3.5567,-3.4513,-3.3764,-3.456,-3.4645,-3.3982,-3.3181,-3.2104,-3.0982,-3.0451,-2.9608,-2.8521,-2.8135,-2.7591,-2.7029,-2.6664,-2.6108,-2.5604,-2.6496,-2.6649,-2.5841,-2.6429,-2.6557,-2.6286,-2.6323,-2.6278,-2.643,-2.6734,-2.7131,-2.7553,-2.8219,-3.0137,-3.2777,-3.4074,-3.4546,-3.4625,-3.5,-3.5537,-3.6079,-3.6294,-3.6666,-3.7469,-3.7613,-3.754,-3.7375,-3.6952,-3.6267,-3.5503,-3.4932,-3.439,-3.386,-3.3391,-3.2949,-3.2323,-3.1905,-3.1472,-3.088,-3.1169,-3.1881,-3.3349,-3.3658,-3.3769,-3.386,-3.4161,-3.4433,-3.4448,-3.4886,-3.5157,-3.5157,-3.5067,-3.5067,-3.5157,-3.5248,-3.5338,-3.5338,-3.5338,-3.5278,-3.5324,-3.5219,-3.5249,-3.5294,-3.5546,-3.6099,-3.6484,-3.663,-3.6534,-3.6234,-3.611,-3.6296,-3.6391,-3.6575,-3.6962,-3.7347,-3.7501,-3.7525,-3.74,-3.6979,-3.623,-3.5716,-3.5474,-3.5383,-3.5365,-3.5166,-3.5381,-4.6428,-4.6167,-4.5575,-4.4796,-4.3737,-4.2744,-4.2041,-4.1469,-4.0482,-3.9546,-3.8726,-3.7706,-3.7557,-3.8028,-3.7493,-3.6869,-3.6109,-3.4909,-3.3982,-3.3333,-3.2459,-3.1646,-3.0777,-3.0159,-2.9677,-2.9209,-2.8552,-2.7931,-2.7607,-2.7837,-2.78,-2.7745,-2.8394,-2.8543,-2.8294,-2.8934,-2.929,-2.9357,-2.9828,-3.0218,-3.0956,-3.3142,-3.5045,-3.6247,-3.7098,-3.7637,-3.7867,-3.8308,-3.8666,-3.8809,-3.9358,-3.9632,-3.9606,-3.9801,-3.9895,-3.9799,-3.934,-3.8881,-3.8277,-3.755,-3.682,-3.6298,-3.5474,-3.4857,-3.4419,-3.3936,-3.3391,-3.3055,-3.4132,-3.5037,-3.5684,-3.5789,-3.5774,-3.5774,-3.5789,-3.5969,-3.5984,-3.6059,-3.6223,-3.6149,-3.6239,-3.6149,-3.6239,-3.6492,-3.6835,-3.7119,-3.7208,-3.7114,-3.6612,-3.6367,-3.6195,-3.5709,-3.5701,-3.6254,-3.6975,-3.7406,-3.7465,-3.7341,-3.7409,-3.7649,-3.7993,-3.8287,-3.865,-3.9125,-3.9277,-3.9222,-3.8643,-3.827,-3.7741,-3.6921,-3.66,-3.6601,-3.6534,-3.6735,-3.6974,-4.8138,-4.7694,-4.7389,-4.663,-4.5715,-4.4879,-4.4175,-4.3463,-4.2563,-4.1774,-4.0977,-4.0624,-4.0747,-4.1117,-3.9837,-3.8916,-3.8238,-3.7192,-3.6285,-3.5474,-3.4513,-3.3734,-3.3015,-3.2206,-3.1613,-3.1187,-3.0451,-2.9936,-2.9534,-2.9183,-2.9098,-2.9327,-2.999,-3.038,-3.0495,-3.1105,-3.1515,-3.1837,-3.2475,-3.3553,-3.5185,-3.743,-3.8766,-3.9297,-4.0184,-4.0784,-4.1027,-4.1549,-4.1826,-4.1866,-4.2304,-4.2382,-4.2238,-4.2316,-4.2336,-4.2174,-4.1546,-4.0841,-4.0056,-3.9396,-3.8815,-3.8422,-3.7728,-3.7014,-3.6403,-3.6118,-3.5998,-3.6267,-3.7119,-3.776,-3.7744,-3.7744,-3.776,-3.776,-3.7744,-3.7744,-3.7744,-3.7744,-3.776,-3.776,-3.7744,-3.7744,-3.7744,-3.8011,-3.818,-3.8097,-3.7844,-3.7432,-3.7144,-3.7046,-3.6766,-3.6512,-3.6566,-3.7035,-3.7708,-3.8293,-3.8563,-3.8586,-3.8726,-3.9125,-3.9543,-3.9921,-4.028,-4.0881,-4.0606,-4.0158,-3.96,-3.9205,-3.8459,-3.8325,-3.792,-3.766,-3.7896,-3.8195,-3.881,-4.9719,-4.9206,-4.8934,-4.8194,-4.722,-4.6995,-4.6231,-4.517,-4.4445,-4.3879,-4.3559,-4.3974,-4.382,-4.3105,-4.1835,-4.0915,-4.0211,-3.9546,-3.8514,-3.7361,-3.6565,-3.5829,-3.506,-3.4152,-3.3485,-3.3065,-3.2359,-3.1749,-3.1494,-3.0758,-3.0536,-3.0748,-3.137,-3.1956,-3.2562,-3.2707,-3.3264,-3.4007,-3.5023,-3.6957,-3.9863,-4.0894,-4.1623,-4.2142,-4.3318,-4.3953,-4.3953,-4.4749,-4.518,-4.5158,-4.5201,-4.5153,-4.5104,-4.5005,-4.4815,-4.4373,-4.3585,-4.2574,-4.1365,-4.0738,-4.0343,-4.0157,-3.9753,-3.919,-3.8397,-3.8413,-3.8942,-3.9645,-3.9817,-3.9708,-3.9708,-3.9708,-3.9708,-3.9708,-3.9708,-3.9708,-3.9708,-3.9708,-3.9708,-3.9708,-3.9708,-3.9675,-3.9541,-3.9491,-3.9256,-3.8603,-3.8168,-3.7648,-3.7513,-3.738,-3.7395,-3.7567,-3.7945,-3.8432,-3.8913,-3.9201,-3.9713,-4.0148,-4.026,-4.0656,-4.118,-4.1499,-4.1663,-4.2048,-4.1751,-4.1145,-4.058,-3.9732,-3.8802,-3.8945,-3.8776,-3.8492,-3.9085,-3.9589,-4.0464,-5.1093,-5.0937,-5.0411,-4.9986,-4.9531,-4.8579,-4.775,-4.7,-4.6459,-4.6516,-4.6938,-4.6403,-4.5715,-4.4845,-4.3737,-4.2781,-4.1957,-4.0999,-4.0068,-3.9085,-3.862,-3.7791,-3.667,-3.6149,-3.5559,-3.49,-3.4152,-3.357,-3.3235,-3.2899,-3.26,-3.2419,-3.2696,-3.2769,-3.2708,-3.3574,-3.4536,-3.5712,-3.8288,-4.0124,-4.1087,-4.3237,-4.4439,-4.4871,-4.6227,-4.7026,-4.7026,-4.7959,-4.8512,-4.8443,-4.8443,-4.8258,-4.7788,-4.741,-4.6998,-4.6399,-4.5874,-4.5226,-4.4257,-4.2692,-4.1442,-4.082,-4.0977,-4.0721,-4.0004,-4.0686,-4.1298,-4.1302,-4.142,-4.1512,-4.1512,-4.153,-4.1547,-4.1565,-4.1547,-4.1512,-4.1547,-4.1547,-4.1547,-4.1547,-4.1565,-4.1249,-4.0879,-4.0703,-4.0303,-3.9571,-3.9239,-3.8854,-3.8462,-3.8357,-3.8695,-3.9211,-3.9768,-4.0204,-4.06,-4.0975,-4.133,-4.1797,-4.2094,-4.2444,-4.2813,-4.3254,-4.3413,-4.3036,-4.2802,-4.2154,-4.0857,-4.017,-3.9926,-3.9658,-3.9657,-3.9758,-4.0215,-4.0898,-4.2026,-5.2427,-5.2304,-5.1998,-5.1639,-5.117,-5.0437,-4.9638,-4.8881,-4.8963,-4.9098,-4.9071,-4.8249,-4.7389,-4.6655,-4.5517,-4.4562,-4.3844,-4.2828,-4.1858,-4.0999,-4.0442,-3.9567,-3.8471,-3.7939,-3.7382,-3.667,-3.6018,-3.5343,-3.4815,-3.4569,-3.4237,-3.3826,-3.3958,-3.4134,-3.432,-3.5085,-3.5936,-3.7014,-3.9766,-4.1963,-4.3461,-4.5394,-4.6787,-4.775,-4.9085,-4.9904,-5.0242,-5.1066,-5.1573,-5.1796,-5.1796,-5.1399,-5.0598,-5.0377,-4.9731,-4.8594,-4.7952,-4.7262,-4.6314,-4.4923,-4.3743,-4.2827,-4.2414,-4.2163,-4.1995,-4.2882,-4.3129,-4.2595,-4.2473,-4.2647,-4.2864,-4.2901,-4.3066,-4.3396,-4.3102,-4.2919,-4.2882,-4.2523,-4.2267,-4.2267,-4.2267,-4.2102,-4.1709,-4.1672,-4.1279,-4.0565,-4.0382,-4.0071,-3.9399,-3.9891,-4.0643,-4.1223,-4.1682,-4.2054,-4.2518,-4.2887,-4.3181,-4.3421,-4.362,-4.3912,-4.4276,-4.4638,-4.4593,-4.4105,-4.3757,-4.3002,-4.1723,-4.1094,-4.0807,-4.0574,-4.0796,-4.1105,-4.1497,-4.2048,-4.3138,-5.3777,-5.3511,-5.3511,-5.3206,-5.2593,-5.2297,-5.1611,-5.0885,-5.1583,-5.1429,-5.057,-4.9665,-4.8989,-4.8386,-4.7138,-4.6288,-4.5682,-4.4659,-4.3713,-4.2851,-4.2246,-4.1391,-4.0361,-3.9714,-3.9085,-3.8344,-3.7768,-3.7039,-3.6305,-3.5998,-3.571,-3.5315,-3.5269,-3.5613,-3.6263,-3.664,-3.7329,-3.8396,-4.0564,-4.3054,-4.5772,-4.7273,-4.8787,-5.0188,-5.1483,-5.2448,-5.2866,-5.3452,-5.4045,-5.4348,-5.4348,-5.3908,-5.2994,-5.2815,-5.2028,-5.0411,-4.9586,-4.8733,-4.7524,-4.6766,-4.5931,-4.4918,-4.396,-4.3644,-4.4356,-4.4724,-4.4549,-4.3862,-4.3563,-4.3513,-4.3924,-4.3914,-4.4162,-4.4736,-4.4315,-4.3914,-4.3875,-4.322,-4.2839,-4.2858,-4.2724,-4.2762,-4.259,-4.2533,-4.2247,-4.1541,-4.1311,-4.114,-4.085,-4.1702,-4.2739,-4.3181,-4.362,-4.4058,-4.4348,-4.4783,-4.4999,-4.4999,-4.4999,-4.5215,-4.5596,-4.5779,-4.5607,-4.5137,-4.4475,-4.3734,-4.2811,-4.202,-4.1717,-4.1788,-4.2087,-4.2451,-4.2679,-4.3282,-4.4176,-5.4914,-5.4849,-5.4646,-5.4473,-5.4329,-5.3484,-5.3091,-5.2942,0.0,0.0,0.0,-5.109,-5.0331,-4.9585,-4.8634,-4.7724,-4.6882,-4.5938,-4.5059,-4.4152,-4.3737,-4.2935,-4.1842,-4.1329,-4.065,-3.9736,-3.94,-3.8705,-3.7724,-3.766,-3.7337,-3.682,-3.6735,-3.6834,-3.6954,-3.7195,-3.8421,-4.0464,-4.2452,-4.4127,-4.5567,-4.8568,-5.03,-5.0594,-5.2597,-5.3503,-5.3061,-5.3651,-5.4057,-5.4115,-5.4084,-5.3768,-5.3067,-5.2831,-5.2059,-5.0753,-4.9989,-4.9091,-4.781,-4.6529,-4.5752,-4.5659,-4.5485,-4.5549,-4.5971,-4.5846,-4.5476,-4.5022,-4.5029,-4.5046,-4.5148,-4.4951,-4.4752,-4.4911,-4.4792,-4.4713,-4.4693,-4.4534,-4.4375,-4.4474,-4.4395,-4.4216,-4.3403,-4.3381,-4.3063,-4.2403,-4.2264,-4.2085,-4.2188,-4.3307,-4.4493,-4.4834,-4.5409,-4.5954,-4.6097,-4.6381,-4.6594,-4.6594,-4.6594,-4.6736,-4.6978,-4.6766,-4.6227,-4.5582,-4.494,-4.416,-4.3273,-4.2902,-4.2846,-4.2884,-4.3258,-4.3653,-4.3773,-4.4801,-4.6045,-5.5865,0.0,-5.5773,-5.5604,0.0,-5.489,-5.4954,-5.5437,-5.5218,-5.4432,-5.3317,-5.2399,-5.1611,-5.0885,-5.0067,-4.9179,-4.8281,-4.7445,-4.6649,-4.588,-4.5268,-4.433,-4.3378,-4.2837,-4.2087,-4.1167,-4.0774,-4.0068,-3.9127,-3.9064,-3.8705,-3.8067,-3.796,-3.796,-3.8131,-3.8238,-3.9546,-4.1957,-4.356,-4.5316,-4.7151,-4.9342,-5.1042,-5.2391,-5.4541,0.0,0.0,0.0,0.0,0.0,0.0,0.0,0.0,0.0,0.0,-5.2143,-5.1178,-5.0219,-4.9063,-4.7625,-4.6788,-4.6837,-4.6885,-4.7266,-4.7979,-4.7368,-4.6659,-4.5975,-4.5793,-4.5735,-4.6066,-4.5747,-4.5683,-4.6116,-4.5786,-4.5517,-4.5455,-4.5084,-4.4816,-4.4795,-4.4795,-4.465,-4.4196,-4.4134,-4.3928,-4.363,-4.3547,-4.3547,-4.3693,-4.505,-4.6266,-4.6599,-4.7163,-4.7607,-4.7817,-4.7979,-4.8118,-4.8118,-4.8118,-4.7982,-4.7662,-4.7428,-4.6905,-4.5656,-4.5347,-4.4947,-4.4081,-4.3939,-4.4058,-4.4058,-4.4389,-4.4835,-4.574,-4.6624,-4.7522,-5.6831,-5.6831,-5.6831,-5.6711,-5.6501,-5.6397,-5.68,-5.746,-5.6487,-5.5574,-5.4682,-5.3621,-5.2808,-5.2123,-5.1353,-5.0542,-4.9691,-4.8908,-4.8194,-4.7556,-4.6624,-4.5732,-4.4859,-4.4236,-4.3438,-4.2512,-4.2087,-4.1413,-4.0424,-4.0383,-3.9965,-3.94,-3.919,-3.9127,-3.9274,0.0,0.0,0.0,-4.4517,-4.6477,-4.8759,-5.0022,-5.1687,-5.3868,-5.6314,0.0,-5.8989,-5.9484,-5.995,-6.044,-5.9007,0.0,0.0,0.0,0.0,0.0,0.0,0.0,0.0,0.0,0.0,0.0,-4.8145,-4.8529,-4.911,-4.8578,-4.7754,-4.6847,-4.6532,-4.6546,-4.6876,-4.6574,-4.6601,-4.7276,-4.6698,-4.6249,-4.6206,-4.5637,-4.5143,-4.5143,-4.5165,-4.5165,-4.5186,-4.5143,-4.5165,-4.5143,-4.5143,-4.5266,-4.5746,-4.7163,-4.8189,-4.8489,-4.8511,-4.8713,-4.898,-4.8886,-4.8745,-4.8957,-4.8957,-4.8603,-4.7874,-4.783,-4.7235,-4.5941,-4.5749,-4.5737,-4.5054,-4.5059,-4.521,-4.5243,-4.5558,-4.625,-4.7556,-4.8194,-4.8579,-5.7774,-5.7743,-5.7774,-5.7731,-5.7774,-5.8147,-5.8263,-5.8136,-5.746,-5.668,-5.5866,-5.4777,-5.3845,-5.3036,-5.2399,-5.163,-5.0882,-5.0093,-4.9369,-4.8689,-4.7835,-4.6913,-4.6035,-4.55,-4.4683,-4.3713,-4.3222,-4.2619,-4.1904,-4.1575,-4.1083,-4.0424,-4.0383,-4.028,-4.0155,-4.1452,-4.2549,-4.3498,-4.5567,-4.7384,-4.8902,-5.1262,-5.2847,-5.3597,-5.689,-5.8738,-5.8718,-5.8926,-5.9174,-5.9389,-5.806,-5.7139,-5.6808,-5.5392,-5.4156,0.0,-5.1329,0.0,0.0,0.0,0.0,0.0,0.0,0.0,0.0,-4.8453,-4.8562,-4.7886,-4.8028,-4.8188,-4.7883,-4.7554,-4.7291,-4.7162,-4.7025,-4.6936,-4.6914,-4.6825,-4.6736,-4.6736,-4.6758,-4.6736,-4.6714,-4.6758,-4.6736,-4.6714,-4.6718,-4.7356,-4.9109,-4.9652,-4.9968,-5.0473,-4.9729,-4.8972,-4.8507,-4.8281,-4.8329,-4.8281,-4.8353,-4.8072,-4.8014,-4.7623,-4.7099,-4.6768,-4.633,-4.6038,-4.6202,-4.6267,-4.6357,-4.6567,-4.6882,-4.747,-4.8579,-4.9044,-4.9342,-5.866,-5.8692,-5.866,-5.846,-5.8011,-5.731,-5.721,-5.7594,-5.6979,-5.6828,-5.6978,-5.6034,-5.5138,-5.4359,-5.3738,-5.307,-5.2392,-5.1579,-5.0961,-5.0331,-4.9369,-4.8443,-4.7556,-4.6794,-4.5962,-4.5035,-4.4413,-4.3677,-4.2958,-4.2595,-4.2109,-4.1458,-4.1313,-4.1313,-4.1559,-4.2114,-4.3085,-4.4271,-4.597,-4.792,-5.0145,-5.2135,-5.3689,-5.4825,-5.8498,-6.0396,-6.0136,-6.1282,-6.1702,-6.1206,-5.983,-5.8622,-5.7659,-5.6581,-5.4698,0.0,0.0,0.0,0.0,0.0,0.0,0.0,0.0,0.0,0.0,0.0,-4.8928,-4.9266,-4.8693,-4.8198,-4.8043,-4.7515,-4.7117,-4.6917,-4.6917,-4.694,-4.694,-4.694,-4.6874,-4.6763,-4.6696,-4.6903,-4.7341,-4.7569,-4.7913,-4.8466,-4.8288,-4.855,-4.9693,-4.995,-5.0078,-5.0637,-5.0277,-4.9815,-4.9699,-4.9634,-4.9659,-4.9659,-4.9537,-4.9189,-4.8563,-4.8087,-4.7621,-4.7044,-4.6806,-4.6763,-4.7046,-4.7271,-4.7522,-4.7805,-4.8388,-4.9207,-5.0012,-5.0278,-5.0462,-5.954,-5.9443,-5.8955,-5.8399,-5.7696,-5.6392,-5.6193,-5.6782,-5.619,-5.6461,-5.7366,-5.6291,-5.5587,-5.5153,-5.4254,-5.3693,-5.3338,-5.2629,-5.2186,-5.1812,-5.0857,-4.996,-4.9097,-4.8168,-4.7276,-4.6421,-4.5591,-4.4776,-4.3998,-4.3485,-4.2944,-4.2376,-4.181,-4.1796,-4.2271,-4.2571,-4.3438,-4.4817,-4.6358,-4.8388,-5.0829,-5.2963,-5.4753,-5.6319,-5.9944,-6.1893,-6.1962,-6.3508,-6.4084,-6.3422,-6.1731,-6.0195,-5.8989,-5.7361,0.0,0.0,0.0,0.0,0.0,0.0,0.0,0.0,0.0,-4.6417,-4.8963,0.0,-4.8636,0.0,-4.887,-4.8414,-4.8561,-4.8013,0.0,0.0,-4.7125,-4.7028,-4.6725,-4.698,-4.7,-4.6734,-4.6949,-4.7339,-4.7872,-4.8228,-4.8866,-4.9982,-4.9873,-4.9782,-5.0097,-5.0243,-5.0425,-5.0932,-5.0845,-5.0783,-5.0849,-5.0785,-5.044,-5.0518,-5.0375,-4.9998,-4.9092,-4.8765,-4.8392,-4.7651,-4.7586,-4.7809,-4.8168,-4.8441,-4.8825,-4.9423,-5.0199,-5.0909,-5.1429,-5.1555,-5.1765,-6.0172,-5.9982,-5.7994,-5.7116,-5.705,-5.6505,-5.6218,-5.6022,-5.5394,-5.5662,-5.6507,-5.4564,-5.4279,-5.5083,-5.3146,0.0,-5.3101,-5.2519,-5.2504,-5.2871,-5.2095,-5.1353,-5.0544,-4.9611,-4.8745,-4.7998,-4.6743,-4.5855,-4.5268,-4.4034,-4.3342,-4.3018,-4.1871,-4.1261,-4.1444,-4.2846,-4.4007,-4.4744,-4.6981,-4.8798,-5.0251,-5.3767,-5.6364,-5.7947,-6.0677,-6.2674,-6.3654,-6.4225,-6.4727,-6.5173,-6.256,-6.0944,-6.07,0.0,0.0,0.0,0.0,0.0,0.0,0.0,0.0,0.0,0.0,0.0,0.0,0.0,0.0,-4.7842,-4.8743,0.0,-5.0116,-5.0157,0.0,0.0,0.0,-4.7504,-4.6443,-4.7303,-4.7812,-4.7589,0.0,0.0,-4.892,-4.892,-4.9528,-5.1164,-5.1574,-5.1766,-5.2061,-5.1955,-5.2125,-5.2348,-5.1659,-5.1075,-5.1134,-5.0413,-4.9825,-4.977,-4.9475,-4.9528,-4.9421,-4.9367,-4.9314,-4.9153,-4.9208,-4.9342,-4.9746,-4.9718,-5.0305,-5.1569,-5.1925,-5.2133,-5.235,-5.2685,-5.2942,-5.8105,-5.8165,-5.5752,-5.521,-5.5815,-5.3851,-5.3695,-5.4872,-5.434,-5.4675,-5.5509,-5.3426,-5.28,-5.309,-5.1345,0.0,0.0,0.0,-5.3523,-5.3291,-5.331,-5.2821,-5.1863,-5.1038,-4.9763,-4.8111,-4.7069,-4.5781,-4.4132,-4.3185,-4.1971,-4.0481,0.0,0.0,-4.0803,-4.2638,-4.4241,-4.555,-4.8025,-4.9932,-5.1424,-5.3845,-5.6437,-5.9194,-6.2018,-6.3616,-6.3938,-6.5317,-6.5431,-6.4158,-6.216,-6.0149,0.0,0.0,0.0,0.0,0.0,0.0,0.0,0.0,0.0,0.0,0.0,-4.3059,-4.477,0.0,0.0,0.0,-4.7137,-4.7834,-4.926,-4.8427,0.0,0.0,0.0,0.0,0.0,0.0,0.0,-4.7477,-4.7946,-4.8501,-4.9342,-4.9775,-5.0232,-5.0735,-5.0928,-5.1039,-5.1288,0.0,-5.1753,-5.2131,-5.2011,-5.1889,-5.2075,-5.168,-5.1293,-5.1138,-5.101,-5.0882,-5.0882,-5.0777,-5.0672,-5.0672,-5.054,-5.0515,-5.0885,-5.0473,-5.041,-5.0981,-5.1216,-5.1327,-5.1589,-5.2485,-5.3355,-5.432,0.0,0.0,0.0,0.0,-5.0961,-5.093,-5.2376,-5.1814,-5.2217,-5.312,-5.1204,0.0,0.0,0.0,0.0,0.0,0.0,-5.3144,-5.3246,-5.3538,-5.3109,-5.2197,-5.1514,-5.0142,-4.8131,-4.7268,-4.5601,-4.3218,-4.1788,-4.0102,-3.8286,0.0,0.0,0.0,0.0,-4.3733,-4.5864,-4.8349,-5.0653,-5.2564,-5.423,-5.6673,-5.9827,-6.2698,-6.4308,-6.4463,-6.5567,-6.518,-6.3104,-6.1134,0.0,0.0,0.0,0.0,0.0,0.0,0.0,0.0,0.0,0.0,0.0,0.0,0.0,0.0,0.0,0.0,0.0,0.0,0.0,-4.7729,-4.7147,-4.7012,0.0,0.0,0.0,0.0,0.0,0.0,0.0,0.0,0.0,-5.0042,-5.0622,-5.086,0.0,0.0,-5.0989,-5.1329,-5.1583,-5.1965,-5.2442,-5.2743,0.0,-5.3288,-5.3337,-5.3288,-5.3111,-5.2942,-5.2628,-5.2234,-5.1665,-5.1239,-5.1239,-5.1041,-5.109,-5.1567,-5.1237,-5.1015,-5.0998,-5.1085,-5.1259,-5.1536,-5.2372,-5.3287,0.0,0.0,0.0,0.0,0.0,0.0,0.0,0.0,-4.7502,-4.794,0.0,-4.7231,0.0,0.0,0.0,0.0,0.0,-4.9961,0.0,0.0,-5.2439,-5.1866,-5.0985,-5.0571,-4.9654,-4.8341,-4.7308,-4.5405,-4.2755,-3.9839,0.0,0.0,0.0,0.0,0.0,0.0,-4.2228,-4.5306,-4.7781,-5.0451,-5.3328,-5.5301,-5.7328,-5.9513,-6.2415,-6.4463,-6.5543,-6.4615,-6.3582,-6.2597,-5.9414,0.0,0.0,0.0,0.0,0.0,0.0,0.0,0.0,0.0,0.0,0.0,0.0,0.0,0.0,0.0,0.0,0.0,0.0,0.0,0.0,-4.7264,0.0,0.0,0.0,0.0,0.0,0.0,0.0,0.0,0.0,0.0,-5.1186,-5.1186,-5.1375,-5.2121,0.0,0.0,0.0,0.0,-5.3582,-5.4086,-5.4403,-5.4641,-5.4924,-5.4941,-5.4894,-5.4894,0.0,0.0,-5.3055,-5.1609,-5.0645,-5.0557,-5.057,-5.0794,-5.1909,-5.1974,-5.2038,-5.2287,-5.2247,-5.2637,-5.2864,-5.2645,-5.2924,0.0,0.0,0.0,0.0,0.0,0.0,0.0,0.0,0.0,-4.3987,0.0,-4.2509,0.0,0.0,0.0,0.0,0.0,0.0,0.0,0.0,-5.0292,-5.0195,-4.9392,-4.8945,-4.7653,0.0,-4.4941,-4.2168,0.0,0.0,0.0,0.0,0.0,0.0,0.0,0.0,-4.2441,-4.5501,-4.8176,-5.104,-5.4141,-5.6197,-5.8281,-6.0442,-6.2581,-6.4115,-6.5047,-6.3909,-6.23,0.0,0.0,0.0,0.0,0.0,0.0,0.0,0.0,0.0,0.0,0.0,0.0,0.0,0.0,0.0,0.0,0.0,0.0,0.0,0.0,0.0,0.0,0.0,-4.7304,0.0,0.0,0.0,0.0,0.0,0.0,0.0,0.0,0.0,-4.8739,-5.0717,-5.2175,-5.2252,-5.2922,-5.3572,-5.4117,0.0,0.0,0.0,0.0,0.0,0.0,0.0,-5.6194,-5.5084,-5.4975,-5.4529,-5.3097,-5.257,-5.2264,-5.2096,0.0,0.0,-4.884,-4.8459,-4.8495,-4.86,-4.8841,-4.9045,-4.9146,-4.9954,-5.0921,0.0,0.0,0.0,0.0,0.0,0.0,0.0,0.0,0.0,-3.9702,-3.937,0.0,0.0,0.0,0.0,0.0,0.0,0.0,0.0,0.0,0.0,0.0,-4.7701,-4.6797,0.0,0.0,0.0,0.0,0.0,0.0,0.0,0.0,0.0,0.0,0.0,0.0,-4.1844,-4.5845,-4.8356,-5.133,-5.4978,-5.7136,-5.9217,-6.1294,-6.3039,-6.4108,-6.4525,0.0,0.0,0.0,0.0,0.0,0.0,0.0,0.0,0.0,0.0,0.0,0.0,0.0,0.0,0.0,0.0,0.0,0.0,0.0,0.0,0.0,0.0,0.0,0.0,0.0,-4.6393,0.0,0.0,0.0,0.0,0.0,0.0,0.0,0.0,0.0,0.0,0.0,-5.1725,-5.2802,-5.3618,-5.4395,-5.5282,-5.5774,-5.6276,0.0,0.0,0.0,0.0,0.0,0.0,0.0,0.0,0.0,0.0,0.0,0.0,0.0,0.0,-5.0312,-4.7548,-4.7049,-4.7017,-4.708,0.0,0.0,0.0,0.0,0.0,0.0,0.0,0.0,0.0,0.0,0.0,0.0,0.0,0.0,0.0,-3.5003,0.0,0.0,-3.5153,0.0,0.0,0.0,0.0,0.0,0.0,0.0,0.0,0.0,0.0,0.0,0.0,0.0,0.0,0.0,0.0,0.0,0.0,0.0,0.0,0.0,0.0,-4.0476,-4.6394,-4.8284,-5.1437,-5.588,-5.7989,-6.0039,-6.2005,-6.3658,-6.4366,-6.4104,0.0,0.0,0.0,0.0,0.0,0.0,0.0,0.0,0.0,0.0,0.0,0.0,0.0,0.0,0.0,0.0,0.0,0.0,0.0,0.0,0.0,0.0,0.0,0.0,0.0,0.0,-4.5256,-4.5042,-4.4973,0.0,0.0,0.0,0.0,0.0,0.0,0.0,0.0,0.0,0.0,-5.4188,-5.4839,-5.6314,-5.7035,-5.759,-5.8242,-5.8535,-5.8784,-5.9161,-5.8137,-5.7317,0.0,0.0,0.0,0.0,0.0,0.0,0.0,0.0,0.0,0.0,0.0,0.0,0.0,0.0,0.0,0.0,0.0,0.0,0.0,0.0,0.0,0.0,0.0,0.0,0.0,0.0,0.0,0.0,0.0,0.0,0.0,0.0,0.0,0.0,0.0,0.0,0.0,0.0,0.0,0.0,0.0,0.0,0.0,0.0,0.0,0.0,0.0,0.0,0.0,0.0,0.0,0.0,0.0,0.0,-4.0495,-4.6422,-4.8444,-5.1756,-5.6434,-5.8774,-6.0869,-6.2911,-6.3508,-6.3652,0.0,0.0,0.0,0.0,0.0,0.0,0.0,0.0,0.0,0.0,0.0,0.0,0.0,0.0,0.0,0.0,0.0,0.0,0.0,0.0,0.0,0.0,0.0,0.0,0.0,0.0,0.0,0.0,-4.3926,-4.3919,-4.4045,0.0,0.0,0.0,0.0,0.0,0.0,0.0,0.0,0.0,0.0,-5.5462,-5.6184,-5.7463,-5.8526,-5.9185,-5.8588,-5.8177,-5.8529,-5.7512,-5.6344,-5.5324,0.0,0.0,0.0,0.0,0.0,0.0,0.0,0.0,0.0,0.0,0.0,0.0,0.0,0.0,0.0,0.0,0.0,0.0,0.0,0.0,0.0,0.0,0.0,0.0,0.0,0.0,0.0,0.0,0.0,0.0,0.0,0.0,0.0,0.0,0.0,0.0,0.0,0.0,0.0,0.0,0.0,0.0,0.0,0.0,0.0,0.0,0.0,0.0,0.0,0.0,0.0,0.0,0.0,-4.0586,-4.6662,-4.8761,-5.2146,-5.6987,-5.9304,-6.1516,-6.3554,-6.3671,-6.3164,0.0,0.0,0.0,0.0,0.0,0.0,0.0,0.0,0.0,0.0,0.0,0.0,0.0,0.0,0.0,0.0,0.0,0.0,0.0,0.0,0.0,0.0,0.0,0.0,0.0,0.0,0.0,0.0,-4.2831,-4.3184,-4.2753,0.0,0.0,0.0,0.0,0.0,0.0,0.0,0.0,0.0,0.0,-5.4865,-5.5768,-5.6835,0.0,0.0,-5.7831,-5.7499,-5.7859,-5.6881,-5.5787,-5.4887,-5.3495,0.0,0.0,0.0,0.0,0.0,0.0,0.0,0.0,0.0,0.0,0.0,0.0,0.0,0.0,0.0,0.0,0.0,0.0,0.0,0.0,0.0,0.0,0.0,0.0,0.0,0.0,0.0,0.0,0.0,0.0,0.0,0.0,0.0,0.0,0.0,0.0,0.0,0.0,0.0,0.0,0.0,0.0,0.0,0.0,0.0,0.0,0.0,0.0,0.0,0.0,0.0,0.0,-4.0858,-4.6968,-4.9181,-5.2691,-5.762,-5.9846,-6.1902,-6.3949,-6.3906,-6.281,0.0,0.0,0.0,0.0,0.0,0.0,0.0,0.0,0.0,0.0,0.0,0.0,0.0,0.0,0.0,0.0,0.0,0.0,0.0,0.0,0.0,0.0,0.0,0.0,0.0,0.0,0.0,0.0,0.0,0.0,0.0,0.0,0.0,0.0,0.0,0.0,0.0,0.0,0.0,0.0,0.0,-5.3515,-5.5095,-5.5502,-5.5895,0.0,-5.6644,-5.6783,-5.7222,-5.6271,-5.544,-5.537,0.0,0.0,0.0,0.0,0.0,0.0,0.0,0.0,0.0,0.0,0.0,0.0,0.0,0.0,0.0,0.0,0.0,0.0,0.0,0.0,0.0,0.0,0.0,0.0,0.0,0.0,0.0,0.0,0.0,0.0,0.0,0.0,0.0,0.0,0.0,0.0,0.0,0.0,0.0,0.0,0.0,0.0,0.0,0.0,0.0,0.0,0.0,0.0,0.0,0.0,0.0,0.0,0.0,0.0,-4.614,-4.9406,-5.3341,-5.8029,-6.0498,-6.2679,-6.4594,-6.3346,0.0,0.0,0.0,0.0,0.0,0.0,0.0,0.0,0.0,0.0,0.0,0.0,0.0,0.0,0.0,0.0,0.0,0.0,0.0,0.0,0.0,0.0,0.0,0.0,0.0,0.0,0.0,-3.4876,0.0,0.0,0.0,0.0,0.0,0.0,0.0,0.0,0.0,0.0,0.0,0.0,0.0,0.0,-5.3522,-5.4127,-5.5248,-5.6254,0.0,0.0,-5.5811,-5.638,-5.5298,-5.4103,0.0,0.0,0.0,0.0,0.0,0.0,0.0,0.0,0.0,0.0,0.0,0.0,0.0,0.0,0.0,0.0,0.0,0.0,0.0,0.0,0.0,0.0,0.0,0.0,0.0,0.0,0.0,0.0,0.0,0.0,0.0,0.0,0.0,0.0,0.0,0.0,0.0,0.0,0.0,0.0,0.0,0.0,0.0,0.0,0.0,0.0,0.0,0.0,0.0,0.0,0.0,0.0,0.0,0.0,-4.0315,-4.6113,-4.9613,-5.3713,-5.8483,-6.0869,-6.294,-6.4761,-6.3104,-6.1087,0.0,0.0,0.0,0.0,0.0,0.0,0.0,0.0,0.0,0.0,0.0,0.0,0.0,0.0,0.0,0.0,0.0,0.0,0.0,0.0,0.0,0.0,0.0,0.0,0.0,0.0,0.0,0.0,0.0,0.0,0.0,0.0,0.0,0.0,0.0,0.0,0.0,0.0,0.0,0.0,0.0,0.0,-5.2727,-5.3754,0.0,0.0,0.0,-5.4642,-5.5275,0.0,0.0,0.0,0.0,0.0,0.0,0.0,0.0,0.0,0.0,0.0,0.0,0.0,0.0,0.0,0.0,0.0,0.0,0.0,0.0,0.0,0.0,0.0,0.0,0.0,0.0,0.0,0.0,0.0,0.0,0.0,0.0,0.0,0.0,0.0,0.0,0.0,0.0,0.0,0.0,0.0,0.0,0.0,0.0,0.0,0.0,0.0,0.0,0.0,0.0,0.0,0.0,0.0,0.0,0.0,0.0,0.0,-4.6124,-4.9654,-5.3789,-5.8695,-6.0949,-6.2908,-6.4678,-6.3074,-6.0983,0.0,0.0,0.0,0.0,0.0,0.0,0.0,0.0,0.0,0.0,0.0,0.0,0.0,0.0,0.0,0.0,0.0,0.0,0.0,0.0,0.0,0.0,0.0,0.0,0.0,0.0,0.0,0.0,0.0,0.0,0.0,0.0,0.0,0.0,0.0,0.0,0.0,0.0,0.0,0.0,0.0,-5.1218,-5.1218,-5.1785,-5.2264,0.0,0.0,-5.3087,-5.355,-5.2721,0.0,0.0,0.0,0.0,0.0,0.0,0.0,0.0,0.0,0.0,0.0,0.0,0.0,0.0,0.0,0.0,0.0,0.0,0.0,0.0,0.0,0.0,0.0,0.0,0.0,0.0,0.0,0.0,0.0,0.0,0.0,0.0,0.0,0.0,0.0,0.0,0.0,0.0,0.0,0.0,0.0,0.0,0.0,0.0,0.0,0.0,0.0,0.0,0.0,0.0,0.0,0.0,0.0,0.0,0.0,0.0,-4.4136,-4.919,-5.3699,-5.7614,-6.0734,-6.3169,-6.4895,-6.3111,-6.084,0.0,0.0,0.0,0.0,0.0,0.0,0.0,0.0,0.0,0.0,0.0,0.0,0.0,0.0,0.0,0.0,0.0,0.0,0.0,0.0,0.0,0.0,0.0,0.0,0.0,0.0,0.0,0.0,0.0,0.0,0.0,0.0,0.0,0.0,0.0,0.0,0.0,0.0,0.0,0.0,0.0,-5.046,-5.0632,-5.0376,0.0,0.0,0.0,0.0,-5.0156,-5.0149,0.0,0.0,0.0,0.0,0.0,0.0,0.0,0.0,0.0,0.0,0.0,0.0,0.0,0.0,0.0,0.0,0.0,0.0,0.0,0.0,0.0,0.0,0.0,0.0,0.0,0.0,0.0,0.0,0.0,0.0,0.0,0.0,0.0,0.0,0.0,0.0,0.0,0.0,0.0,0.0,0.0,0.0,0.0,0.0,0.0,0.0,0.0,0.0,0.0,0.0,0.0,0.0,0.0,0.0,0.0,0.0,-4.343,-4.9046,-5.3647,-5.7188,-6.0562,-6.2702,-6.3475,-6.2307,-6.0088,0.0,0.0,0.0,0.0,0.0,0.0,0.0,0.0,0.0,0.0,0.0,0.0,0.0,0.0,0.0,0.0,0.0,0.0,0.0,0.0,0.0,0.0,0.0,0.0,0.0,0.0,0.0,0.0,0.0,0.0,0.0,0.0,0.0,0.0,0.0,0.0,0.0,0.0,0.0,0.0,-4.4921,-4.6996,-4.7308,0.0,0.0,0.0,0.0,0.0,0.0,-4.8211,-4.7797,0.0,0.0,0.0,0.0,0.0,0.0,0.0,0.0,0.0,0.0,0.0,0.0,0.0,0.0,0.0,0.0,0.0,0.0,0.0,0.0,0.0,0.0,0.0,0.0,0.0,0.0,0.0,0.0,0.0,0.0,0.0,0.0,0.0,0.0,0.0,0.0,0.0,0.0,0.0,0.0,0.0,0.0,0.0,0.0,0.0,0.0,0.0,0.0,0.0,0.0,0.0,0.0,0.0,0.0,0.0,-4.3032,-4.8634,-5.3182,-5.6634,-6.0138,-6.1835,-6.1626,-6.1217,-5.8836,-5.4173,0.0,0.0,0.0,0.0,0.0,0.0,0.0,0.0,0.0,0.0,0.0,0.0,0.0,0.0,0.0,0.0,0.0,0.0,0.0,0.0,0.0,0.0,0.0,0.0,0.0,0.0,0.0,0.0,0.0,0.0,0.0,0.0,0.0,0.0,0.0,0.0,0.0,0.0,0.0,-4.0937,-4.2844,0.0,0.0,0.0,0.0,0.0,0.0,0.0,0.0,-4.5193,0.0,0.0,0.0,0.0,0.0,0.0,0.0,0.0,0.0,0.0,0.0,0.0,0.0,0.0,0.0,0.0,0.0,0.0,0.0,0.0,0.0,0.0,0.0,0.0,0.0,0.0,0.0,0.0,0.0,0.0,0.0,0.0,0.0,0.0,0.0,0.0,0.0,0.0,0.0,0.0,0.0,0.0,0.0,0.0,0.0,0.0,0.0,0.0,0.0,0.0,0.0,0.0,0.0,0.0,0.0,0.0,-4.7075,-5.1385,-5.4838,-5.8799,-6.0844,-6.0779,-6.048,-5.6998,-5.0172,0.0,0.0,0.0,0.0,0.0,0.0,0.0,0.0,0.0,0.0,0.0,0.0,0.0,0.0,0.0,0.0,0.0,0.0,0.0,0.0,0.0,0.0,0.0,0.0,0.0,0.0,0.0,0.0,0.0,0.0,0.0,0.0,0.0,0.0,0.0,0.0,0.0,0.0,-3.3318,-3.7342,0.0,0.0,0.0,0.0,0.0,0.0,0.0,0.0,-4.2037,0.0,0.0,0.0,0.0,0.0,0.0,0.0,0.0,0.0,0.0,0.0,0.0,0.0,0.0,0.0,0.0,0.0,0.0,0.0,0.0,0.0,0.0,0.0,0.0,0.0,0.0,0.0,0.0,0.0,0.0,0.0,0.0,0.0,0.0,0.0,0.0,0.0,0.0,0.0,0.0,0.0,0.0,0.0,0.0,0.0,0.0,0.0,0.0,0.0,0.0,0.0,0.0,0.0,0.0,0.0,0.0,0.0,0.0,-4.9089,-5.208,-5.5548,-5.72,-5.6921,-5.5536,-5.2126,0.0,0.0,0.0,0.0,0.0,0.0,0.0,0.0,0.0,0.0,0.0,0.0,0.0,0.0,0.0,0.0,0.0,0.0,0.0,0.0,0.0,0.0,0.0,0.0,0.0,0.0,0.0,0.0,0.0,0.0,0.0,0.0,0.0,0.0,0.0,0.0,0.0,0.0,0.0,0.0,0.0,0.0,0.0,0.0,0.0,0.0,0.0,0.0,0.0,0.0,0.0,0.0,0.0,0.0,0.0,0.0,0.0,0.0,0.0,0.0,0.0,0.0,0.0,0.0,0.0,0.0,0.0,0.0,0.0,0.0,0.0,0.0,0.0,0.0,0.0,0.0,0.0,0.0,0.0,0.0,0.0,0.0,0.0,0.0,0.0,0.0,0.0,0.0,0.0,0.0,0.0,0.0,0.0,0.0,0.0,0.0,0.0,0.0,0.0,0.0,0.0,0.0,0.0,0.0,0.0,0.0,0.0,0.0,-4.6594,-4.9493,-5.2313,-5.346,-5.2953,-5.0133,-4.67,0.0,0.0,0.0,0.0,0.0,0.0,0.0,0.0,0.0,0.0,0.0,0.0,0.0,0.0,0.0,0.0,0.0,0.0,0.0,0.0,0.0,0.0,0.0,0.0,0.0,0.0,0.0,0.0,0.0,0.0,0.0,0.0,0.0,0.0,0.0,0.0,0.0,0.0,0.0,0.0,0.0,0.0,0.0,0.0,0.0,0.0,0.0,0.0,-3.2293,0.0,0.0,0.0,0.0,0.0,0.0,0.0,0.0,0.0,0.0,0.0,0.0,0.0,0.0,0.0,0.0,0.0,0.0,0.0,0.0,0.0,0.0,0.0,0.0,0.0,0.0,0.0,0.0,0.0,0.0,0.0,0.0,0.0,0.0,0.0,0.0,0.0,0.0,0.0,0.0,0.0,0.0,0.0,0.0,0.0,0.0,0.0,0.0,0.0,0.0,0.0,0.0,0.0,0.0,0.0,0.0,0.0,0.0,0.0,-4.4173,-4.7667,-5.0184,-5.1252,-5.0614,-4.6015,-4.1957,0.0,0.0,0.0,0.0,0.0,0.0,0.0,0.0,0.0,0.0,0.0,0.0,0.0,0.0,0.0,0.0,0.0,0.0,0.0,0.0,0.0,0.0,0.0,0.0,0.0,0.0,0.0,0.0,0.0,0.0,0.0,0.0,0.0,0.0,0.0,0.0,0.0,0.0,0.0,0.0,0.0,0.0,0.0,0.0,0.0,0.0,0.0,0.0,0.0,0.0,0.0,0.0,0.0,0.0,0.0,0.0,0.0,0.0,0.0,0.0,0.0,0.0,0.0,0.0,0.0,0.0,0.0,0.0,0.0,0.0,0.0,0.0,0.0,0.0,0.0,0.0,0.0,0.0,0.0,0.0,0.0,0.0,0.0,0.0,0.0,0.0,0.0,0.0,0.0,0.0,0.0,0.0,0.0,0.0,0.0,0.0,0.0,0.0,0.0,0.0,0.0,0.0,0.0,0.0,0.0,0.0,0.0,0.0,-4.0188,-4.3128,-4.5142,-4.4747,-4.1882,-3.8697,-3.6093,0.0,0.0,0.0,0.0,0.0,0.0,0.0,0.0,0.0,0.0,0.0,0.0,0.0,0.0,0.0,0.0,0.0,0.0,0.0,0.0,0.0,0.0,0.0,0.0,0.0,0.0,0.0,0.0,0.0,0.0,0.0,0.0,0.0,0.0,0.0,0.0,0.0,0.0,0.0,0.0,0.0,0.0,0.0,0.0,0.0,0.0,0.0,0.0,0.0,0.0,0.0,0.0,0.0,0.0,0.0,0.0,0.0,0.0,0.0,0.0,0.0,0.0,0.0,0.0,0.0,0.0,0.0,0.0,0.0,0.0,0.0,0.0,0.0,0.0,0.0,0.0,0.0,0.0,0.0,0.0,0.0,0.0,0.0,0.0,0.0,0.0,0.0,0.0,0.0,0.0,0.0,0.0,0.0,0.0,0.0,0.0,0.0,0.0,0.0,0.0,0.0,0.0,0.0,0.0,0.0,0.0,0.0,0.0,0.0,-3.8244,-3.8879,-3.7387,-3.3681,-3.2287,-3.0839,0.0,0.0,0.0,0.0,0.0,0.0,0.0,0.0,0.0,0.0,0.0,0.0,0.0,0.0,0.0,0.0,0.0,0.0,0.0,0.0,0.0,0.0,0.0,0.0,0.0,0.0,0.0,0.0,0.0,0.0,0.0,0.0,0.0,0.0,0.0,0.0,0.0,0.0,0.0,0.0,0.0,0.0,0.0,0.0,0.0,0.0,0.0,0.0,0.0,0.0,0.0,0.0,0.0,0.0,0.0,0.0,0.0,0.0,0.0,0.0,0.0,0.0,0.0,0.0,0.0,0.0,0.0,0.0,0.0,0.0,0.0,0.0,0.0,0.0,0.0,0.0,0.0,0.0,0.0,0.0,0.0,0.0,0.0,0.0,0.0,0.0,0.0,0.0,0.0,0.0,0.0,0.0,0.0,0.0,0.0,0.0,0.0,0.0,0.0,0.0,0.0,0.0,0.0,0.0,0.0,0.0,0.0,0.0,0.0,-3.3893,-3.1699,-2.9722,-2.8274,-2.8349,-2.6806,0.0,0.0,0.0,0.0,0.0,0.0,0.0,0.0,0.0,0.0,0.0,0.0,0.0,0.0,0.0,0.0,0.0,0.0,0.0,0.0,0.0,0.0,0.0,0.0,0.0,0.0,0.0,0.0,0.0,0.0,0.0,0.0,0.0,0.0,0.0,0.0,0.0,0.0,0.0,0.0,0.0,0.0,0.0,0.0,0.0,0.0,0.0,0.0,0.0,0.0,0.0,0.0,0.0,0.0,0.0,0.0,0.0,0.0,0.0,0.0,0.0,0.0,0.0,0.0,0.0,0.0,0.0,0.0,0.0,0.0,0.0,0.0,0.0,0.0,0.0,0.0,0.0,0.0,0.0,0.0,0.0,0.0,0.0,0.0,0.0,0.0,0.0,0.0,0.0,0.0,0.0,0.0,0.0,0.0,0.0,0.0,0.0,0.0,0.0,0.0,0.0,0.0,0.0,0.0,0.0,0.0,0.0,0.0,0.0,-2.4385,-2.372,-2.3507,-2.3622,-2.3026,-2.1926,-2.0325,0.0,0.0,0.0,0.0,0.0,0.0,0.0,0.0,0.0,0.0,0.0,0.0,0.0,0.0,0.0,0.0,0.0,0.0,0.0,0.0,0.0,0.0,0.0,0.0,0.0,0.0,0.0,0.0,0.0,0.0,0.0,0.0,0.0,0.0,0.0,0.0,0.0,0.0,0.0,0.0,0.0,0.0,0.0,0.0,0.0,0.0,0.0,0.0,0.0,0.0,0.0,0.0,0.0,0.0,0.0,0.0,0.0,0.0,0.0,0.0,0.0,0.0,0.0,0.0,0.0,0.0,0.0,0.0,0.0,0.0,0.0,0.0,0.0,0.0,0.0,0.0,0.0,0.0,0.0,0.0,0.0,0.0,0.0,0.0,0.0,0.0,0.0,0.0,0.0,0.0,0.0,0.0,0.0,0.0,0.0,0.0,0.0,0.0,0.0,0.0,0.0,0.0,0.0,0.0,0.0,0.0,0.0,0.0,-1.6437,-1.738,-1.8293,-1.9038,-1.8463,-1.7724,0.0,0.0,0.0,0.0,0.0,0.0,0.0,0.0,0.0,0.0,0.0,0.0,0.0,0.0,0.0,0.0,0.0,0.0,0.0,0.0,0.0,0.0,0.0,0.0,0.0,0.0,0.0,0.0,0.0,0.0,0.0,0.0,0.0,0.0,0.0,0.0,0.0,0.0,0.0,0.0,0.0,0.0,0.0,0.0,0.0,0.0,0.0,0.0,0.0,0.0,0.0,0.0,0.0,0.0,0.0,0.0,0.0,0.0,0.0,0.0,0.0,0.0,0.0,0.0,0.0,0.0,0.0,0.0,0.0,0.0,0.0,0.0,0.0,0.0,0.0,0.0,0.0,0.0,0.0,0.0,0.0,0.0,0.0,0.0,0.0,0.0,0.0,0.0,0.0,0.0,0.0,0.0,0.0,0.0,0.0,0.0,0.0,0.0,0.0,0.0,0.0,0.0,0.0,0.0,0.0,0.0,0.0,0.0,-0.527,-1.0836,-1.2942,-1.4088,-1.4431,-1.4994,-1.4394,0.0,0.0,0.0,0.0,0.0,0.0,0.0,0.0,0.0,0.0,0.0,0.0,0.0,0.0,0.0,0.0,0.0,0.0,0.0,0.0,0.0,0.0,0.0,0.0,0.0,0.0,0.0,0.0,0.0,0.0,0.0,0.0,0.0,0.0,0.0,0.0,0.0,0.0,0.0,0.0,0.0,0.0,0.0,0.0,0.0,0.0,0.0,0.0,0.0,0.0,0.0,0.0,0.0,0.0,0.0,0.0,0.0,0.0,0.0,0.0,0.0,0.0,0.0,0.0,0.0,0.0,0.0,0.0,0.0,0.0,0.0,0.0,0.0,0.0,0.0,0.0,0.0,0.0,0.0,0.0,0.0,0.0,0.0,0.0,0.0,0.0,0.0,0.0,0.0,0.0,0.0,0.0,0.0,0.0,0.0,0.0,0.0,0.0,0.0,0.0,0.0,0.0,0.0,0.0,0.0,0.0,0.0,0.0,0.0,-0.2865,0.0,-0.9171,0.0,-1.1029,-1.0861,0.0,0.0,0.0,0.0,0.0,0.0,0.0,0.0,0.0,0.0,0.0,0.0,0.0,0.0,0.0,0.0,0.0,0.0,0.0,0.0,0.0,0.0,0.0,0.0,0.0,0.0,0.0,0.0,0.0,0.0,0.0,0.0,0.0,0.0,0.0,0.0,0.0,0.0,0.0,0.0,0.0,0.0,0.0,0.0,0.0,0.0,0.0,0.0,0.0,0.0,0.0,0.0,0.0,0.0,0.0,0.0,0.0,0.0,0.0,0.0,0.0,0.0,0.0,0.0,0.0,0.0,0.0,0.0,0.0,0.0,0.0,0.0,0.0,0.0,0.0,0.0,0.0,0.0,0.0,0.0,0.0,0.0,0.0,0.0,0.0,0.0,0.0,0.0,0.0,0.0,0.0,0.0,0.0,0.0,0.0,0.0,0.0,0.0,0.0,0.0,0.0,0.0,0.0,0.0,0.0,0.0,0.0,0.0,0.0,0.3811,-0.0101,-0.3557,-0.6358,-0.7204,-0.7487,0.0,0.0,0.0,0.0,0.0,0.0,0.0,0.0,0.0,0.0,0.0,0.0,0.0,0.0,0.0,0.0,0.0,0.0,0.0,0.0,0.0,0.0,0.0,0.0,0.0,0.0,0.0,0.0,0.0,0.0,0.0,0.0,0.0,0.0,0.0,0.0,0.0,0.0,0.0,0.0,0.0,0.0,0.0,0.0,0.0,0.0,0.0,0.0,0.0,0.0,0.0,0.0,0.0,0.0,0.0,0.0,0.0,0.0,0.0,0.0,0.0,0.0,0.0,0.0,0.0,0.0,0.0,0.0,0.0,0.0,0.0,0.0,0.0,0.0,0.0,0.0,0.0,0.0,0.0,0.0,0.0,0.0,0.0,0.0,0.0,0.0,0.0,0.0,0.0,0.0,0.0,0.0,0.0,0.0,0.0,0.0,0.0,0.0,0.0,0.0,0.0,0.0,0.0,0.0,0.0,0.0,0.0,0.0,0.0,0.0,0.6098,0.2444,-0.1748,-0.3472,-0.4329,0.0,0.0,0.0,0.0,0.0,0.0,0.0,0.0,0.0,0.0,0.0,0.0,0.0,0.0,0.0,0.0,0.0,0.0,0.0,0.0,0.0,0.0,0.0,0.0,0.0,0.0,0.0,0.0,0.0,0.0,0.0,0.0,0.0,0.0,0.0,0.0,0.0,0.0,0.0,0.0,0.0,0.0,0.0,0.0,0.0,0.0,0.0,0.0,0.0,0.0,0.0,0.0,0.0,0.0,0.0,0.0,0.0,0.0,0.0,0.0,0.0,0.0,0.0,0.0,0.0,0.0,0.0,0.0,0.0,0.0,0.0,0.0,0.0,0.0,0.0,0.0,0.0,0.0,0.0,0.0,0.0,0.0,0.0,0.0,0.0,0.0,0.0,0.0,0.0,0.0,0.0,0.0,0.0,0.0,0.0,0.0,0.0,0.0,0.0,0.0,0.0,0.0,0.0,0.0,0.0,0.0,0.0,0.0,0.0,0.0,1.0456,0.7402,0.4202,0.0854,-0.1246,-0.1826,0.0,0.0,0.0,0.0,0.0,0.0,0.0,0.0,0.0,0.0,0.0,0.0,0.0,0.0,0.0,0.0,0.0,0.0,0.0,0.0,0.0,0.0,0.0,0.0,0.0,0.0,0.0,0.0,0.0,0.0,0.0,0.0,0.0,0.0,0.0,0.0,0.0,0.0,0.0,0.0,0.0,0.0,0.0,0.0,0.0,0.0,0.0,0.0,0.0,0.0,0.0,0.0,0.0,0.0,0.0,0.0,0.0,0.0,0.0,0.0,0.0,0.0,0.0,0.0,0.0,0.0,0.0,0.0,0.0,0.0,0.0,0.0,0.0,0.0,0.0,0.0,0.0,0.0,0.0,0.0,0.0,0.0,0.0,0.0,0.0,0.0,0.0,0.0,0.0,0.0,0.0,0.0,0.0,0.0,0.0,0.0,0.0,0.0,0.0,0.0,0.0,0.0,0.0,0.0,0.0,0.0,0.0,0.0,0.0,0.0,1.1706,0.8871,0.5499,0.2808,0.0,0.0,0.0,0.0,0.0,0.0,0.0,0.0,0.0,0.0,0.0,0.0,0.0,0.0,0.0,0.0,0.0,0.0,0.0,0.0,0.0,0.0,0.0,0.0,0.0,0.0,0.0,0.0,0.0,0.0,0.0,0.0,0.0,0.0,0.0,0.0,0.0,0.0,0.0,0.0,0.0,0.0,0.0,0.0,0.0,0.0,0.0,0.0,0.0,0.0,0.0,0.0,0.0,0.0,0.0,0.0,0.0,0.0,0.0,0.0,0.0,0.0,0.0,0.0,0.0,0.0,0.0,0.0,0.0,0.0,0.0,0.0,0.0,0.0,0.0,0.0,0.0,0.0,0.0,0.0,0.0,0.0,0.0,0.0,0.0,0.0,0.0,0.0,0.0,0.0,0.0,0.0,0.0,0.0,0.0,0.0,0.0,0.0,0.0,0.0,0.0,0.0,0.0,0.0,0.0,0.0,0.0,0.0,0.0,0.0,0.0,1.545,1.2458,1.0151,0.0,0.3871,0.0,0.0,0.0,0.0,0.0,0.0,0.0,0.0,0.0,0.0,0.0,0.0,0.0,0.0,0.0,0.0,0.0,0.0,0.0,0.0,0.0,0.0,0.0,0.0,0.0,0.0,0.0,0.0,0.0,0.0,0.0,0.0,0.0,0.0,0.0,0.0,0.0,0.0,0.0,0.0,0.0,0.0,0.0,0.0,0.0,0.0,0.0,0.0,0.0,0.0,0.0,0.0,0.0,0.0,0.0,0.0,0.0,0.0,0.0,0.0,0.0,0.0,0.0,0.0,0.0,0.0,0.0,0.0,0.0,0.0,0.0,0.0,0.0,0.0,0.0,0.0,0.0,0.0,0.0,0.0,0.0,0.0,0.0,0.0,0.0,0.0,0.0,0.0,0.0,0.0,0.0,0.0,0.0,0.0,0.0,0.0,0.0,0.0,0.0,0.0,0.0,0.0,0.0,0.0,0.0,0.0,0.0,0.0,0.0,0.0,0.0,0.0,1.3299,1.0725,0.7443,0.0,0.0,0.0,0.0,0.0,0.0,0.0,0.0,0.0,0.0,0.0,0.0,0.0,0.0,0.0,0.0,0.0,0.0,0.0,0.0,0.0,0.0,0.0,0.0,0.0,0.0,0.0,0.0,0.0,0.0,0.0,0.0,0.0,0.0,0.0,0.0,0.0,0.0,0.0,0.0,0.0,0.0,0.0,0.0,0.0,0.0,0.0,0.0,0.0,0.0,0.0,0.0,0.0,0.0,0.0,0.0,0.0,0.0,0.0,0.0,0.0,0.0,0.0,0.0,0.0,0.0,0.0,0.0,0.0,0.0,0.0,0.0,0.0,0.0,0.0,0.0,0.0,0.0,0.0,0.0,0.0,0.0,0.0,0.0,0.0,0.0,0.0,0.0,0.0,0.0,0.0,0.0,0.0,0.0,0.0,0.0,0.0,0.0,0.0,0.0,0.0,0.0,0.0,0.0,0.0,0.0,0.0,0.0,0.0,0.0,2.0881,1.7355,1.5668,1.3316,1.0094,0.0,0.0,0.0,0.0,0.0,0.0,0.0,0.0,0.0,0.0,0.0,0.0,0.0,0.0,0.0,0.0,0.0,0.0,0.0,0.0,0.0,0.0,0.0,0.0,0.0,0.0,0.0,0.0,0.0,0.0,0.0,0.0,0.0,0.0,0.0,0.0,0.0,0.0,0.0,0.0,0.0,0.0,0.0,0.0,0.0,0.0,0.0,0.0,0.0,0.0,0.0,0.0,0.0,0.0,0.0,0.0,0.0,0.0,0.0,0.0,0.0,0.0,0.0,0.0,0.0,0.0,0.0,0.0,0.0,0.0,0.0,0.0,0.0,0.0,0.0,0.0,0.0,0.0,0.0,0.0,0.0,0.0,0.0,0.0,0.0,0.0,0.0,0.0,0.0,0.0,0.0,0.0,0.0,0.0,0.0,0.0,0.0,0.0,0.0,0.0,0.0,0.0,0.0,0.0,0.0,0.0,0.0,0.0,0.0,0.0,0.0,0.0,0.0,0.0,1.2146,0.0,0.0,0.0,0.0,0.0,0.0,0.0,0.0,0.0,0.0,0.0,0.0,0.0,0.0,0.0,0.0,0.0,0.0,0.0,0.0,0.0,0.0,0.0,0.0,0.0,0.0,0.0,0.0,0.0,0.0,0.0,0.0,0.0,0.0,0.0,0.0,0.0,0.0,0.0,0.0,0.0,0.0,0.0,0.0,0.0,0.0,0.0,0.0,0.0,0.0,0.0,0.0,0.0,0.0,0.0,0.0,0.0,0.0,0.0,0.0,0.0,0.0,0.0,0.0,0.0,0.0,0.0,0.0,0.0,0.0,0.0,0.0,0.0,0.0,0.0,0.0,0.0,0.0,0.0,0.0,0.0,0.0,0.0,0.0,0.0,0.0,0.0,0.0,0.0,0.0,0.0,0.0,0.0,0.0,0.0,0.0,0.0,0.0,0.0,0.0,0.0,0.0,0.0,0.0,0.0,0.0,0.0,0.0,0.0,0.0,0.0,0.0,0.0,0.0,0.0,0.0,0.0,0.0,0.0,0.0,0.0,0.0,0.0,0.0,0.0,0.0,0.0,0.0,0.0,0.0,0.0,0.0,0.0,0.0,0.0,0.0,0.0,0.0,0.0,0.0,0.0,0.0,0.0,0.0,0.0,0.0,0.0,0.0,0.0,0.0,0.0,0.0,0.0,0.0,0.0,0.0,0.0,0.0,0.0,0.0,0.0,0.0,0.0,0.0,0.0,0.0,0.0,0.0,0.0,0.0,0.0,0.0,0.0,0.0,0.0,0.0,0.0,0.0,0.0,0.0,0.0,0.0,0.0,0.0,0.0,0.0,0.0,0.0,0.0,0.0,0.0,0.0,0.0,0.0,0.0,0.0,0.0,0.0,0.0,0.0,0.0,0.0,0.0,0.0,0.0,0.0,0.0,0.0,0.0,0.0,0.0,0.0,0.0,0.0,0.0,0.0,0.0,0.0,0.0,0.0,0.0,0.0,0.0,0.0,0.0,0.0,0.0,0.0,0.0,0.0,0.0,0.0,0.0,0.0,0.0,0.0,0.0,0.0,0.0,0.0,0.0,0.0,0.0,0.0,0.0,0.0,0.0,0.0,0.0,0.0,0.0,0.0,0.0,0.0,0.0,0.0,0.0,0.0,0.0,0.0,0.0,0.0,0.0,0.0,0.0,0.0,0.0,0.0,0.0,0.0,0.0,0.0,0.0,0.0,0.0,0.0,0.0,0.0,0.0,0.0,0.0,0.0,0.0,0.0,0.0,0.0,0.0,0.0,0.0,0.0,0.0,0.0,0.0,0.0,0.0,0.0,0.0,0.0,0.0,0.0,0.0,0.0,0.0,0.0,0.0,0.0,0.0,0.0,0.0,0.0,0.0,0.0,0.0,0.0,0.0,0.0,0.0,0.0,0.0,0.0,0.0,0.0,0.0,0.0,0.0,0.0,0.0,0.0,0.0,0.0,0.0,0.0,0.0,0.0,0.0,0.0,0.0,0.0,0.0,0.0,0.0,0.0,0.0,0.0,0.0,0.0,0.0,0.0,0.0,0.0,0.0,0.0,0.0,0.0,0.0,0.0,0.0,0.0,0.0,0.0,0.0,0.0,0.0,0.0,0.0,0.0,0.0,0.0,0.0,0.0,0.0,0.0,0.0,0.0,0.0,0.0,0.0,0.0,0.0,0.0,0.0,0.0,0.0,0.0,0.0,0.0,0.0,0.0,0.0,0.0,0.0,0.0,0.0,0.0,0.0,0.0,0.0,0.0,0.0,0.0,0.0,0.0,0.0,0.0,0.0,0.0,0.0,0.0,0.0,0.0,0.0,0.0,0.0,0.0,0.0,0.0,0.0,0.0,0.0,0.0,0.0,0.0,0.0,0.0,0.0,0.0,0.0,0.0,0.0,0.0,0.0,0.0,0.0,0.0,0.0,0.0,0.0,0.0,0.0,0.0,0.0,0.0,0.0,0.0,0.0,0.0,0.0,0.0,0.0,0.0,0.0,0.0,0.0,0.0,0.0,0.0,0.0,0.0,0.0,0.0,0.0,0.0,0.0,0.0,0.0,0.0,0.0,0.0,0.0,0.0,0.0,0.0,0.0,0.0,0.0,0.0,0.0,0.0,0.0,0.0,0.0,0.0,0.0,0.0,0.0,0.0,0.0,0.0,0.0,0.0,0.0,0.0,0.0,0.0,0.0,0.0,0.0,0.0,0.0,0.0,0.0,0.0,0.0,0.0,0.0,0.0,0.0,0.0,0.0,0.0,0.0,0.0,0.0,0.0,0.0,0.0,0.0,0.0,0.0,0.0,0.0,0.0,0.0,0.0,0.0,0.0,0.0,0.0,0.0,0.0,0.0,0.0,0.0,0.0,0.0,0.0,0.0,0.0,0.0,0.0,0.0,0.0,0.0,0.0,0.0,0.0,0.0,0.0,0.0,0.0,0.0,0.0,0.0,0.0,0.0,0.0,0.0,0.0,0.0,0.0,0.0,0.0,0.0,0.0,0.0,0.0,0.0,0.0,0.0,0.0,0.0,0.0,0.0,0.0,0.0,0.0,0.0,0.0,0.0,0.0,0.0,0.0,0.0,0.0,0.0,0.0,0.0,0.0,0.0,0.0,0.0,0.0,0.0,0.0,0.0,0.0,0.0,0.0,0.0,0.0,0.0,0.0,0.0,0.0,0.0,0.0,0.0,0.0,0.0,0.0,0.0,0.0,0.0,0.0,0.0,0.0,0.0,0.0,0.0,0.0,0.0,0.0,0.0,0.0,0.0,0.0,0.0,0.0,0.0,0.0,0.0,0.0,0.0,0.0,0.0,0.0,0.0,0.0,0.0,0.0,0.0,0.0,0.0,0.0,0.0,0.0,0.0,0.0,0.0,0.0,0.0,0.0,0.0,0.0,0.0,0.0,0.0,0.0,0.0,0.0,0.0,0.0,0.0,0.0,0.0,0.0,0.0,0.0,0.0,0.0,0.0,0.0,0.0,0.0,0.0,0.0,0.0,0.0,0.0,0.0,0.0,0.0,0.0,0.0,0.0,0.0,0.0,0.0,0.0,0.0,0.0,0.0,0.0,0.0,0.0,0.0,0.0,0.0,0.0,0.0,0.0,0.0,0.0,0.0,0.0,0.0,0.0,0.0,0.0,0.0,0.0,0.0,0.0,0.0,0.0,0.0,0.0,0.0,0.0,0.0,0.0,0.0,0.0,0.0,0.0,0.0,0.0,0.0,0.0,0.0,0.0,0.0,0.0,0.0,0.0,0.0,0.0,0.0,0.0,0.0,0.0,0.0,0.0,0.0,0.0,0.0,0.0,0.0,0.0,0.0,0.0,0.0,0.0,0.0,0.0,0.0,0.0,0.0,0.0,0.0,0.0,0.0,0.0,0.0,0.0,0.0,0.0,0.0,0.0,0.0,0.0,0.0,0.0,0.0,0.0,0.0,0.0,0.0,0.0,0.0,0.0,0.0,0.0,0.0,0.0,0.0,0.0,0.0,0.0,0.0,0.0,0.0,0.0,0.0,0.0,0.0,0.0,0.0,0.0,0.0,0.0,0.0,0.0,0.0,0.0,0.0,0.0,0.0,0.0,0.0,0.0,0.0,0.0,0.0,0.0,0.0,0.0,0.0,0.0,0.0,0.0,0.0,0.0,0.0,0.0,0.0,0.0,0.0,0.0,0.0,0.0,0.0,0.0,0.0,0.0,0.0,0.0,0.0,0.0,0.0,0.0,0.0,0.0,0.0,0.0,0.0,0.0,0.0,0.0,0.0,0.0,0.0,0.0,0.0,0.0,0.0,0.0,0.0,0.0,0.0,0.0,0.0,0.0,0.0,0.0,0.0,0.0,0.0,0.0,0.0,0.0,0.0,0.0,0.0,0.0,0.0,0.0,0.0,0.0,0.0,0.0,0.0,0.0,0.0,0.0,0.0,0.0,0.0,0.0,0.0,0.0,0.0,0.0,0.0,0.0,0.0,0.0,0.0,0.0,0.0,0.0,0.0,0.0,0.0,0.0,0.0,0.0,0.0,0.0,0.0,0.0,0.0,0.0,0.0,0.0,0.0,0.0,0.0,0.0,0.0,0.0,0.0,0.0,0.0,0.0,0.0,0.0,0.0,0.0,0.0,0.0,0.0,0.0,0.0,0.0,0.0,0.0,0.0,0.0,0.0,0.0,0.0,0.0,0.0,0.0,0.0,0.0,0.0,0.0,0.0,0.0,0.0,0.0,0.0,0.0,0.0,0.0,0.0,0.0,0.0,0.0,0.0,0.0,0.0,0.0,0.0,0.0,0.0,0.0,0.0,0.0,0.0,0.0,0.0,0.0,0.0,0.0,0.0,0.0,0.0,0.0,0.0,0.0,0.0,0.0,0.0,0.0,0.0]}],[{"header":{"parameterUnit":"kt","parameterCategory":2,"dx":1,"dy":1,"la1":29.587661999999998,"la2":31.0,"lo1":-88.76705300000003,"lo2":-86.6583820000003,"nx":115,"ny":88,"refTime":"2022-09-24T18:00:00:Z","depth":0,"parameterNumber":2,"parameterNumberName":"V-component_of_WINDS"},"data":[7.604,7.7119,7.738,7.7578,7.7776,7.7809,7.7957,7.8168,7.8168,7.8216,7.8461,7.8683,7.9168,8.0094,8.0227,8.0933,8.2378,8.3295,8.526,8.7266,8.794,8.9049,8.9897,9.0299,9.0598,9.0792,9.0918,9.1143,9.1794,9.29,9.4009,9.5113,9.8051,9.9507,10.0573,10.1891,10.3097,10.388,10.4188,10.4415,10.4639,10.4932,10.5214,10.5318,10.5318,10.5387,10.5387,10.5423,10.5592,10.5824,10.615,10.6337,10.6429,10.649,10.6513,10.6602,10.6698,10.6698,10.6719,10.6777,10.6806,10.6911,10.6939,10.6957,10.7012,10.7093,10.7279,10.7331,10.7472,10.7667,10.7845,10.7937,10.8004,10.8178,10.8319,10.8458,10.8519,10.8632,10.8331,10.8047,10.795,10.7796,10.7717,10.7391,10.7487,10.8233,10.8279,10.8955,10.8984,10.9206,10.9421,10.9503,10.9589,10.9719,10.9816,10.9816,10.9823,10.9791,10.981,10.979,10.9778,10.9768,10.931,10.8878,10.8847,10.8427,10.7848,10.7032,10.6454,10.6026,10.5195,10.4398,10.4053,10.3408,10.238,7.6452,7.6817,7.8024,7.8521,7.8568,7.8568,7.8745,7.8934,7.8967,7.9108,7.94,7.9914,8.0359,8.0743,8.1001,8.1385,8.2,8.2909,8.3724,8.548,8.7292,8.8572,8.9525,9.047,9.0999,9.1252,9.1454,9.1802,9.2151,9.274,9.3763,9.5127,9.667,9.8134,10.0365,10.1784,10.2745,10.373,10.4494,10.4714,10.5038,10.5457,10.5592,10.5792,10.5954,10.615,10.6182,10.6182,10.6187,10.6343,10.6429,10.6602,10.6711,10.6826,10.6883,10.6902,10.6994,10.6994,10.7022,10.7049,10.7103,10.713,10.7066,10.7093,10.7147,10.7331,10.7595,10.7738,10.7877,10.807,10.8178,10.8319,10.836,10.8441,10.8556,10.8689,10.8743,10.8738,10.7884,10.6859,10.6546,10.6079,10.5604,10.4927,10.5408,10.6552,10.7325,10.8148,10.8755,10.8916,10.9017,10.9155,10.9075,10.941,10.9822,10.9871,10.9865,10.973,10.9446,10.965,10.9518,10.8404,10.7701,10.767,10.7021,10.6252,10.5625,10.534,10.521,10.4889,10.3827,10.2723,10.2419,10.1968,10.0897,7.5371,7.7039,7.8521,7.9248,7.9341,7.9387,7.9446,7.9642,7.9642,8.0037,8.069,8.0992,8.1213,8.1431,8.1548,8.1782,8.2212,8.2801,8.3587,8.4542,8.6229,8.7731,8.9061,9.0148,9.0861,9.1784,9.2024,9.2242,9.2614,9.3003,9.3423,9.4445,9.5892,9.7343,9.8755,10.1096,10.2617,10.3556,10.4534,10.4631,10.4331,10.541,10.6055,10.6118,10.6244,10.6368,10.6429,10.652,10.658,10.6698,10.6719,10.6883,10.7066,10.7174,10.7253,10.7305,10.7331,10.7305,10.7305,10.7331,10.7357,10.7433,10.7421,10.7509,10.7509,10.7785,10.807,10.814,10.8265,10.8403,10.8557,10.8614,10.8669,10.8705,10.8814,10.8903,10.8933,10.8584,10.7487,10.6343,10.537,10.4899,10.4234,10.3606,10.4161,10.5305,10.6628,10.7495,10.812,10.8488,10.8577,10.8554,10.8243,10.8446,10.8962,10.9232,10.9266,10.9207,10.8955,10.8775,10.8214,10.7019,10.6076,10.6035,10.5568,10.4451,10.3826,10.3613,10.3477,10.3077,10.2075,10.1191,10.0856,10.0564,10.0238,7.4373,7.6593,7.8454,7.9633,8.0071,8.0105,8.025,8.0369,8.0457,8.0967,8.1624,8.1789,8.1877,8.2004,8.2125,8.2324,8.2598,8.2951,8.3633,8.4449,8.5437,8.7018,8.8496,8.9238,9.0436,9.1501,9.2227,9.2318,9.299,9.3444,9.3783,9.4299,9.5235,9.6672,9.7962,9.9474,10.1274,10.2341,10.32,10.3518,10.3531,10.4716,10.5902,10.5932,10.6602,10.669,10.6777,10.6863,10.6911,10.7049,10.7103,10.72,10.7408,10.7509,10.7583,10.7632,10.7607,10.7632,10.7632,10.7632,10.7656,10.7728,10.7761,10.7868,10.8048,10.8323,10.8538,10.8557,10.8631,10.8758,10.8845,10.8895,10.8944,10.9014,10.9061,10.913,10.9175,10.821,10.7155,10.5879,10.4511,10.3746,10.3093,10.3005,10.3408,10.4223,10.535,10.615,10.658,10.7025,10.6932,10.6998,10.6871,10.7161,10.782,10.8054,10.7634,10.7528,10.7346,10.7163,10.69,10.6037,10.524,10.4851,10.3999,10.288,10.2061,10.1959,10.1555,10.092,10.022,10.039,10.0131,9.9986,9.9839,7.4099,7.4644,7.7396,7.9278,8.065,8.0684,8.0856,8.1213,8.1418,8.1849,8.216,8.2284,8.2368,8.2559,8.2829,8.3019,8.3169,8.3318,8.3782,8.3928,8.5057,8.6155,8.7325,8.8071,8.9484,9.0625,9.1484,9.2237,9.3315,9.4008,9.4338,9.4764,9.5261,9.6044,9.7326,9.8619,9.9608,10.0726,10.1468,10.2147,10.2424,10.3404,10.4567,10.4853,10.5923,10.6983,10.7089,10.7242,10.7331,10.7459,10.7534,10.7607,10.7691,10.7785,10.7937,10.7959,10.7974,10.7959,10.7982,10.7996,10.7982,10.8026,10.8048,10.8156,10.8343,10.8632,10.8758,10.8828,10.8874,10.8992,10.9039,10.9099,10.9129,10.9172,10.9238,10.9303,10.9142,10.8425,10.7042,10.5144,10.3658,10.1957,10.1376,10.1338,10.1636,10.2105,10.2939,10.3687,10.4253,10.4817,10.4962,10.516,10.5195,10.5441,10.6212,10.6635,10.614,10.5724,10.5386,10.52,10.5088,10.4747,10.4323,10.3249,10.2093,10.1083,10.0674,10.0612,10.0389,9.979,9.9763,9.9742,9.9659,9.9583,9.9379,7.403,7.4846,7.6086,7.7424,7.887,7.9718,8.034,8.0812,8.1088,8.1908,8.2756,8.2946,8.3059,8.3279,8.3537,8.3682,8.3825,8.4002,8.4141,8.4353,8.485,8.5738,8.652,8.7445,8.862,8.9939,9.1045,9.1796,9.2834,9.3835,9.4832,9.5102,9.5268,9.5967,9.6808,9.773,9.8409,9.897,9.9684,10.0344,10.1241,10.2307,10.3028,10.3634,10.512,10.5788,10.6122,10.7334,10.7616,10.7845,10.7868,10.7982,10.8156,10.8178,10.8299,10.8398,10.8377,10.836,10.8381,10.834,10.8398,10.8418,10.8438,10.8557,10.8741,10.8749,10.8794,10.8926,10.9024,10.9172,10.9228,10.9269,10.9295,10.9283,10.9359,10.9421,10.8968,10.8477,10.6713,10.4545,10.2726,10.083,9.9942,9.9753,9.9961,10.0755,10.1492,10.2179,10.2757,10.2958,10.2972,10.3339,10.351,10.3675,10.4706,10.5392,10.5089,10.4747,10.4064,10.338,10.3225,10.2877,10.2264,10.1301,10.0372,10.0304,10.0271,9.9934,9.9834,9.9763,9.9735,9.9462,9.919,9.8849,9.8243,7.416,7.4997,7.5414,7.6212,7.7252,7.8333,7.9288,8.004,8.0363,8.1315,8.2794,8.2975,8.3365,8.4072,8.421,8.4381,8.455,8.4716,8.4814,8.4883,8.5026,8.5635,8.6103,8.6566,8.7531,8.8817,9.003,9.085,9.1917,9.3593,9.458,9.5354,9.5654,9.5903,9.6589,9.7455,9.7524,9.7873,9.8559,9.9091,9.9876,10.1121,10.1772,10.251,10.3814,10.4589,10.5193,10.6325,10.7084,10.7617,10.7958,10.8299,10.8499,10.8519,10.8557,10.8651,10.8688,10.8725,10.878,10.8762,10.8725,10.8743,10.8816,10.9003,10.8926,10.8775,10.8578,10.8635,10.8727,10.9019,10.9194,10.9332,10.9468,10.9102,10.8622,10.8482,10.8029,10.7197,10.5496,10.3589,10.2523,10.0822,9.9899,9.9643,9.9734,10.0037,10.0477,10.1097,10.1463,10.1041,10.1038,10.1582,10.1781,10.1899,10.2848,10.353,10.3601,10.3556,10.2497,10.1662,10.1654,10.1306,10.035,9.9993,10.0076,10.0005,9.9897,9.9841,9.9777,9.9742,9.9341,9.9,9.847,9.7334,9.6539,7.4466,7.4646,7.5857,7.6286,7.6324,7.6904,7.7817,7.8916,7.9225,8.0348,8.1902,8.2244,8.3155,8.4427,8.484,8.5036,8.5262,8.5416,8.5478,8.5472,8.5472,8.5544,8.5761,8.5905,8.6772,8.7664,8.8629,8.9849,9.0748,9.2489,9.4263,9.535,9.5842,9.6064,9.6412,9.7088,9.7462,9.7634,9.8119,9.8374,9.883,9.9979,10.0641,10.1337,10.2368,10.325,10.3963,10.4994,10.5801,10.6627,10.7601,10.8239,10.8614,10.8669,10.8668,10.8721,10.8828,10.8895,10.8966,10.8933,10.8949,10.9077,10.916,10.9137,10.8809,10.7972,10.7823,10.7911,10.7608,10.8271,10.8742,10.8828,10.8925,10.8643,10.7962,10.7376,10.695,10.5712,10.4009,10.2921,10.1851,10.0984,9.9977,9.9746,9.9834,10.0036,10.0179,10.0632,10.0527,9.999,10.0185,10.0646,10.0571,10.0452,10.0486,10.1089,10.1346,10.1792,10.077,10.0647,10.0303,10.0065,9.9903,9.9882,9.9886,9.9864,9.9803,9.9746,9.9605,9.9136,9.8652,9.8122,9.6789,9.5653,9.4805,7.5252,7.5115,7.5553,7.5613,7.555,7.6009,7.6324,7.6785,7.7942,7.9383,8.0938,8.2338,8.3277,8.404,8.4985,8.5705,8.5852,8.6031,8.6125,8.6125,8.6153,8.6125,8.6125,8.627,8.6597,8.707,8.8,8.8727,8.9498,9.1268,9.2909,9.4441,9.5821,9.5833,9.6043,9.6858,9.7599,9.7913,9.8085,9.8229,9.8594,9.9025,9.9565,10.0123,10.1038,10.2085,10.257,10.3467,10.4627,10.5145,10.6096,10.7203,10.7778,10.8261,10.9067,10.9045,10.9114,10.913,10.916,10.913,10.9224,10.9321,10.9459,10.8954,10.787,10.7114,10.691,10.6355,10.5734,10.6408,10.7223,10.6156,10.6563,10.7412,10.671,10.5879,10.5235,10.403,10.256,10.2188,10.1331,10.0637,9.9908,9.9929,9.9882,9.9903,9.9885,9.995,10.0001,9.9926,10.0039,10.015,10.0105,10.0136,10.0051,9.9891,9.9917,9.9906,10.0004,10.0172,9.9906,9.9878,9.9901,9.9919,9.9902,9.9847,9.9746,9.9309,9.8719,9.8243,9.7538,9.6281,9.5107,9.4062,9.3083,7.5952,7.5732,7.5712,7.5704,7.5716,7.5997,7.6006,7.6032,7.696,7.8378,8.0006,8.1188,8.2333,8.3706,8.4826,8.5719,8.6318,8.6706,8.6758,8.6758,8.6758,8.6758,8.6758,8.6758,8.6769,8.7035,8.7521,8.8152,8.8281,8.9935,9.1444,9.2542,9.3712,9.4764,9.499,9.6106,9.7654,9.8195,9.8407,9.8538,9.8678,9.8817,9.9026,9.9216,10.0149,10.0728,10.0856,10.2248,10.3016,10.3362,10.4807,10.6064,10.6998,10.7471,10.8555,10.9158,10.9276,10.9327,10.9317,10.9357,10.9446,10.9314,10.9038,10.8103,10.7064,10.6317,10.5466,10.4832,10.4349,10.4745,10.5843,10.5035,10.4909,10.5743,10.5082,10.4206,10.3586,10.2384,10.1598,10.1219,10.0892,10.0186,9.9937,9.9913,9.9904,9.9917,9.9885,9.9887,9.988,9.9915,9.991,9.9902,9.9891,9.9882,9.9906,9.9891,9.9911,9.9906,9.9886,9.9897,9.9853,9.9864,9.9853,9.9809,9.9834,9.979,9.9347,9.8871,9.8054,9.666,9.5189,9.3886,9.2818,9.1885,9.1396,7.6541,7.6378,7.6261,7.649,7.6844,7.6688,7.659,7.6613,7.6672,7.7508,7.8884,7.952,8.1204,8.334,8.4344,8.541,8.6475,8.7074,8.7293,8.7293,8.7269,8.7306,8.7306,8.7282,8.7173,8.7137,8.737,8.7467,8.7183,8.8739,8.9524,9.0508,9.1555,9.2398,9.3063,9.483,9.6687,9.8218,9.8436,9.8645,9.8863,9.9042,9.915,9.928,9.9659,9.9823,10.0012,10.103,10.1533,10.1923,10.328,10.4638,10.5995,10.6539,10.7684,10.8904,10.917,10.9409,10.948,10.9574,10.9427,10.9164,10.7735,10.6789,10.6145,10.4657,10.3023,10.3394,10.2946,10.3119,10.3941,10.4484,10.4332,10.4187,10.3017,10.2167,10.1926,10.1143,10.0779,10.0445,10.0113,9.9897,9.9904,9.9914,9.9887,9.9884,9.9914,9.9904,9.9891,9.9917,9.9906,9.9891,9.992,9.9911,9.9906,9.9881,9.9902,9.9902,9.9891,9.9872,9.9866,9.9815,9.9763,9.9726,9.9636,9.9379,9.8917,9.8349,9.6627,9.4949,9.3267,9.1812,9.0564,8.9819,9.0017,7.7284,7.7044,7.6891,7.7135,7.748,7.7437,7.7306,7.7172,7.7158,7.757,7.8033,7.9253,8.0423,8.1772,8.3528,8.53,8.5927,8.7056,8.7581,8.7787,8.7729,8.776,8.7716,8.7657,8.7613,8.7501,8.7478,8.7492,8.7446,8.7889,8.8784,8.9417,8.9745,9.0521,9.1606,9.3435,9.5271,9.6747,9.7382,9.7748,9.9068,9.9221,9.9357,9.9442,9.945,9.9498,9.9676,9.9941,10.0329,10.082,10.1651,10.2871,10.4092,10.5474,10.6997,10.7942,10.872,10.9525,10.9568,10.9515,10.9142,10.7963,10.6439,10.5037,10.3945,10.2929,10.1672,10.1809,10.1251,10.1257,10.2794,10.239,10.2091,10.282,10.161,10.0972,10.0647,10.0583,10.0172,9.9912,9.9918,9.9885,9.9887,9.9888,9.9918,9.9891,9.9913,9.9895,9.9882,9.9868,9.9886,9.9876,9.9859,9.9897,9.9897,9.9847,9.979,9.9828,9.9808,9.9794,9.9773,9.9788,9.9734,9.9529,9.9247,9.8957,9.8182,9.7134,9.5348,9.3334,9.1878,9.0488,8.9458,8.9406,8.9351,7.6869,7.6672,7.6792,7.6947,7.7208,7.7745,7.7873,7.7776,7.783,7.783,7.7961,7.8788,7.9621,8.0721,8.2805,8.3814,8.4764,8.6461,8.7039,8.743,8.7952,8.8174,8.8153,8.8056,8.7996,8.7909,8.7888,8.7904,8.7824,8.793,8.872,8.9022,8.894,8.9348,9.0254,9.1967,9.3819,9.5317,9.6441,9.7172,9.8487,9.8883,9.9455,9.9534,9.9536,9.9536,9.9545,9.9545,9.9545,9.9838,10.0519,10.1492,10.2551,10.3875,10.516,10.6106,10.7629,10.834,10.8578,10.7938,10.7401,10.6088,10.4865,10.3548,10.2832,10.1665,10.0767,10.0362,10.0031,10.0344,10.1374,10.0658,10.017,10.0745,10.0787,10.0259,10.0035,10.0113,9.9887,9.9888,9.9887,9.9884,9.9882,9.9878,9.9885,9.9873,9.9886,9.9902,9.9821,9.9815,9.9803,9.9828,9.9815,9.9808,9.9808,9.9763,9.9719,9.9735,9.9758,9.9689,9.9617,9.9591,9.9346,9.9243,9.8997,9.8145,9.717,9.5985,9.4146,9.1814,9.0207,8.9291,8.9282,8.9271,8.9222,7.5543,7.5398,7.587,7.6049,7.6146,7.7593,7.8163,7.7944,7.825,7.8365,7.8311,7.8427,7.9247,8.0361,8.1135,8.2116,8.3347,8.518,8.5828,8.6497,8.7394,8.7772,8.8002,8.7949,8.8082,8.8231,8.8268,8.8209,8.815,8.8192,8.838,8.8612,8.8749,8.8808,8.9494,9.0663,9.222,9.3464,9.5105,9.6164,9.7095,9.8203,9.9063,9.9224,9.946,9.9564,9.9526,9.9591,9.96,9.96,9.9912,10.0441,10.1434,10.2485,10.3393,10.4529,10.6043,10.6664,10.6607,10.5842,10.4968,10.4316,10.3473,10.2542,10.1789,10.0625,10.0102,9.995,9.9917,10.0074,10.0038,9.9887,9.9926,10.0305,10.0267,9.9885,9.9883,9.988,9.9876,9.991,9.9902,9.9894,9.9888,9.9861,9.9843,9.9784,9.9787,9.9742,9.9704,9.9704,9.9728,9.9728,9.9712,9.9712,9.9712,9.9667,9.9651,9.9634,9.9664,9.9591,9.9384,9.91,9.8816,9.8473,9.7501,9.6973,9.6158,9.3917,9.1794,8.9949,8.9132,8.9132,8.9106,8.9038,8.8981,7.3846,7.2981,7.4206,7.4726,7.4896,7.6336,7.7035,7.7042,7.8148,7.8732,7.8755,7.8778,7.895,7.9579,8.0686,8.1366,8.2078,8.3814,8.448,8.4719,8.5207,8.6042,8.6643,8.6994,8.7418,8.8537,8.8316,8.8318,8.8408,8.8579,8.8624,8.8915,8.8958,8.9038,8.9256,8.9799,9.0286,9.1212,9.2729,9.4081,9.5345,9.6901,9.7652,9.825,9.9037,9.9815,9.9815,9.977,9.977,9.977,9.977,9.9953,10.0635,10.1469,10.2295,10.2908,10.4173,10.4743,10.4154,10.4182,10.4126,10.3383,10.2487,10.1772,10.0904,10.034,9.9887,9.9888,9.9887,9.9885,9.9882,9.9912,9.9908,9.9904,9.9902,9.9894,9.9885,9.9876,9.9868,9.9857,9.9886,9.9873,9.9805,9.9765,9.9749,9.968,9.9647,9.9609,9.96,9.96,9.96,9.9609,9.96,9.96,9.96,9.9591,9.9582,9.9564,9.9564,9.9422,9.884,9.8505,9.7792,9.678,9.579,9.4847,9.354,9.1382,8.9382,8.9081,8.8856,8.8909,8.8894,8.8796,8.8734,7.1747,7.1137,7.2685,7.3336,7.3517,7.5057,7.6111,7.6814,7.7717,7.8473,7.9037,7.9114,7.9078,7.9278,8.0003,8.0554,8.0942,8.2419,8.3233,8.3309,8.4125,8.4842,8.5395,8.5569,8.6291,8.7324,8.7753,8.7828,8.7961,8.8067,8.8606,8.8994,8.922,8.9207,8.9427,8.9422,8.9448,8.9791,9.0599,9.195,9.3629,9.521,9.6253,9.6347,9.7919,9.8575,9.8928,9.9355,9.9891,9.9901,9.9901,9.9901,10.0205,10.066,10.1267,10.1305,10.2247,10.2282,10.1656,10.2228,10.2044,10.1479,10.1252,10.1026,10.0267,9.9885,9.9883,9.9914,9.991,9.9899,9.9885,9.9906,9.9899,9.9891,9.9886,9.9873,9.9821,9.9843,9.9826,9.9853,9.9834,9.9763,9.969,9.9651,9.9617,9.9564,9.9555,9.9545,9.9536,9.9516,9.9516,9.9516,9.9516,9.9516,9.9506,9.9279,9.9204,9.9136,9.9136,9.8149,9.7834,9.7146,9.6154,9.5097,9.3934,9.2377,9.068,8.9504,8.8941,8.8737,8.8571,8.8604,8.8658,8.8516,8.8169,6.9767,6.992,7.13,7.1838,7.2094,7.3646,7.5205,7.6389,7.6572,7.7665,7.9004,7.9065,7.9102,7.9376,7.9471,7.9443,7.9905,8.1028,8.1726,8.1915,8.2887,8.3576,8.4102,8.413,8.5008,8.618,8.6434,8.6598,8.6673,8.6645,8.741,8.8695,8.8884,8.9319,8.9507,8.961,8.9628,8.964,8.9776,9.0594,9.2076,9.3647,9.4415,9.4989,9.6137,9.7251,9.78,9.8647,9.9599,9.9762,9.9917,9.9917,9.9917,9.9917,9.9917,9.9902,9.9883,9.9925,10.0114,10.0418,10.0302,10.0338,10.0147,9.9953,9.9908,9.9902,9.9897,9.9885,9.9868,9.9848,9.9868,9.987,9.9891,9.9885,9.9834,9.9777,9.9732,9.9704,9.9697,9.9674,9.9667,9.9593,9.9526,9.9516,9.9469,9.9469,9.9496,9.9486,9.9476,9.9482,9.9471,9.9461,9.945,9.945,9.945,9.8856,9.8694,9.8638,9.772,9.6478,9.5877,9.5094,9.4198,9.3308,9.1933,9.0516,8.9563,8.8938,8.8511,8.8325,8.8325,8.8362,8.8306,8.7971,8.7524,6.9759,6.9818,7.0122,7.0272,7.0523,7.2063,7.2996,7.3545,7.4681,7.6179,7.7657,7.7835,7.848,7.9351,7.9565,7.9627,7.9664,7.9936,8.0315,8.0466,8.0882,8.1602,8.2299,8.2844,8.3455,8.4782,8.4869,8.5094,8.5188,8.5163,8.6127,8.7286,8.7741,8.8316,8.9473,8.9684,8.9773,8.9799,8.9822,8.9877,9.0624,9.1903,9.2914,9.3156,9.4613,9.6099,9.6901,9.7781,9.8621,9.9423,9.9845,9.9885,9.9885,9.9885,9.9887,9.991,9.9894,9.9888,9.9885,9.9885,9.9888,9.9885,9.9882,9.991,9.9899,9.9895,9.9886,9.9891,9.9832,9.9771,9.9752,9.978,9.9788,9.9734,9.9672,9.96,9.9591,9.9553,9.9535,9.9496,9.9454,9.9395,9.9371,9.9321,9.9295,9.9308,9.9308,9.9345,9.9308,9.9333,9.9333,9.9359,9.9359,9.9359,9.8767,9.8138,9.7423,9.7109,9.6015,9.4795,9.3972,9.3068,9.2383,9.1619,9.0346,8.9499,8.8846,8.815,8.7796,8.7684,8.7962,8.7759,8.7035,8.6567,8.6078,6.9638,6.9693,6.9655,6.9727,6.9916,7.0722,7.1563,7.2362,7.3228,7.4548,7.5943,7.7026,7.7887,7.8594,7.9295,7.9775,7.977,7.9808,7.9804,7.977,7.9808,8.0372,8.0936,8.1078,8.2086,8.2908,8.274,8.2627,8.3559,8.363,8.4557,8.5907,8.7039,8.7765,8.8604,8.9334,8.9794,8.9804,8.9859,8.9909,9.0065,9.0663,9.1212,9.1752,9.2934,9.4151,9.5292,9.6205,9.7799,9.8634,9.9466,9.9804,9.9914,9.9864,9.9789,9.9792,9.98,9.9826,9.9826,9.9805,9.981,9.9816,9.9864,9.9897,9.9891,9.9876,9.9789,9.9803,9.9732,9.972,9.9621,9.9638,9.964,9.9621,9.9506,9.9465,9.9434,9.9434,9.9329,9.9221,9.9154,9.9137,9.9132,9.9117,9.9132,9.9146,9.9146,9.9108,9.9122,9.9122,9.9137,9.9137,9.9099,9.8647,9.7607,9.6528,9.5484,9.5053,9.4169,9.3157,9.2204,9.1105,9.0338,8.9982,8.9294,8.8404,8.7793,8.7491,8.7157,8.6877,8.6506,8.6083,8.558,8.4962,8.4248,6.9354,6.9483,6.9483,6.9604,6.9702,6.975,7.0553,7.1746,7.1766,7.2844,7.4448,7.5817,7.6423,7.7179,7.8501,7.8948,7.8716,7.9091,7.9433,7.9848,7.9886,7.9923,8.0151,8.0222,8.0756,8.1294,8.1008,8.0939,8.1772,8.2107,8.2895,8.4477,8.5689,8.6635,8.728,8.8497,8.9221,8.911,8.9687,8.9957,8.9961,9.0162,9.0244,9.0434,9.1419,9.2329,9.3199,9.5134,9.6837,9.7473,9.875,9.9272,9.9322,9.9517,9.9657,9.9674,9.969,9.9674,9.9674,9.9659,9.9712,9.9719,9.9732,9.9822,9.9822,9.9726,9.9667,9.9652,9.968,9.9649,9.9506,9.9493,9.9498,9.9438,9.9355,9.9258,9.9246,9.9181,9.9085,9.8863,9.8854,9.8806,9.8812,9.8812,9.8774,9.8758,9.8795,9.8812,9.8812,9.8828,9.8806,9.8785,9.8688,9.7576,9.6389,9.4984,9.3631,9.318,9.2293,9.1276,9.0483,8.9244,8.866,8.8619,8.811,8.7324,8.7014,8.6859,8.6186,8.49,8.4539,8.4288,8.3594,8.2938,8.2296,6.8873,6.9074,6.9074,6.9239,6.9437,6.9463,6.9694,7.0033,7.0017,7.1119,7.2562,7.2928,7.4233,7.508,7.5697,7.5663,7.6082,7.6994,7.8589,7.9462,7.9613,7.9727,7.9917,7.988,8.0144,8.0164,8.0006,7.9971,8.0321,8.0404,8.1397,8.2575,8.322,8.4206,8.5535,8.6939,8.7813,8.8041,8.9029,8.975,8.9788,8.9902,8.9972,8.9997,9.0479,9.0999,9.2134,9.3111,9.4503,9.7151,9.7626,9.7692,9.7962,9.8671,9.9582,9.9422,9.911,9.9091,9.9139,9.9375,9.9469,9.9573,9.9591,9.9591,9.9591,9.9553,9.9544,9.9564,9.9554,9.9482,9.9381,9.9346,9.932,9.9243,9.9178,9.9085,9.8998,9.8812,9.8695,9.85,9.85,9.8518,9.85,9.8481,9.8444,9.8426,9.8463,9.8463,9.8463,9.8426,9.8294,9.8238,9.7505,9.649,9.5104,9.3717,9.2106,9.1328,9.0271,8.9566,8.9011,8.8307,8.7938,8.7627,8.6955,8.6252,8.5791,8.539,8.4377,8.2986,8.2361,8.2123,8.1599,8.0942,8.0422,6.8197,6.8492,6.8507,6.8677,6.8948,6.8983,6.9096,6.9289,6.9315,6.9919,7.0797,7.1805,7.2576,7.3392,7.4285,7.4687,7.4959,7.5698,7.6887,7.8182,7.8606,7.9062,7.9629,7.9828,7.9796,7.9804,7.9761,7.9779,7.98,7.9973,8.033,8.1029,8.2102,8.2828,8.3741,8.5259,8.6057,8.6473,8.7801,8.8674,8.8862,8.9383,8.9896,8.9871,8.9913,9.0115,9.1068,9.1729,9.305,9.4131,9.4524,9.4777,9.5735,9.6374,9.6719,9.6757,9.6697,9.6966,9.7906,9.8117,9.8441,9.9298,9.9407,9.9417,9.9417,9.9423,9.9423,9.9401,9.9369,9.9271,9.9127,9.9117,9.9111,9.9028,9.896,9.8882,9.8729,9.8501,9.8329,9.8309,9.8232,9.8232,9.8212,9.8192,9.8172,9.8114,9.8151,9.8019,9.8019,9.7799,9.7687,9.6851,9.6126,9.5062,9.368,9.2278,9.0672,8.9741,8.894,8.853,8.8021,8.7623,8.7191,8.639,8.5601,8.4992,8.3928,8.3537,8.2743,8.1437,8.0486,8.0047,7.9596,7.9061,7.8562,6.7383,6.7745,6.78,6.8029,6.8346,6.8447,6.857,6.8797,6.8935,6.9112,6.953,7.0674,7.1282,7.1537,7.2617,7.3496,7.3243,7.3945,7.4842,7.6287,7.6766,7.8017,7.8307,7.8852,7.8985,7.9151,7.9355,7.9647,7.9685,7.979,7.986,8.0036,8.1085,8.1863,8.2053,8.3456,8.437,8.467,8.6036,8.6833,8.7132,8.8253,8.9102,8.9146,8.9552,8.9738,9.0027,9.0928,9.151,9.1565,9.1858,9.2731,9.3613,9.4169,9.447,9.4507,9.4341,9.4766,9.585,9.6279,9.6883,9.824,9.8466,9.8843,9.9057,9.9246,9.922,9.9194,9.915,9.905,9.8907,9.8849,9.8767,9.877,9.8719,9.8593,9.8369,9.8131,9.8021,9.7978,9.7957,9.7978,9.7978,9.7869,9.7847,9.7861,9.7765,9.7571,9.7333,9.7081,9.6196,9.4922,9.4092,9.2958,9.175,9.069,8.9516,8.875,8.8333,8.7971,8.7406,8.6951,8.6034,8.5178,8.4248,8.2977,8.1731,8.1279,8.0815,7.9828,7.8817,7.8366,7.7842,7.7243,7.6742,6.6472,6.6849,6.703,6.7296,6.7557,6.7818,6.796,6.8164,6.8387,6.8579,6.8745,6.9097,6.9563,6.9492,7.0155,7.0024,7.0182,7.1643,7.2354,7.3413,7.5174,7.6051,7.5462,7.6584,7.7405,7.7669,7.8763,7.9282,7.9533,7.9636,7.9712,7.9809,7.99,8.0038,8.0574,8.1717,8.2404,8.2821,8.4147,8.4981,8.5316,8.6597,8.7601,8.7861,8.8753,8.927,8.9517,8.9667,8.9735,8.9447,9.0733,9.1316,9.164,9.3061,9.3465,9.339,9.3225,9.3465,9.4105,9.4195,9.4916,9.6388,9.6741,9.7282,9.8471,9.8908,9.8968,9.8931,9.8945,9.8871,9.8733,9.8555,9.8445,9.8368,9.8366,9.8164,9.7847,9.7687,9.7618,9.7462,9.7437,9.7474,9.7474,9.7487,9.7413,9.6932,9.681,9.6255,9.5576,9.5364,9.4462,9.3198,9.2056,9.0892,9.0007,8.9196,8.8523,8.8015,8.7775,8.7441,8.6916,8.5869,8.4909,8.3698,8.2453,8.1161,7.9834,7.9018,7.8541,7.7836,7.7468,7.6882,7.6271,7.5959,7.5204,6.5362,6.5818,6.604,6.6343,6.6715,6.7023,6.7234,6.7344,6.7634,6.796,6.8077,6.8319,6.8551,6.8728,6.8797,6.8936,6.913,6.9784,7.0245,7.0747,7.2906,7.3357,7.3421,7.5385,7.6623,7.6908,7.8435,7.9121,7.9301,7.9412,7.9461,7.9461,7.9478,7.9491,7.9628,8.0354,8.0657,8.0959,8.2245,8.3199,8.3304,8.4825,8.5963,8.7089,8.7522,8.8452,8.9204,8.9232,8.9017,8.8877,8.9219,8.9543,8.9601,9.0167,9.0448,9.0538,9.0448,9.0989,9.1787,9.2193,9.2976,9.4358,9.572,9.6487,9.7199,9.8156,9.8606,9.8606,9.8593,9.8539,9.8407,9.827,9.8127,9.7963,9.7719,9.7499,9.7265,9.713,9.719,9.7165,9.7139,9.7176,9.7176,9.7099,9.6568,9.5867,9.5521,9.4637,9.3619,9.3349,9.2747,9.159,9.0456,8.957,8.8706,8.8226,8.7626,8.7552,8.7377,8.7014,8.6178,8.4953,8.3215,8.1236,8.0375,7.9342,7.8146,7.7114,7.6854,7.671,7.6241,7.5771,7.5428,7.5065,7.4067,6.4209,6.4671,6.4996,6.5298,6.567,6.61,6.6271,6.6423,6.6886,6.7197,6.74,6.7652,6.789,6.8171,6.8335,6.8454,6.8565,6.8715,6.8835,6.9161,7.0283,7.0493,7.1055,7.3405,7.5091,7.5887,7.7253,7.8535,7.8939,7.9091,7.9114,7.9173,7.9181,7.9247,7.9374,7.9449,7.9422,7.9583,8.0724,8.1252,8.1506,8.2902,8.4303,8.5441,8.572,8.6749,8.8238,8.8319,8.8156,8.8195,8.8117,8.8021,8.8113,8.8107,8.8177,8.8239,8.8124,8.8532,8.9657,8.9998,9.0821,9.237,9.3529,9.4873,9.5676,9.6908,9.7618,9.8195,9.8209,9.8164,9.8,9.7891,9.7756,9.7483,9.6119,9.5305,9.5299,9.552,9.552,9.552,9.5346,9.5236,9.5135,9.5081,9.4669,9.3825,9.333,9.2836,9.1633,9.1036,9.0585,8.9587,8.8914,8.8142,8.759,8.7235,8.7088,8.7026,8.6689,8.6264,8.4994,8.3792,8.1545,7.8956,7.8459,7.7668,7.648,7.5832,7.574,7.5836,7.5155,7.4238,7.4037,7.3279,7.2202,6.2953,6.3472,6.3836,6.4064,6.4399,6.4946,6.5281,6.5601,6.5976,6.6343,6.6705,6.6937,6.7234,6.7479,6.7707,6.7873,6.7941,6.8234,6.8404,6.8361,6.8323,6.8402,6.8656,7.0405,7.23,7.3881,7.5558,7.7071,7.8515,7.8711,7.8761,7.8789,7.8896,7.9001,7.9053,7.9103,7.9128,7.9102,7.9265,7.9428,7.9529,8.0881,8.1794,8.2064,8.3307,8.4799,8.6289,8.631,8.6574,8.7528,8.7495,8.7441,8.7478,8.7423,8.7279,8.7303,8.7316,8.7594,8.7626,8.7953,8.8597,9.0128,9.0861,9.1757,9.4443,9.5335,9.6189,9.7341,9.769,9.7756,9.758,9.7313,9.7056,9.6722,9.4153,9.2441,9.1789,9.1907,9.2199,9.2053,9.1724,9.1761,9.2126,9.2089,9.1878,9.1513,9.1412,9.0617,8.955,8.8756,8.8163,8.7688,8.7241,8.6766,8.6802,8.6483,8.6483,8.6293,8.566,8.4778,8.3503,8.2482,8.0846,7.8417,7.6805,7.5842,7.5128,7.5163,7.5169,7.4759,7.3861,7.2787,7.1825,7.0784,6.9764,5.9736,5.9637,6.0847,6.161,6.2158,6.3497,6.4149,6.4475,6.4897,6.529,6.5608,6.6026,6.639,6.6715,6.6915,6.7151,6.7493,6.7611,6.7513,6.7234,6.7213,6.7413,6.7699,6.8404,7.0104,7.2802,7.4688,7.6409,7.8094,7.8202,7.8325,7.8499,7.8547,7.8611,7.8614,7.8651,7.8629,7.8621,7.8636,7.8621,7.8741,7.919,7.9997,8.0959,8.1553,8.32,8.5419,8.4135,8.3962,8.5165,8.6176,8.6523,8.6507,8.6533,8.6533,8.656,8.6685,8.681,8.6862,8.6926,8.7382,8.8105,8.9109,9.0483,9.1699,9.3939,9.4826,9.5787,9.6563,9.7215,9.6866,9.6162,9.4748,9.3356,9.1705,9.0996,9.0773,9.0779,9.0706,9.053,9.0597,9.0779,9.0742,9.0706,9.0349,8.934,8.9158,8.8578,8.7309,8.6801,8.6584,8.6258,8.5931,8.5931,8.5895,8.5895,8.5931,8.5231,8.4495,8.3299,8.1695,8.0635,7.9434,7.6942,7.5475,7.4594,7.4417,7.4519,7.4244,7.3587,7.2934,7.1718,7.0403,6.9088,6.7501,5.8134,5.8027,5.9315,6.0173,6.0754,6.2143,6.2953,6.3243,6.3748,6.4209,6.4527,6.4961,6.5371,6.5799,6.6087,6.6403,6.6764,6.6531,6.639,6.6331,6.6521,6.6728,6.6966,6.7111,6.8455,7.083,7.3092,7.5116,7.6676,7.7438,7.7795,7.8004,7.8005,7.8079,7.8131,7.8169,7.8149,7.813,7.8147,7.8149,7.8096,7.8096,7.858,7.9582,7.9652,8.0673,8.2967,8.1486,8.1524,8.3516,8.4465,8.5184,8.5561,8.5662,8.5721,8.5786,8.5974,8.6133,8.6169,8.6273,8.6375,8.672,8.7574,8.8574,8.9594,9.1471,9.2783,9.3592,9.4511,9.5255,9.4962,9.3954,9.2365,9.0095,8.9197,8.8608,8.8377,8.8421,8.8605,8.8569,8.8605,8.8569,8.8497,8.8461,8.7853,8.6957,8.6813,8.6597,8.5554,8.5374,8.523,8.523,8.523,8.523,8.523,8.523,8.4574,8.3539,8.2774,8.1763,7.9792,7.8279,7.6912,7.5337,7.4431,7.3837,7.3767,7.3594,7.3108,7.2554,7.1163,7.0056,6.9125,6.7573,6.5682,5.8542,5.8856,5.9656,5.9825,6.0216,6.1042,6.1644,6.2069,6.2551,6.3017,6.3532,6.3871,6.4263,6.4735,6.519,6.5531,6.5513,6.5127,6.5127,6.5601,6.5706,6.5936,6.6223,6.6403,6.6857,6.7344,7.0352,7.2875,7.4824,7.6219,7.71,7.7335,7.7357,7.7465,7.7726,7.7689,7.7676,7.7662,7.7682,7.7676,7.7607,7.747,7.7495,7.7394,7.7282,7.7624,7.8269,7.8215,7.9428,8.1948,8.2564,8.3353,8.4442,8.4833,8.4937,8.4969,8.5163,8.5329,8.536,8.5483,8.5593,8.5807,8.5917,8.6815,8.8114,8.8955,8.9878,9.1047,9.1659,9.1704,9.1748,9.1166,8.9938,8.7972,8.6426,8.5514,8.5172,8.4829,8.4693,8.4976,8.5188,8.4728,8.4693,8.5155,8.5262,8.4943,8.4802,8.4728,8.4552,8.4514,8.455,8.455,8.455,8.455,8.455,8.4376,8.3007,8.1739,8.0858,7.9766,7.7693,7.6221,7.4893,7.4054,7.3148,7.3113,7.3044,7.2384,7.193,7.0889,6.9025,6.7647,6.6547,6.5313,6.3606,5.4943,5.5046,5.6457,5.7356,5.7857,5.9339,6.0339,6.0838,6.1282,6.1753,6.2278,6.2819,6.3213,6.3627,6.4084,6.4149,6.3752,6.3963,6.4174,6.4416,6.4855,6.5135,6.5263,6.5653,6.5886,6.6396,6.8382,7.1037,7.3726,7.4636,7.5595,7.6603,7.6713,7.6761,7.6833,7.6833,7.682,7.6831,7.6831,7.6808,7.6749,7.6688,7.659,7.6415,7.5644,7.5271,7.5408,7.6282,7.7317,7.8378,8.015,8.1422,8.1987,8.3188,8.3931,8.4036,8.4244,8.4449,8.4548,8.4578,8.4743,8.5032,8.519,8.5555,8.6322,8.7486,8.8301,8.9092,8.992,9.0681,9.0226,8.8261,8.6336,8.5467,8.48,8.438,8.4244,8.4176,8.4141,8.4177,8.4107,8.4072,8.4037,8.4038,8.3932,8.379,8.3754,8.379,8.379,8.3754,8.3754,8.379,8.379,8.3754,8.3259,8.2124,8.0628,7.9226,7.8172,7.7048,7.5506,7.4322,7.3273,7.2634,7.2313,7.2313,7.197,7.1244,7.0409,6.9537,6.7687,6.5707,6.4408,6.2978,6.2396,5.3358,5.3321,5.4869,5.5898,5.6571,5.7862,5.8793,5.9483,5.9925,6.0427,6.0917,6.1539,6.2035,6.2415,6.2551,6.2415,6.2277,6.2719,6.3146,6.3469,6.3906,6.4244,6.4422,6.4834,6.5122,6.5421,6.6473,6.857,7.1372,7.2845,7.4023,7.512,7.5735,7.6087,7.6113,7.6104,7.6104,7.6104,7.6014,7.5961,7.588,7.5779,7.5399,7.4926,7.399,7.3461,7.3358,7.4124,7.4853,7.541,7.7106,7.8703,7.9853,8.1092,8.2089,8.2841,8.3136,8.3394,8.3612,8.3719,8.3896,8.4244,8.4378,8.4581,8.4993,8.5801,8.6541,8.6817,8.7749,8.805,8.7459,8.5731,8.4107,8.3896,8.3861,8.379,8.3718,8.3609,8.3538,8.3538,8.3573,8.3537,8.3462,8.346,8.3353,8.3206,8.3206,8.3206,8.3206,8.3169,8.3206,8.3134,8.3062,8.2596,8.1568,7.9598,7.8211,7.6795,7.5752,7.48,7.3713,7.2533,7.2102,7.1555,7.1404,7.137,7.1167,7.0309,6.8332,6.7323,6.585,6.4052,6.2918,6.2015,6.1364,5.364,5.3981,5.4623,5.5363,5.6395,5.6725,5.7254,5.7871,5.8545,5.9007,5.9458,6.008,6.0692,6.1069,6.0621,6.0617,6.0991,6.143,6.2,6.2653,6.2955,6.3314,6.3686,6.3941,6.4219,6.4457,6.4773,6.5858,6.7803,7.0632,7.2478,7.2972,7.4374,7.5255,7.527,7.5378,7.5514,7.5421,7.5233,7.505,7.4937,7.4729,7.3895,7.2762,7.2248,7.2023,7.1985,7.1761,7.226,7.3769,7.4003,7.5384,7.8116,7.8637,7.9596,8.1306,8.1791,8.218,8.2637,8.2797,8.3024,8.3283,8.3431,8.3647,8.3932,8.4213,8.4457,8.4554,8.4772,8.4425,8.3856,8.3569,8.3319,8.3283,8.3242,8.3129,8.3164,8.294,8.2826,8.2826,8.2864,8.2864,8.2826,8.2787,8.2749,8.2749,8.2749,8.2609,8.2466,8.2469,8.2291,8.2148,8.175,8.0842,7.7576,7.6582,7.5743,7.4497,7.3628,7.3197,7.2003,7.1014,7.0814,7.0611,7.053,7.0388,7.0154,6.9001,6.7076,6.4934,6.3506,6.2381,6.1254,6.0755,6.0366,5.2247,5.2528,5.2892,5.3504,5.4373,5.5205,5.579,5.617,5.6885,5.7539,5.8094,5.8761,5.8812,5.8418,5.8853,5.929,5.98,6.0465,6.0991,6.1391,6.1858,6.2277,6.2754,6.3053,6.3282,6.3541,6.3755,6.4237,6.5037,6.7205,6.9025,7.0436,7.1853,7.2692,7.2993,7.3926,7.4357,7.4289,7.4061,7.3862,7.3596,7.2513,7.1655,7.1139,7.0699,7.0414,7.0291,7.0008,7.0115,7.0556,7.1554,7.2616,7.371,7.4854,7.6435,7.8321,7.9993,8.106,8.1389,8.1685,8.1975,8.2249,8.2567,8.287,8.3094,8.321,8.3431,8.3646,8.3171,8.2794,8.2559,8.2555,8.252,8.252,8.2555,8.2477,8.2511,8.2437,8.2324,8.2398,8.2358,8.2398,8.2358,8.2205,8.201,8.1924,8.1883,8.1676,8.057,8.0264,7.9883,7.8811,7.8565,7.7306,7.4979,7.4213,7.3331,7.2114,7.148,7.1182,7.0525,7.015,6.9907,6.9685,6.96,6.9325,6.8475,6.7814,6.6368,6.3468,6.1366,6.0168,5.9764,5.9508,5.9314,5.0727,5.1146,5.1377,5.2016,5.2821,5.3484,5.4067,5.4641,5.5345,5.5943,5.6529,5.669,5.6601,5.6334,5.7292,5.7967,5.8462,5.9088,5.9649,6.0223,6.0692,6.1172,6.1606,6.2033,6.238,6.2551,6.2955,6.3117,6.3516,6.4596,6.613,6.7852,6.9386,7.0499,7.1194,7.1965,7.2697,7.322,7.2939,7.2366,7.1544,7.0395,6.9756,6.9458,6.8905,6.8551,6.845,6.8135,6.792,6.7985,6.8696,6.9672,7.0645,7.1659,7.3143,7.5114,7.6718,7.8039,7.9254,7.9669,8.0249,8.1237,8.1603,8.1929,8.2244,8.2328,8.2298,8.218,8.1924,8.1672,8.1638,8.1638,8.1672,8.1672,8.1638,8.1638,8.1638,8.1638,8.1672,8.1672,8.1638,8.1638,8.1638,8.1514,8.1183,8.055,7.9788,7.9143,7.8313,7.8107,7.7736,7.6764,7.5179,7.3677,7.2437,7.1829,7.1209,7.0332,6.9864,6.9685,6.9537,6.932,6.9068,6.8714,6.8083,6.7333,6.6561,6.5735,6.4324,6.2541,6.0245,5.8972,5.8775,5.8535,5.8084,4.9179,4.9746,5.0013,5.0675,5.1532,5.1737,5.237,5.3239,5.3796,5.4307,5.4516,5.4182,5.4355,5.4924,5.5897,5.6574,5.703,5.7539,5.8326,5.9071,5.9523,5.9925,6.0421,6.0983,6.1352,6.1536,6.1996,6.231,6.2482,6.289,6.3841,6.5379,6.6891,6.8335,6.9434,6.9744,7.0531,7.1901,7.1412,7.043,6.8871,6.8397,6.8089,6.777,6.7024,6.6564,6.6564,6.6031,6.5737,6.5706,6.5768,6.6629,6.8306,6.8644,6.9673,7.1881,7.2538,7.3926,7.6384,7.7021,7.7913,7.9671,8.017,8.0574,8.0955,8.0989,8.0736,8.0393,8.052,8.0743,8.0743,8.0743,8.0743,8.0743,8.0743,8.0743,8.0743,8.0743,8.0743,8.0743,8.0743,8.0675,8.0402,8.03,7.9823,7.8494,7.7396,7.6552,7.6068,7.6007,7.583,7.4939,7.2699,7.0416,7.0021,6.9642,6.9483,6.9189,6.9036,6.8848,6.8535,6.8387,6.8154,6.7291,6.6492,6.5527,6.4627,6.3277,6.1349,6.0402,5.9426,5.8432,5.7945,5.7602,5.6991,4.775,4.7917,4.8469,4.8908,4.9423,5.0305,5.1093,5.163,5.2168,5.2117,5.1789,5.2219,5.2821,5.3562,5.4373,5.5128,5.5806,5.656,5.7223,5.7945,5.821,5.8752,5.9548,5.9865,6.0217,6.0602,6.0983,6.1349,6.1531,6.1711,6.2127,6.2777,6.4342,6.5368,6.5781,6.6791,6.7964,6.9153,6.7847,6.6778,6.6235,6.6262,6.6194,6.5902,6.4958,6.4429,6.4429,6.3643,6.3222,6.3275,6.3275,6.3607,6.4434,6.4807,6.6041,6.8306,6.898,7.0311,7.2753,7.3945,7.4957,7.5772,7.7066,7.8016,7.8301,7.7949,7.767,7.7882,7.8936,7.9745,7.9745,7.9778,7.9812,7.9846,7.9812,7.9745,7.9812,7.9812,7.9812,7.9812,7.9846,7.9239,7.8319,7.7983,7.7421,7.6218,7.5578,7.4837,7.3885,7.3683,7.2776,7.1288,6.9933,6.9112,6.8925,6.8702,6.8445,6.8206,6.8023,6.776,6.7527,6.7246,6.6691,6.5485,6.4821,6.3839,6.1875,6.069,5.9895,5.8795,5.8108,5.7578,5.7167,5.668,5.5897,4.6282,4.6478,4.682,4.7215,4.7612,4.8388,4.9207,4.9959,4.9825,4.9745,4.9826,5.0622,5.1377,5.2044,5.2942,5.3699,5.4385,5.5188,5.5927,5.656,5.696,5.7571,5.84,5.8702,5.9103,5.9548,5.9944,6.0301,6.0607,6.0791,6.0979,6.1338,6.2218,6.303,6.3706,6.4284,6.5334,6.6603,6.4105,6.31,6.3831,6.364,6.3663,6.38,6.2826,6.2178,6.1905,6.1128,6.0652,6.0511,6.0511,6.0849,6.1517,6.1796,6.2801,6.478,6.5398,6.6412,6.8181,7.0009,7.1733,7.3253,7.4586,7.4903,7.4038,7.4274,7.4702,7.5095,7.6035,7.6937,7.7728,7.7795,7.8094,7.8692,7.816,7.7828,7.7761,7.7309,7.6843,7.6843,7.6843,7.6544,7.5634,7.5567,7.5047,7.375,7.3417,7.2852,7.1445,7.0867,7.0043,6.8776,6.8186,6.7958,6.7714,6.7481,6.7293,6.7183,6.7009,6.6818,6.6577,6.6335,6.5494,6.4173,6.3075,6.1843,6.0004,5.8961,5.8143,5.7146,5.68,5.6577,5.6337,5.5927,5.5091,4.4825,4.52,4.52,4.5442,4.592,4.6371,4.719,4.7972,4.7164,4.7332,4.8304,4.9234,4.996,5.0544,5.1555,5.232,5.29,5.3816,5.4587,5.5218,5.5682,5.6321,5.711,5.7516,5.7945,5.8484,5.8857,5.9274,5.9682,5.9911,6.0172,6.0405,6.0476,6.1066,6.2181,6.2048,6.2434,6.3431,6.0565,5.9806,6.1297,6.0917,6.0787,6.1018,6.0279,5.9543,5.8713,5.8077,5.7577,5.7396,5.7396,5.7809,5.8598,5.8657,5.9457,6.0883,6.1508,6.2235,6.321,6.5413,6.7936,7.0508,7.1912,7.1571,6.929,7.0541,7.1816,7.2282,7.2861,7.3686,7.4942,7.53,7.5726,7.671,7.5988,7.53,7.5234,7.4297,7.3641,7.3674,7.3444,7.351,7.3215,7.3116,7.2624,7.141,7.1016,7.0544,6.935,6.8219,6.7574,6.7293,6.7009,6.6722,6.6529,6.6237,6.609,6.609,6.609,6.5943,6.5726,6.5228,6.4235,6.2844,6.1215,5.9782,5.8387,5.7178,5.6506,5.6216,5.5851,5.5574,5.5495,5.5026,5.4311,4.3485,4.3629,4.376,4.3915,4.4093,4.4879,4.5344,4.5517,0.0,0.0,0.0,4.7642,4.8498,4.9369,5.0252,5.1066,5.184,5.2729,5.3581,5.4281,5.4617,5.5202,5.6034,5.6366,5.6858,5.7547,5.7731,5.82,5.893,5.8972,5.9176,5.95,5.9508,5.9669,5.9863,5.9669,5.9023,5.8058,5.7897,5.7638,5.7285,5.8268,5.7991,5.6314,5.628,5.5525,5.3996,5.3301,5.289,5.2831,5.2917,5.3184,5.3884,5.4115,5.4858,5.612,5.6751,5.7479,5.8647,5.9957,6.169,6.4011,6.7275,6.833,6.6113,6.781,6.9197,6.9494,7.1022,7.2088,7.2427,7.2639,7.2851,7.311,7.2915,7.2786,7.2754,7.2495,7.2236,7.2398,7.2268,7.1977,7.0828,7.0619,7.0101,6.8858,6.8632,6.8341,6.8009,6.7167,6.6432,6.6157,6.5763,6.5477,6.5376,6.5175,6.5023,6.5023,6.5023,6.4921,6.4511,6.349,6.2047,6.049,5.8832,5.7421,5.614,5.5659,5.5462,5.5385,5.4996,5.4635,5.4539,5.3748,5.2736,4.2193,0.0,4.2315,4.2474,0.0,4.3271,4.3128,4.2443,4.2851,4.3784,4.5136,4.6257,4.719,4.7972,4.8879,4.9719,5.0435,5.1325,5.2151,5.2779,5.3355,5.4136,5.4902,5.5325,5.5851,5.6532,5.6769,5.7223,5.8008,5.8051,5.82,5.8619,5.8733,5.8733,5.8577,5.8462,5.7539,5.5806,5.5629,5.5341,5.4842,5.504,5.4616,5.343,5.3481,0.0,0.0,0.0,0.0,0.0,0.0,0.0,0.0,0.0,0.0,5.1803,5.2651,5.3618,5.4729,5.5885,5.7521,5.9813,6.2787,6.3876,6.2387,6.4602,6.6327,6.6895,6.7891,6.8935,6.9763,7.0109,7.0513,7.1182,7.0673,7.0258,7.0163,6.9589,6.9175,6.9143,6.9143,6.892,6.8219,6.8123,6.7805,6.7184,6.7056,6.7056,6.6961,6.601,6.5163,6.4879,6.447,6.419,6.4034,6.396,6.3855,6.3855,6.3855,6.353,6.282,6.1949,6.0578,5.8568,5.7265,5.6128,5.4924,5.4503,5.4407,5.4407,5.4088,5.3669,5.285,5.2123,5.1409,4.0818,4.0818,4.0818,4.092,4.1145,4.1352,4.0796,3.9861,4.1229,4.2451,4.3594,4.4893,4.5905,4.6624,4.747,4.8278,4.9045,4.9986,5.0675,5.1222,5.2123,5.2957,5.3699,5.4262,5.4854,5.5528,5.5851,5.6352,5.7066,5.7141,5.7342,5.7731,5.7966,5.8008,5.7817,0.0,0.0,0.0,5.3884,5.3114,5.2747,5.2026,5.1238,5.0453,5.0594,0.0,4.8411,4.7741,4.7155,4.6587,4.5895,0.0,0.0,0.0,0.0,0.0,0.0,0.0,0.0,0.0,0.0,0.0,5.7632,5.835,5.8011,6.0662,6.2941,6.4184,6.4787,6.5709,6.7102,6.745,6.8123,6.9271,6.8425,6.7766,6.7703,6.6713,6.5992,6.5992,6.6023,6.6023,6.6055,6.5992,6.6023,6.5992,6.5992,6.5862,6.5484,6.447,6.3659,6.3335,6.2936,6.2491,6.1992,6.1873,6.1694,6.1962,6.1962,6.1515,6.0592,5.9996,5.8722,5.6986,5.587,5.4993,5.3932,5.3581,5.3404,5.3326,5.3107,5.2506,5.1222,5.0675,5.0305,3.9337,3.9316,3.9337,3.94,3.9337,3.8853,3.8747,3.8937,3.9861,4.0898,4.2003,4.3474,4.4683,4.5699,4.6257,4.7,4.7865,4.8798,4.9585,5.0199,5.0961,5.176,5.2493,5.3156,5.3845,5.4587,5.5073,5.5542,5.5988,5.6185,5.6546,5.7066,5.7141,5.726,5.7348,5.6276,5.5451,5.4807,5.3,5.1485,5.0309,4.9938,4.8426,4.5979,4.6481,4.5685,4.3449,4.291,4.2502,4.2069,4.1318,4.104,4.1368,4.0988,4.1181,0.0,4.2125,0.0,0.0,0.0,0.0,0.0,0.0,0.0,0.0,5.5371,5.852,6.1017,6.2732,6.3803,6.4269,6.456,6.4941,6.5362,6.5321,6.5198,6.5167,6.5044,6.4921,6.4921,6.4952,6.4921,6.489,6.4952,6.4921,6.489,6.4747,6.3998,6.2856,6.2282,6.1981,6.1913,6.1001,5.9806,5.8713,5.8309,5.8368,5.8309,5.8397,5.8186,5.7988,5.6881,5.5883,5.5367,5.4245,5.3195,5.28,5.2642,5.2512,5.2174,5.184,5.1353,5.0305,4.9799,4.945,3.8003,3.8024,3.8003,3.7333,3.6337,3.5811,3.6184,3.7135,3.8072,3.924,4.0548,4.1842,4.3078,4.4117,4.4693,4.5426,4.6149,4.7056,4.7835,4.8498,4.9477,5.0384,5.1222,5.197,5.2757,5.3552,5.4117,5.4664,5.5231,5.5511,5.5881,5.6413,5.6473,5.6473,5.6292,5.4637,5.3923,5.4185,5.265,5.0829,4.8636,4.746,4.5754,4.3415,4.3682,4.2684,4.0181,3.9892,3.9309,3.8246,3.7295,3.672,3.6468,3.6744,3.6634,0.0,0.0,0.0,0.0,0.0,0.0,0.0,0.0,0.0,0.0,0.0,5.434,5.7429,5.92,6.0188,6.0263,6.068,6.099,6.1144,6.1144,6.1174,6.1174,6.1174,6.1225,6.1358,6.1408,6.168,6.2539,6.2557,6.2724,6.3449,6.1667,5.9954,5.896,5.8743,5.8634,5.8252,5.771,5.7054,5.6298,5.6101,5.613,5.613,5.6238,5.6089,5.5375,5.4833,5.4182,5.3526,5.2673,5.2049,5.1794,5.1588,5.1409,5.1041,5.0437,4.9638,4.8826,4.8553,4.8307,3.6755,3.6695,3.6039,3.483,3.3479,3.3301,3.3931,3.5223,3.6229,3.7548,3.9059,3.9875,4.0851,4.1939,4.2483,4.3189,4.4164,4.4949,4.5866,4.6856,4.7946,4.8989,4.9853,5.0647,5.148,5.2354,5.3028,5.3718,5.4455,5.4914,5.5338,5.5727,5.5108,5.4593,5.4226,5.2924,5.2461,5.294,5.2054,5.0437,4.792,4.5435,4.3261,4.1201,4.1006,3.9715,3.723,3.6851,3.6073,3.4525,3.3343,3.2513,3.2028,3.2536,0.0,0.0,0.0,0.0,0.0,0.0,0.0,0.0,0.0,4.1157,4.5859,0.0,5.0145,0.0,5.5359,5.656,5.6983,5.7347,0.0,0.0,5.7294,5.7177,5.6935,5.7118,5.7397,5.7711,5.7977,5.8589,5.9914,5.9823,5.9942,6.0499,5.8009,5.6021,5.5638,5.5557,5.5392,5.4978,5.4644,5.4339,5.4173,5.3868,5.3619,5.3702,5.3785,5.3617,5.2645,5.2638,5.2465,5.1548,5.1142,5.0934,5.0647,5.0491,5.012,4.9423,4.8689,4.7891,4.7332,4.7138,4.702,3.571,3.5509,3.2728,3.1497,3.138,3.1969,3.2621,3.333,3.4363,3.5717,3.7135,3.7239,3.7918,3.9019,3.9236,0.0,4.1861,4.2529,4.3861,4.5657,4.6598,4.747,4.8386,4.918,5.0039,5.0912,5.1914,5.275,5.3355,5.4377,5.4979,5.5185,5.2171,5.0614,5.0612,5.1175,5.1186,5.0797,5.0823,5.0093,4.8527,4.4421,4.1139,3.881,3.7731,3.6094,3.3935,3.3256,3.2184,3.0651,2.9338,2.8581,2.8386,0.0,0.0,0.0,0.0,0.0,0.0,0.0,0.0,0.0,0.0,0.0,0.0,0.0,0.0,4.8051,5.1253,0.0,5.5416,5.5583,0.0,0.0,0.0,5.393,5.2842,5.3702,5.4519,5.4865,0.0,0.0,5.7026,5.7026,5.66,5.5228,5.4585,5.4193,5.391,5.3801,5.3742,5.3153,5.2339,5.1635,5.147,5.0634,4.9934,4.9988,4.98,4.9962,4.9854,4.98,4.9746,4.9584,4.9531,4.945,4.9206,4.8964,4.8579,4.6842,4.6447,4.6327,4.591,4.5698,4.5517,3.3378,3.2657,3.0192,2.9356,2.9755,2.9239,3.0071,3.184,3.2812,3.4082,3.5534,3.553,3.5782,3.6233,3.5952,0.0,0.0,0.0,4.1629,4.2962,4.4436,4.5715,4.68,4.7698,4.8266,4.8639,4.9492,5.007,5.0323,5.1238,5.0915,4.9437,0.0,0.0,4.8627,4.9158,4.9568,4.9818,4.9732,4.8854,4.7225,4.4386,4.091,3.6809,3.5177,3.3028,3.0155,2.9338,2.7942,2.5759,2.4721,2.3921,0.0,0.0,0.0,0.0,0.0,0.0,0.0,0.0,0.0,0.0,0.0,3.4482,3.707,0.0,0.0,0.0,4.552,4.7522,4.98,4.9712,0.0,0.0,0.0,0.0,0.0,0.0,0.0,5.036,5.0857,5.1898,5.3965,5.2681,5.1452,5.0957,5.0817,5.0706,5.04,0.0,4.9868,4.9362,4.8714,4.8176,4.8032,4.7564,4.7311,4.7479,4.7672,4.7865,4.7865,4.7976,4.8086,4.8086,4.817,4.8252,4.7972,4.5846,4.3917,4.3254,4.2975,4.2783,4.2527,4.2691,4.2822,3.1125,0.0,0.0,0.0,0.0,2.7239,2.8013,2.9859,3.075,3.192,3.3274,3.3173,0.0,0.0,0.0,0.0,0.0,0.0,3.8789,4.0306,4.1734,4.3007,4.4285,4.5077,4.5646,4.6075,4.696,4.7428,4.7475,4.6923,4.5828,4.4238,0.0,0.0,0.0,0.0,4.7621,4.8542,4.8349,4.7442,4.5895,4.3914,4.0518,3.577,3.29,2.9902,2.6619,2.5498,2.3724,2.1268,2.0455,0.0,0.0,0.0,0.0,0.0,0.0,0.0,0.0,0.0,0.0,0.0,0.0,0.0,0.0,0.0,0.0,0.0,0.0,0.0,4.412,4.4741,4.5103,0.0,0.0,0.0,0.0,0.0,0.0,0.0,0.0,0.0,4.9824,4.8249,4.7221,0.0,0.0,4.7861,4.7552,4.7164,4.6687,4.6092,4.5748,0.0,4.5112,4.5053,4.5112,4.5261,4.5517,4.5648,4.5407,4.5309,4.5333,4.5333,4.5556,4.55,4.4728,4.2237,4.0398,4.0113,4.0002,3.9779,3.9545,3.9825,4.0063,0.0,0.0,0.0,0.0,0.0,0.0,0.0,0.0,2.8121,2.9162,0.0,2.9873,0.0,0.0,0.0,0.0,0.0,3.3541,0.0,0.0,3.8274,3.9173,4.0374,4.0952,4.1942,4.3335,4.4405,4.5011,4.5054,4.1435,0.0,0.0,0.0,0.0,0.0,0.0,4.5185,4.6711,4.6547,4.5927,4.4946,4.2434,3.9585,3.6291,3.0949,2.6619,2.3613,2.1777,1.9667,1.736,1.6757,0.0,0.0,0.0,0.0,0.0,0.0,0.0,0.0,0.0,0.0,0.0,0.0,0.0,0.0,0.0,0.0,0.0,0.0,0.0,0.0,4.1632,0.0,0.0,0.0,0.0,0.0,0.0,0.0,0.0,0.0,0.0,4.4007,4.4007,4.4659,4.6112,0.0,0.0,0.0,0.0,4.4762,4.4092,4.3761,4.3463,4.3105,4.3021,4.3081,4.3081,0.0,0.0,4.1919,4.1236,4.092,4.0849,4.1134,4.0675,3.9116,3.8459,3.8243,3.7902,3.7699,3.7806,3.762,3.7206,3.7403,0.0,0.0,0.0,0.0,0.0,0.0,0.0,0.0,0.0,2.7687,0.0,2.7672,0.0,0.0,0.0,0.0,0.0,0.0,0.0,0.0,3.4808,3.5804,3.6967,3.7557,3.816,0.0,3.9674,3.8894,0.0,0.0,0.0,0.0,0.0,0.0,0.0,0.0,4.4724,4.6201,4.5918,4.5156,4.3843,4.1111,3.8029,3.4721,3.0438,2.566,2.0198,1.8024,1.5967,0.0,0.0,0.0,0.0,0.0,0.0,0.0,0.0,0.0,0.0,0.0,0.0,0.0,0.0,0.0,0.0,0.0,0.0,0.0,0.0,0.0,0.0,0.0,3.9958,0.0,0.0,0.0,0.0,0.0,0.0,0.0,0.0,0.0,3.9293,4.1254,4.301,4.3748,4.4604,4.4952,4.4413,0.0,0.0,0.0,0.0,0.0,0.0,0.0,4.0921,4.0574,4.0402,3.9982,3.9111,3.8546,3.8321,3.8549,0.0,0.0,3.3098,3.2303,3.225,3.2091,3.1793,3.1547,3.146,3.1747,3.2207,0.0,0.0,0.0,0.0,0.0,0.0,0.0,0.0,0.0,2.7159,2.7439,0.0,0.0,0.0,0.0,0.0,0.0,0.0,0.0,0.0,0.0,0.0,3.3479,3.3767,0.0,0.0,0.0,0.0,0.0,0.0,0.0,0.0,0.0,0.0,0.0,0.0,4.3615,4.5645,4.4896,4.384,4.2665,3.9729,3.6555,3.3193,2.9479,2.485,1.9037,0.0,0.0,0.0,0.0,0.0,0.0,0.0,0.0,0.0,0.0,0.0,0.0,0.0,0.0,0.0,0.0,0.0,0.0,0.0,0.0,0.0,0.0,0.0,0.0,0.0,3.7485,0.0,0.0,0.0,0.0,0.0,0.0,0.0,0.0,0.0,0.0,0.0,4.0231,4.1626,4.2554,4.2978,4.2707,4.2125,4.1452,0.0,0.0,0.0,0.0,0.0,0.0,0.0,0.0,0.0,0.0,0.0,0.0,0.0,0.0,3.2595,2.8711,2.7991,2.7972,2.794,0.0,0.0,0.0,0.0,0.0,0.0,0.0,0.0,0.0,0.0,0.0,0.0,0.0,0.0,0.0,2.7656,0.0,0.0,2.7403,0.0,0.0,0.0,0.0,0.0,0.0,0.0,0.0,0.0,0.0,0.0,0.0,0.0,0.0,0.0,0.0,0.0,0.0,0.0,0.0,0.0,0.0,4.1822,4.5195,4.3285,4.1933,4.1349,3.8473,3.5189,3.1679,2.7928,2.4065,1.9905,0.0,0.0,0.0,0.0,0.0,0.0,0.0,0.0,0.0,0.0,0.0,0.0,0.0,0.0,0.0,0.0,0.0,0.0,0.0,0.0,0.0,0.0,0.0,0.0,0.0,0.0,3.5438,3.5588,3.5613,0.0,0.0,0.0,0.0,0.0,0.0,0.0,0.0,0.0,0.0,4.0189,4.0394,4.0821,4.0402,3.9673,3.8641,3.8195,3.7811,3.7148,3.6064,3.5296,0.0,0.0,0.0,0.0,0.0,0.0,0.0,0.0,0.0,0.0,0.0,0.0,0.0,0.0,0.0,0.0,0.0,0.0,0.0,0.0,0.0,0.0,0.0,0.0,0.0,0.0,0.0,0.0,0.0,0.0,0.0,0.0,0.0,0.0,0.0,0.0,0.0,0.0,0.0,0.0,0.0,0.0,0.0,0.0,0.0,0.0,0.0,0.0,0.0,0.0,0.0,0.0,0.0,0.0,4.1751,4.5222,4.3048,4.1539,4.072,3.7263,3.3654,2.9839,2.5337,2.1066,0.0,0.0,0.0,0.0,0.0,0.0,0.0,0.0,0.0,0.0,0.0,0.0,0.0,0.0,0.0,0.0,0.0,0.0,0.0,0.0,0.0,0.0,0.0,0.0,0.0,0.0,0.0,0.0,3.4242,3.4313,3.4027,0.0,0.0,0.0,0.0,0.0,0.0,0.0,0.0,0.0,0.0,3.8745,3.8434,3.8577,3.828,3.7253,3.6344,3.5564,3.4908,3.3793,3.2859,3.2345,0.0,0.0,0.0,0.0,0.0,0.0,0.0,0.0,0.0,0.0,0.0,0.0,0.0,0.0,0.0,0.0,0.0,0.0,0.0,0.0,0.0,0.0,0.0,0.0,0.0,0.0,0.0,0.0,0.0,0.0,0.0,0.0,0.0,0.0,0.0,0.0,0.0,0.0,0.0,0.0,0.0,0.0,0.0,0.0,0.0,0.0,0.0,0.0,0.0,0.0,0.0,0.0,0.0,4.1663,4.4865,4.2574,4.0925,3.981,3.6341,3.2537,2.8629,2.3647,1.9085,0.0,0.0,0.0,0.0,0.0,0.0,0.0,0.0,0.0,0.0,0.0,0.0,0.0,0.0,0.0,0.0,0.0,0.0,0.0,0.0,0.0,0.0,0.0,0.0,0.0,0.0,0.0,0.0,3.3238,3.3588,3.3028,0.0,0.0,0.0,0.0,0.0,0.0,0.0,0.0,0.0,0.0,3.6314,3.6043,3.6208,0.0,0.0,3.415,3.3364,3.2735,3.153,3.0526,3.0034,2.8294,0.0,0.0,0.0,0.0,0.0,0.0,0.0,0.0,0.0,0.0,0.0,0.0,0.0,0.0,0.0,0.0,0.0,0.0,0.0,0.0,0.0,0.0,0.0,0.0,0.0,0.0,0.0,0.0,0.0,0.0,0.0,0.0,0.0,0.0,0.0,0.0,0.0,0.0,0.0,0.0,0.0,0.0,0.0,0.0,0.0,0.0,0.0,0.0,0.0,0.0,0.0,0.0,4.1396,4.399,4.1912,4.0158,3.8956,3.5516,3.1796,2.764,2.2552,1.7862,0.0,0.0,0.0,0.0,0.0,0.0,0.0,0.0,0.0,0.0,0.0,0.0,0.0,0.0,0.0,0.0,0.0,0.0,0.0,0.0,0.0,0.0,0.0,0.0,0.0,0.0,0.0,0.0,0.0,0.0,0.0,0.0,0.0,0.0,0.0,0.0,0.0,0.0,0.0,0.0,0.0,3.3359,3.3763,3.3679,3.3172,0.0,3.1722,3.1314,3.0586,2.9215,2.8172,2.806,0.0,0.0,0.0,0.0,0.0,0.0,0.0,0.0,0.0,0.0,0.0,0.0,0.0,0.0,0.0,0.0,0.0,0.0,0.0,0.0,0.0,0.0,0.0,0.0,0.0,0.0,0.0,0.0,0.0,0.0,0.0,0.0,0.0,0.0,0.0,0.0,0.0,0.0,0.0,0.0,0.0,0.0,0.0,0.0,0.0,0.0,0.0,0.0,0.0,0.0,0.0,0.0,0.0,0.0,4.2651,4.0818,3.9291,3.8136,3.4316,3.0149,2.5689,2.0659,0.0,0.0,0.0,0.0,0.0,0.0,0.0,0.0,0.0,0.0,0.0,0.0,0.0,0.0,0.0,0.0,0.0,0.0,0.0,0.0,0.0,0.0,0.0,0.0,0.0,0.0,0.0,2.8179,0.0,0.0,0.0,0.0,0.0,0.0,0.0,0.0,0.0,0.0,0.0,0.0,0.0,0.0,3.2478,3.2282,3.2625,3.256,0.0,0.0,2.9519,2.8418,2.727,2.6169,0.0,0.0,0.0,0.0,0.0,0.0,0.0,0.0,0.0,0.0,0.0,0.0,0.0,0.0,0.0,0.0,0.0,0.0,0.0,0.0,0.0,0.0,0.0,0.0,0.0,0.0,0.0,0.0,0.0,0.0,0.0,0.0,0.0,0.0,0.0,0.0,0.0,0.0,0.0,0.0,0.0,0.0,0.0,0.0,0.0,0.0,0.0,0.0,0.0,0.0,0.0,0.0,0.0,0.0,3.9791,4.1611,4.0265,3.8846,3.7437,3.3654,2.9601,2.5266,2.0048,1.5656,0.0,0.0,0.0,0.0,0.0,0.0,0.0,0.0,0.0,0.0,0.0,0.0,0.0,0.0,0.0,0.0,0.0,0.0,0.0,0.0,0.0,0.0,0.0,0.0,0.0,0.0,0.0,0.0,0.0,0.0,0.0,0.0,0.0,0.0,0.0,0.0,0.0,0.0,0.0,0.0,0.0,0.0,3.1369,3.127,0.0,0.0,0.0,2.8067,2.6885,0.0,0.0,0.0,0.0,0.0,0.0,0.0,0.0,0.0,0.0,0.0,0.0,0.0,0.0,0.0,0.0,0.0,0.0,0.0,0.0,0.0,0.0,0.0,0.0,0.0,0.0,0.0,0.0,0.0,0.0,0.0,0.0,0.0,0.0,0.0,0.0,0.0,0.0,0.0,0.0,0.0,0.0,0.0,0.0,0.0,0.0,0.0,0.0,0.0,0.0,0.0,0.0,0.0,0.0,0.0,0.0,0.0,4.0628,3.9852,3.8545,3.6676,3.3351,2.9669,2.5477,2.0266,1.6055,0.0,0.0,0.0,0.0,0.0,0.0,0.0,0.0,0.0,0.0,0.0,0.0,0.0,0.0,0.0,0.0,0.0,0.0,0.0,0.0,0.0,0.0,0.0,0.0,0.0,0.0,0.0,0.0,0.0,0.0,0.0,0.0,0.0,0.0,0.0,0.0,0.0,0.0,0.0,0.0,0.0,3.108,3.108,2.9973,2.8896,0.0,0.0,2.6685,2.583,2.4654,0.0,0.0,0.0,0.0,0.0,0.0,0.0,0.0,0.0,0.0,0.0,0.0,0.0,0.0,0.0,0.0,0.0,0.0,0.0,0.0,0.0,0.0,0.0,0.0,0.0,0.0,0.0,0.0,0.0,0.0,0.0,0.0,0.0,0.0,0.0,0.0,0.0,0.0,0.0,0.0,0.0,0.0,0.0,0.0,0.0,0.0,0.0,0.0,0.0,0.0,0.0,0.0,0.0,0.0,0.0,0.0,3.8114,3.8604,3.7688,3.5393,3.2633,2.9289,2.5236,2.0887,1.7016,0.0,0.0,0.0,0.0,0.0,0.0,0.0,0.0,0.0,0.0,0.0,0.0,0.0,0.0,0.0,0.0,0.0,0.0,0.0,0.0,0.0,0.0,0.0,0.0,0.0,0.0,0.0,0.0,0.0,0.0,0.0,0.0,0.0,0.0,0.0,0.0,0.0,0.0,0.0,0.0,0.0,3.2224,3.2024,3.0344,0.0,0.0,0.0,0.0,2.4734,2.4054,0.0,0.0,0.0,0.0,0.0,0.0,0.0,0.0,0.0,0.0,0.0,0.0,0.0,0.0,0.0,0.0,0.0,0.0,0.0,0.0,0.0,0.0,0.0,0.0,0.0,0.0,0.0,0.0,0.0,0.0,0.0,0.0,0.0,0.0,0.0,0.0,0.0,0.0,0.0,0.0,0.0,0.0,0.0,0.0,0.0,0.0,0.0,0.0,0.0,0.0,0.0,0.0,0.0,0.0,0.0,0.0,3.7421,3.8233,3.7564,3.5216,3.2712,2.9572,2.5726,2.1835,1.8371,0.0,0.0,0.0,0.0,0.0,0.0,0.0,0.0,0.0,0.0,0.0,0.0,0.0,0.0,0.0,0.0,0.0,0.0,0.0,0.0,0.0,0.0,0.0,0.0,0.0,0.0,0.0,0.0,0.0,0.0,0.0,0.0,0.0,0.0,0.0,0.0,0.0,0.0,0.0,0.0,3.2862,3.2831,3.2514,0.0,0.0,0.0,0.0,0.0,0.0,2.4631,2.3766,0.0,0.0,0.0,0.0,0.0,0.0,0.0,0.0,0.0,0.0,0.0,0.0,0.0,0.0,0.0,0.0,0.0,0.0,0.0,0.0,0.0,0.0,0.0,0.0,0.0,0.0,0.0,0.0,0.0,0.0,0.0,0.0,0.0,0.0,0.0,0.0,0.0,0.0,0.0,0.0,0.0,0.0,0.0,0.0,0.0,0.0,0.0,0.0,0.0,0.0,0.0,0.0,0.0,0.0,0.0,3.7243,3.8083,3.7499,3.5389,3.3249,3.041,2.6796,2.327,2.0259,1.7929,0.0,0.0,0.0,0.0,0.0,0.0,0.0,0.0,0.0,0.0,0.0,0.0,0.0,0.0,0.0,0.0,0.0,0.0,0.0,0.0,0.0,0.0,0.0,0.0,0.0,0.0,0.0,0.0,0.0,0.0,0.0,0.0,0.0,0.0,0.0,0.0,0.0,0.0,0.0,3.4198,3.3776,0.0,0.0,0.0,0.0,0.0,0.0,0.0,0.0,2.5051,0.0,0.0,0.0,0.0,0.0,0.0,0.0,0.0,0.0,0.0,0.0,0.0,0.0,0.0,0.0,0.0,0.0,0.0,0.0,0.0,0.0,0.0,0.0,0.0,0.0,0.0,0.0,0.0,0.0,0.0,0.0,0.0,0.0,0.0,0.0,0.0,0.0,0.0,0.0,0.0,0.0,0.0,0.0,0.0,0.0,0.0,0.0,0.0,0.0,0.0,0.0,0.0,0.0,0.0,0.0,0.0,3.7362,3.7077,3.5104,3.4376,3.2266,2.8665,2.5517,2.3609,2.2931,0.0,0.0,0.0,0.0,0.0,0.0,0.0,0.0,0.0,0.0,0.0,0.0,0.0,0.0,0.0,0.0,0.0,0.0,0.0,0.0,0.0,0.0,0.0,0.0,0.0,0.0,0.0,0.0,0.0,0.0,0.0,0.0,0.0,0.0,0.0,0.0,0.0,0.0,3.6361,3.6696,0.0,0.0,0.0,0.0,0.0,0.0,0.0,0.0,2.7561,0.0,0.0,0.0,0.0,0.0,0.0,0.0,0.0,0.0,0.0,0.0,0.0,0.0,0.0,0.0,0.0,0.0,0.0,0.0,0.0,0.0,0.0,0.0,0.0,0.0,0.0,0.0,0.0,0.0,0.0,0.0,0.0,0.0,0.0,0.0,0.0,0.0,0.0,0.0,0.0,0.0,0.0,0.0,0.0,0.0,0.0,0.0,0.0,0.0,0.0,0.0,0.0,0.0,0.0,0.0,0.0,0.0,0.0,3.7244,3.5961,3.5048,3.3274,3.0425,2.9064,2.7716,0.0,0.0,0.0,0.0,0.0,0.0,0.0,0.0,0.0,0.0,0.0,0.0,0.0,0.0,0.0,0.0,0.0,0.0,0.0,0.0,0.0,0.0,0.0,0.0,0.0,0.0,0.0,0.0,0.0,0.0,0.0,0.0,0.0,0.0,0.0,0.0,0.0,0.0,0.0,0.0,0.0,0.0,0.0,0.0,0.0,0.0,0.0,0.0,0.0,0.0,0.0,0.0,0.0,0.0,0.0,0.0,0.0,0.0,0.0,0.0,0.0,0.0,0.0,0.0,0.0,0.0,0.0,0.0,0.0,0.0,0.0,0.0,0.0,0.0,0.0,0.0,0.0,0.0,0.0,0.0,0.0,0.0,0.0,0.0,0.0,0.0,0.0,0.0,0.0,0.0,0.0,0.0,0.0,0.0,0.0,0.0,0.0,0.0,0.0,0.0,0.0,0.0,0.0,0.0,0.0,0.0,0.0,0.0,3.79,3.7465,3.6291,3.4718,3.2609,3.2869,3.1722,0.0,0.0,0.0,0.0,0.0,0.0,0.0,0.0,0.0,0.0,0.0,0.0,0.0,0.0,0.0,0.0,0.0,0.0,0.0,0.0,0.0,0.0,0.0,0.0,0.0,0.0,0.0,0.0,0.0,0.0,0.0,0.0,0.0,0.0,0.0,0.0,0.0,0.0,0.0,0.0,0.0,0.0,0.0,0.0,0.0,0.0,0.0,0.0,3.0445,0.0,0.0,0.0,0.0,0.0,0.0,0.0,0.0,0.0,0.0,0.0,0.0,0.0,0.0,0.0,0.0,0.0,0.0,0.0,0.0,0.0,0.0,0.0,0.0,0.0,0.0,0.0,0.0,0.0,0.0,0.0,0.0,0.0,0.0,0.0,0.0,0.0,0.0,0.0,0.0,0.0,0.0,0.0,0.0,0.0,0.0,0.0,0.0,0.0,0.0,0.0,0.0,0.0,0.0,0.0,0.0,0.0,0.0,0.0,3.9167,3.9644,3.912,3.7838,3.5936,3.6438,3.505,0.0,0.0,0.0,0.0,0.0,0.0,0.0,0.0,0.0,0.0,0.0,0.0,0.0,0.0,0.0,0.0,0.0,0.0,0.0,0.0,0.0,0.0,0.0,0.0,0.0,0.0,0.0,0.0,0.0,0.0,0.0,0.0,0.0,0.0,0.0,0.0,0.0,0.0,0.0,0.0,0.0,0.0,0.0,0.0,0.0,0.0,0.0,0.0,0.0,0.0,0.0,0.0,0.0,0.0,0.0,0.0,0.0,0.0,0.0,0.0,0.0,0.0,0.0,0.0,0.0,0.0,0.0,0.0,0.0,0.0,0.0,0.0,0.0,0.0,0.0,0.0,0.0,0.0,0.0,0.0,0.0,0.0,0.0,0.0,0.0,0.0,0.0,0.0,0.0,0.0,0.0,0.0,0.0,0.0,0.0,0.0,0.0,0.0,0.0,0.0,0.0,0.0,0.0,0.0,0.0,0.0,0.0,0.0,4.0188,4.0482,4.0646,4.0291,3.9313,3.7862,3.6014,0.0,0.0,0.0,0.0,0.0,0.0,0.0,0.0,0.0,0.0,0.0,0.0,0.0,0.0,0.0,0.0,0.0,0.0,0.0,0.0,0.0,0.0,0.0,0.0,0.0,0.0,0.0,0.0,0.0,0.0,0.0,0.0,0.0,0.0,0.0,0.0,0.0,0.0,0.0,0.0,0.0,0.0,0.0,0.0,0.0,0.0,0.0,0.0,0.0,0.0,0.0,0.0,0.0,0.0,0.0,0.0,0.0,0.0,0.0,0.0,0.0,0.0,0.0,0.0,0.0,0.0,0.0,0.0,0.0,0.0,0.0,0.0,0.0,0.0,0.0,0.0,0.0,0.0,0.0,0.0,0.0,0.0,0.0,0.0,0.0,0.0,0.0,0.0,0.0,0.0,0.0,0.0,0.0,0.0,0.0,0.0,0.0,0.0,0.0,0.0,0.0,0.0,0.0,0.0,0.0,0.0,0.0,0.0,0.0,4.1372,4.2336,4.2351,4.1315,3.9168,3.6916,0.0,0.0,0.0,0.0,0.0,0.0,0.0,0.0,0.0,0.0,0.0,0.0,0.0,0.0,0.0,0.0,0.0,0.0,0.0,0.0,0.0,0.0,0.0,0.0,0.0,0.0,0.0,0.0,0.0,0.0,0.0,0.0,0.0,0.0,0.0,0.0,0.0,0.0,0.0,0.0,0.0,0.0,0.0,0.0,0.0,0.0,0.0,0.0,0.0,0.0,0.0,0.0,0.0,0.0,0.0,0.0,0.0,0.0,0.0,0.0,0.0,0.0,0.0,0.0,0.0,0.0,0.0,0.0,0.0,0.0,0.0,0.0,0.0,0.0,0.0,0.0,0.0,0.0,0.0,0.0,0.0,0.0,0.0,0.0,0.0,0.0,0.0,0.0,0.0,0.0,0.0,0.0,0.0,0.0,0.0,0.0,0.0,0.0,0.0,0.0,0.0,0.0,0.0,0.0,0.0,0.0,0.0,0.0,0.0,4.28,4.4543,4.4065,4.1331,4.0865,3.8284,0.0,0.0,0.0,0.0,0.0,0.0,0.0,0.0,0.0,0.0,0.0,0.0,0.0,0.0,0.0,0.0,0.0,0.0,0.0,0.0,0.0,0.0,0.0,0.0,0.0,0.0,0.0,0.0,0.0,0.0,0.0,0.0,0.0,0.0,0.0,0.0,0.0,0.0,0.0,0.0,0.0,0.0,0.0,0.0,0.0,0.0,0.0,0.0,0.0,0.0,0.0,0.0,0.0,0.0,0.0,0.0,0.0,0.0,0.0,0.0,0.0,0.0,0.0,0.0,0.0,0.0,0.0,0.0,0.0,0.0,0.0,0.0,0.0,0.0,0.0,0.0,0.0,0.0,0.0,0.0,0.0,0.0,0.0,0.0,0.0,0.0,0.0,0.0,0.0,0.0,0.0,0.0,0.0,0.0,0.0,0.0,0.0,0.0,0.0,0.0,0.0,0.0,0.0,0.0,0.0,0.0,0.0,0.0,0.0,4.4563,4.4146,4.3182,4.1859,3.9882,3.7316,3.4249,0.0,0.0,0.0,0.0,0.0,0.0,0.0,0.0,0.0,0.0,0.0,0.0,0.0,0.0,0.0,0.0,0.0,0.0,0.0,0.0,0.0,0.0,0.0,0.0,0.0,0.0,0.0,0.0,0.0,0.0,0.0,0.0,0.0,0.0,0.0,0.0,0.0,0.0,0.0,0.0,0.0,0.0,0.0,0.0,0.0,0.0,0.0,0.0,0.0,0.0,0.0,0.0,0.0,0.0,0.0,0.0,0.0,0.0,0.0,0.0,0.0,0.0,0.0,0.0,0.0,0.0,0.0,0.0,0.0,0.0,0.0,0.0,0.0,0.0,0.0,0.0,0.0,0.0,0.0,0.0,0.0,0.0,0.0,0.0,0.0,0.0,0.0,0.0,0.0,0.0,0.0,0.0,0.0,0.0,0.0,0.0,0.0,0.0,0.0,0.0,0.0,0.0,0.0,0.0,0.0,0.0,0.0,0.0,4.6256,4.4405,4.2966,4.2141,3.9481,3.6848,0.0,0.0,0.0,0.0,0.0,0.0,0.0,0.0,0.0,0.0,0.0,0.0,0.0,0.0,0.0,0.0,0.0,0.0,0.0,0.0,0.0,0.0,0.0,0.0,0.0,0.0,0.0,0.0,0.0,0.0,0.0,0.0,0.0,0.0,0.0,0.0,0.0,0.0,0.0,0.0,0.0,0.0,0.0,0.0,0.0,0.0,0.0,0.0,0.0,0.0,0.0,0.0,0.0,0.0,0.0,0.0,0.0,0.0,0.0,0.0,0.0,0.0,0.0,0.0,0.0,0.0,0.0,0.0,0.0,0.0,0.0,0.0,0.0,0.0,0.0,0.0,0.0,0.0,0.0,0.0,0.0,0.0,0.0,0.0,0.0,0.0,0.0,0.0,0.0,0.0,0.0,0.0,0.0,0.0,0.0,0.0,0.0,0.0,0.0,0.0,0.0,0.0,0.0,0.0,0.0,0.0,0.0,0.0,4.6705,4.7645,4.5698,4.3845,4.2211,4.0236,3.7134,0.0,0.0,0.0,0.0,0.0,0.0,0.0,0.0,0.0,0.0,0.0,0.0,0.0,0.0,0.0,0.0,0.0,0.0,0.0,0.0,0.0,0.0,0.0,0.0,0.0,0.0,0.0,0.0,0.0,0.0,0.0,0.0,0.0,0.0,0.0,0.0,0.0,0.0,0.0,0.0,0.0,0.0,0.0,0.0,0.0,0.0,0.0,0.0,0.0,0.0,0.0,0.0,0.0,0.0,0.0,0.0,0.0,0.0,0.0,0.0,0.0,0.0,0.0,0.0,0.0,0.0,0.0,0.0,0.0,0.0,0.0,0.0,0.0,0.0,0.0,0.0,0.0,0.0,0.0,0.0,0.0,0.0,0.0,0.0,0.0,0.0,0.0,0.0,0.0,0.0,0.0,0.0,0.0,0.0,0.0,0.0,0.0,0.0,0.0,0.0,0.0,0.0,0.0,0.0,0.0,0.0,0.0,0.0,0.0,4.6838,0.0,4.3851,0.0,4.028,3.7566,0.0,0.0,0.0,0.0,0.0,0.0,0.0,0.0,0.0,0.0,0.0,0.0,0.0,0.0,0.0,0.0,0.0,0.0,0.0,0.0,0.0,0.0,0.0,0.0,0.0,0.0,0.0,0.0,0.0,0.0,0.0,0.0,0.0,0.0,0.0,0.0,0.0,0.0,0.0,0.0,0.0,0.0,0.0,0.0,0.0,0.0,0.0,0.0,0.0,0.0,0.0,0.0,0.0,0.0,0.0,0.0,0.0,0.0,0.0,0.0,0.0,0.0,0.0,0.0,0.0,0.0,0.0,0.0,0.0,0.0,0.0,0.0,0.0,0.0,0.0,0.0,0.0,0.0,0.0,0.0,0.0,0.0,0.0,0.0,0.0,0.0,0.0,0.0,0.0,0.0,0.0,0.0,0.0,0.0,0.0,0.0,0.0,0.0,0.0,0.0,0.0,0.0,0.0,0.0,0.0,0.0,0.0,0.0,0.0,4.7113,4.628,4.5191,4.3847,4.0596,3.8072,0.0,0.0,0.0,0.0,0.0,0.0,0.0,0.0,0.0,0.0,0.0,0.0,0.0,0.0,0.0,0.0,0.0,0.0,0.0,0.0,0.0,0.0,0.0,0.0,0.0,0.0,0.0,0.0,0.0,0.0,0.0,0.0,0.0,0.0,0.0,0.0,0.0,0.0,0.0,0.0,0.0,0.0,0.0,0.0,0.0,0.0,0.0,0.0,0.0,0.0,0.0,0.0,0.0,0.0,0.0,0.0,0.0,0.0,0.0,0.0,0.0,0.0,0.0,0.0,0.0,0.0,0.0,0.0,0.0,0.0,0.0,0.0,0.0,0.0,0.0,0.0,0.0,0.0,0.0,0.0,0.0,0.0,0.0,0.0,0.0,0.0,0.0,0.0,0.0,0.0,0.0,0.0,0.0,0.0,0.0,0.0,0.0,0.0,0.0,0.0,0.0,0.0,0.0,0.0,0.0,0.0,0.0,0.0,0.0,0.0,4.8786,4.7622,4.4499,4.1237,3.875,0.0,0.0,0.0,0.0,0.0,0.0,0.0,0.0,0.0,0.0,0.0,0.0,0.0,0.0,0.0,0.0,0.0,0.0,0.0,0.0,0.0,0.0,0.0,0.0,0.0,0.0,0.0,0.0,0.0,0.0,0.0,0.0,0.0,0.0,0.0,0.0,0.0,0.0,0.0,0.0,0.0,0.0,0.0,0.0,0.0,0.0,0.0,0.0,0.0,0.0,0.0,0.0,0.0,0.0,0.0,0.0,0.0,0.0,0.0,0.0,0.0,0.0,0.0,0.0,0.0,0.0,0.0,0.0,0.0,0.0,0.0,0.0,0.0,0.0,0.0,0.0,0.0,0.0,0.0,0.0,0.0,0.0,0.0,0.0,0.0,0.0,0.0,0.0,0.0,0.0,0.0,0.0,0.0,0.0,0.0,0.0,0.0,0.0,0.0,0.0,0.0,0.0,0.0,0.0,0.0,0.0,0.0,0.0,0.0,0.0,4.8157,4.7068,4.4144,4.1184,3.9389,3.891,0.0,0.0,0.0,0.0,0.0,0.0,0.0,0.0,0.0,0.0,0.0,0.0,0.0,0.0,0.0,0.0,0.0,0.0,0.0,0.0,0.0,0.0,0.0,0.0,0.0,0.0,0.0,0.0,0.0,0.0,0.0,0.0,0.0,0.0,0.0,0.0,0.0,0.0,0.0,0.0,0.0,0.0,0.0,0.0,0.0,0.0,0.0,0.0,0.0,0.0,0.0,0.0,0.0,0.0,0.0,0.0,0.0,0.0,0.0,0.0,0.0,0.0,0.0,0.0,0.0,0.0,0.0,0.0,0.0,0.0,0.0,0.0,0.0,0.0,0.0,0.0,0.0,0.0,0.0,0.0,0.0,0.0,0.0,0.0,0.0,0.0,0.0,0.0,0.0,0.0,0.0,0.0,0.0,0.0,0.0,0.0,0.0,0.0,0.0,0.0,0.0,0.0,0.0,0.0,0.0,0.0,0.0,0.0,0.0,0.0,4.6304,4.3602,4.2126,4.0792,0.0,0.0,0.0,0.0,0.0,0.0,0.0,0.0,0.0,0.0,0.0,0.0,0.0,0.0,0.0,0.0,0.0,0.0,0.0,0.0,0.0,0.0,0.0,0.0,0.0,0.0,0.0,0.0,0.0,0.0,0.0,0.0,0.0,0.0,0.0,0.0,0.0,0.0,0.0,0.0,0.0,0.0,0.0,0.0,0.0,0.0,0.0,0.0,0.0,0.0,0.0,0.0,0.0,0.0,0.0,0.0,0.0,0.0,0.0,0.0,0.0,0.0,0.0,0.0,0.0,0.0,0.0,0.0,0.0,0.0,0.0,0.0,0.0,0.0,0.0,0.0,0.0,0.0,0.0,0.0,0.0,0.0,0.0,0.0,0.0,0.0,0.0,0.0,0.0,0.0,0.0,0.0,0.0,0.0,0.0,0.0,0.0,0.0,0.0,0.0,0.0,0.0,0.0,0.0,0.0,0.0,0.0,0.0,0.0,0.0,0.0,4.5353,4.2914,4.3322,0.0,3.9752,0.0,0.0,0.0,0.0,0.0,0.0,0.0,0.0,0.0,0.0,0.0,0.0,0.0,0.0,0.0,0.0,0.0,0.0,0.0,0.0,0.0,0.0,0.0,0.0,0.0,0.0,0.0,0.0,0.0,0.0,0.0,0.0,0.0,0.0,0.0,0.0,0.0,0.0,0.0,0.0,0.0,0.0,0.0,0.0,0.0,0.0,0.0,0.0,0.0,0.0,0.0,0.0,0.0,0.0,0.0,0.0,0.0,0.0,0.0,0.0,0.0,0.0,0.0,0.0,0.0,0.0,0.0,0.0,0.0,0.0,0.0,0.0,0.0,0.0,0.0,0.0,0.0,0.0,0.0,0.0,0.0,0.0,0.0,0.0,0.0,0.0,0.0,0.0,0.0,0.0,0.0,0.0,0.0,0.0,0.0,0.0,0.0,0.0,0.0,0.0,0.0,0.0,0.0,0.0,0.0,0.0,0.0,0.0,0.0,0.0,0.0,0.0,4.2502,4.1657,3.9202,0.0,0.0,0.0,0.0,0.0,0.0,0.0,0.0,0.0,0.0,0.0,0.0,0.0,0.0,0.0,0.0,0.0,0.0,0.0,0.0,0.0,0.0,0.0,0.0,0.0,0.0,0.0,0.0,0.0,0.0,0.0,0.0,0.0,0.0,0.0,0.0,0.0,0.0,0.0,0.0,0.0,0.0,0.0,0.0,0.0,0.0,0.0,0.0,0.0,0.0,0.0,0.0,0.0,0.0,0.0,0.0,0.0,0.0,0.0,0.0,0.0,0.0,0.0,0.0,0.0,0.0,0.0,0.0,0.0,0.0,0.0,0.0,0.0,0.0,0.0,0.0,0.0,0.0,0.0,0.0,0.0,0.0,0.0,0.0,0.0,0.0,0.0,0.0,0.0,0.0,0.0,0.0,0.0,0.0,0.0,0.0,0.0,0.0,0.0,0.0,0.0,0.0,0.0,0.0,0.0,0.0,0.0,0.0,0.0,0.0,4.3292,4.126,4.1768,4.0982,3.8682,0.0,0.0,0.0,0.0,0.0,0.0,0.0,0.0,0.0,0.0,0.0,0.0,0.0,0.0,0.0,0.0,0.0,0.0,0.0,0.0,0.0,0.0,0.0,0.0,0.0,0.0,0.0,0.0,0.0,0.0,0.0,0.0,0.0,0.0,0.0,0.0,0.0,0.0,0.0,0.0,0.0,0.0,0.0,0.0,0.0,0.0,0.0,0.0,0.0,0.0,0.0,0.0,0.0,0.0,0.0,0.0,0.0,0.0,0.0,0.0,0.0,0.0,0.0,0.0,0.0,0.0,0.0,0.0,0.0,0.0,0.0,0.0,0.0,0.0,0.0,0.0,0.0,0.0,0.0,0.0,0.0,0.0,0.0,0.0,0.0,0.0,0.0,0.0,0.0,0.0,0.0,0.0,0.0,0.0,0.0,0.0,0.0,0.0,0.0,0.0,0.0,0.0,0.0,0.0,0.0,0.0,0.0,0.0,0.0,0.0,0.0,0.0,0.0,0.0,3.8088,0.0,0.0,0.0,0.0,0.0,0.0,0.0,0.0,0.0,0.0,0.0,0.0,0.0,0.0,0.0,0.0,0.0,0.0,0.0,0.0,0.0,0.0,0.0,0.0,0.0,0.0,0.0,0.0,0.0,0.0,0.0,0.0,0.0,0.0,0.0,0.0,0.0,0.0,0.0,0.0,0.0,0.0,0.0,0.0,0.0,0.0,0.0,0.0,0.0,0.0,0.0,0.0,0.0,0.0,0.0,0.0,0.0,0.0,0.0,0.0,0.0,0.0,0.0,0.0,0.0,0.0,0.0,0.0,0.0,0.0,0.0,0.0,0.0,0.0,0.0,0.0,0.0,0.0,0.0,0.0,0.0,0.0,0.0,0.0,0.0,0.0,0.0,0.0,0.0,0.0,0.0,0.0,0.0,0.0,0.0,0.0,0.0,0.0,0.0,0.0,0.0,0.0,0.0,0.0,0.0,0.0,0.0,0.0,0.0,0.0,0.0,0.0,0.0,0.0,0.0,0.0,0.0,0.0,0.0,0.0,0.0,0.0,0.0,0.0,0.0,0.0,0.0,0.0,0.0,0.0,0.0,0.0,0.0,0.0,0.0,0.0,0.0,0.0,0.0,0.0,0.0,0.0,0.0,0.0,0.0,0.0,0.0,0.0,0.0,0.0,0.0,0.0,0.0,0.0,0.0,0.0,0.0,0.0,0.0,0.0,0.0,0.0,0.0,0.0,0.0,0.0,0.0,0.0,0.0,0.0,0.0,0.0,0.0,0.0,0.0,0.0,0.0,0.0,0.0,0.0,0.0,0.0,0.0,0.0,0.0,0.0,0.0,0.0,0.0,0.0,0.0,0.0,0.0,0.0,0.0,0.0,0.0,0.0,0.0,0.0,0.0,0.0,0.0,0.0,0.0,0.0,0.0,0.0,0.0,0.0,0.0,0.0,0.0,0.0,0.0,0.0,0.0,0.0,0.0,0.0,0.0,0.0,0.0,0.0,0.0,0.0,0.0,0.0,0.0,0.0,0.0,0.0,0.0,0.0,0.0,0.0,0.0,0.0,0.0,0.0,0.0,0.0,0.0,0.0,0.0,0.0,0.0,0.0,0.0,0.0,0.0,0.0,0.0,0.0,0.0,0.0,0.0,0.0,0.0,0.0,0.0,0.0,0.0,0.0,0.0,0.0,0.0,0.0,0.0,0.0,0.0,0.0,0.0,0.0,0.0,0.0,0.0,0.0,0.0,0.0,0.0,0.0,0.0,0.0,0.0,0.0,0.0,0.0,0.0,0.0,0.0,0.0,0.0,0.0,0.0,0.0,0.0,0.0,0.0,0.0,0.0,0.0,0.0,0.0,0.0,0.0,0.0,0.0,0.0,0.0,0.0,0.0,0.0,0.0,0.0,0.0,0.0,0.0,0.0,0.0,0.0,0.0,0.0,0.0,0.0,0.0,0.0,0.0,0.0,0.0,0.0,0.0,0.0,0.0,0.0,0.0,0.0,0.0,0.0,0.0,0.0,0.0,0.0,0.0,0.0,0.0,0.0,0.0,0.0,0.0,0.0,0.0,0.0,0.0,0.0,0.0,0.0,0.0,0.0,0.0,0.0,0.0,0.0,0.0,0.0,0.0,0.0,0.0,0.0,0.0,0.0,0.0,0.0,0.0,0.0,0.0,0.0,0.0,0.0,0.0,0.0,0.0,0.0,0.0,0.0,0.0,0.0,0.0,0.0,0.0,0.0,0.0,0.0,0.0,0.0,0.0,0.0,0.0,0.0,0.0,0.0,0.0,0.0,0.0,0.0,0.0,0.0,0.0,0.0,0.0,0.0,0.0,0.0,0.0,0.0,0.0,0.0,0.0,0.0,0.0,0.0,0.0,0.0,0.0,0.0,0.0,0.0,0.0,0.0,0.0,0.0,0.0,0.0,0.0,0.0,0.0,0.0,0.0,0.0,0.0,0.0,0.0,0.0,0.0,0.0,0.0,0.0,0.0,0.0,0.0,0.0,0.0,0.0,0.0,0.0,0.0,0.0,0.0,0.0,0.0,0.0,0.0,0.0,0.0,0.0,0.0,0.0,0.0,0.0,0.0,0.0,0.0,0.0,0.0,0.0,0.0,0.0,0.0,0.0,0.0,0.0,0.0,0.0,0.0,0.0,0.0,0.0,0.0,0.0,0.0,0.0,0.0,0.0,0.0,0.0,0.0,0.0,0.0,0.0,0.0,0.0,0.0,0.0,0.0,0.0,0.0,0.0,0.0,0.0,0.0,0.0,0.0,0.0,0.0,0.0,0.0,0.0,0.0,0.0,0.0,0.0,0.0,0.0,0.0,0.0,0.0,0.0,0.0,0.0,0.0,0.0,0.0,0.0,0.0,0.0,0.0,0.0,0.0,0.0,0.0,0.0,0.0,0.0,0.0,0.0,0.0,0.0,0.0,0.0,0.0,0.0,0.0,0.0,0.0,0.0,0.0,0.0,0.0,0.0,0.0,0.0,0.0,0.0,0.0,0.0,0.0,0.0,0.0,0.0,0.0,0.0,0.0,0.0,0.0,0.0,0.0,0.0,0.0,0.0,0.0,0.0,0.0,0.0,0.0,0.0,0.0,0.0,0.0,0.0,0.0,0.0,0.0,0.0,0.0,0.0,0.0,0.0,0.0,0.0,0.0,0.0,0.0,0.0,0.0,0.0,0.0,0.0,0.0,0.0,0.0,0.0,0.0,0.0,0.0,0.0,0.0,0.0,0.0,0.0,0.0,0.0,0.0,0.0,0.0,0.0,0.0,0.0,0.0,0.0,0.0,0.0,0.0,0.0,0.0,0.0,0.0,0.0,0.0,0.0,0.0,0.0,0.0,0.0,0.0,0.0,0.0,0.0,0.0,0.0,0.0,0.0,0.0,0.0,0.0,0.0,0.0,0.0,0.0,0.0,0.0,0.0,0.0,0.0,0.0,0.0,0.0,0.0,0.0,0.0,0.0,0.0,0.0,0.0,0.0,0.0,0.0,0.0,0.0,0.0,0.0,0.0,0.0,0.0,0.0,0.0,0.0,0.0,0.0,0.0,0.0,0.0,0.0,0.0,0.0,0.0,0.0,0.0,0.0,0.0,0.0,0.0,0.0,0.0,0.0,0.0,0.0,0.0,0.0,0.0,0.0,0.0,0.0,0.0,0.0,0.0,0.0,0.0,0.0,0.0,0.0,0.0,0.0,0.0,0.0,0.0,0.0,0.0,0.0,0.0,0.0,0.0,0.0,0.0,0.0,0.0,0.0,0.0,0.0,0.0,0.0,0.0,0.0,0.0,0.0,0.0,0.0,0.0,0.0,0.0,0.0,0.0,0.0,0.0,0.0,0.0,0.0,0.0,0.0,0.0,0.0,0.0,0.0,0.0,0.0,0.0,0.0,0.0,0.0,0.0,0.0,0.0,0.0,0.0,0.0,0.0,0.0,0.0,0.0,0.0,0.0,0.0,0.0,0.0,0.0,0.0,0.0,0.0,0.0,0.0,0.0,0.0,0.0,0.0,0.0,0.0,0.0,0.0,0.0,0.0,0.0,0.0,0.0,0.0,0.0,0.0,0.0,0.0,0.0,0.0,0.0,0.0,0.0,0.0,0.0,0.0,0.0,0.0,0.0,0.0,0.0,0.0,0.0,0.0,0.0,0.0,0.0,0.0,0.0,0.0,0.0,0.0,0.0,0.0,0.0,0.0,0.0,0.0,0.0,0.0,0.0,0.0,0.0,0.0,0.0,0.0,0.0,0.0,0.0,0.0,0.0,0.0,0.0,0.0,0.0,0.0,0.0,0.0,0.0,0.0,0.0,0.0,0.0,0.0,0.0,0.0,0.0,0.0,0.0,0.0,0.0,0.0,0.0,0.0,0.0,0.0,0.0,0.0,0.0,0.0,0.0,0.0,0.0,0.0,0.0,0.0,0.0,0.0,0.0,0.0,0.0,0.0,0.0,0.0,0.0,0.0,0.0,0.0,0.0,0.0,0.0,0.0,0.0,0.0,0.0,0.0,0.0,0.0,0.0,0.0,0.0,0.0,0.0,0.0,0.0,0.0,0.0,0.0,0.0,0.0,0.0,0.0,0.0,0.0,0.0,0.0,0.0,0.0,0.0,0.0,0.0,0.0,0.0,0.0,0.0,0.0,0.0,0.0,0.0,0.0,0.0,0.0,0.0,0.0,0.0,0.0,0.0,0.0,0.0,0.0,0.0,0.0,0.0,0.0,0.0,0.0,0.0,0.0,0.0,0.0,0.0,0.0,0.0,0.0,0.0,0.0,0.0,0.0,0.0,0.0,0.0,0.0,0.0,0.0,0.0,0.0,0.0,0.0,0.0,0.0,0.0,0.0,0.0,0.0,0.0,0.0,0.0,0.0,0.0]}]]]